[[{"header":{"parameterUnit":"m.s-1","parameterCategory":1,"la1":30.6,"la2":29.2853,"lo1":-89.7004,"lo2":-87.6739,"dy":0.0162,"dx":0.0183,"nx":112,"ny":82,"refTime":"2023-05-13T06:00:00:Z","depth":0,"parameterNumber":2,"parameterNumberName":"U-component_of_WINDS"},"data":[0.0,0.0,0.0,0.0,0.0,0.0,0.0,0.0,0.0,0.0,0.0,0.0,0.0,0.0,0.0,0.0,0.0,0.0,0.0,0.0,0.0,0.0,0.0,0.0,0.0,0.0,0.0,0.0,0.0,0.0,0.0,0.0,0.0,0.0,0.0,0.0,0.0,0.0,0.0,0.0,0.0,0.0,0.0,0.0,0.0,0.0,0.0,0.0,0.0,0.0,0.0,0.0,0.0,0.0,0.0,0.0,0.0,0.0,0.0,0.0,0.0,0.0,0.0,0.0,0.0,0.0,0.0,0.0,0.0,0.0,0.0,0.0,0.0,0.0,0.0,0.0,0.0,0.0,0.0,0.0,0.0,0.0,0.0,0.0,0.0,0.0,0.0,0.0,0.0,0.0,-0.7767,-0.8636,-0.9823,-1.0318,-0.9793,-0.9886,-0.9383,-0.805,0.0,0.0,0.0,0.0,0.0,0.0,0.0,0.0,0.0,0.0,0.0,0.0,0.0,0.0,0.0,0.0,0.0,0.0,0.0,0.0,0.0,0.0,0.0,0.0,0.0,0.0,0.0,0.0,0.0,0.0,0.0,0.0,0.0,0.0,0.0,0.0,0.0,0.0,0.0,0.0,0.0,0.0,0.0,0.0,0.0,0.0,0.0,0.0,0.0,0.0,0.0,0.0,0.0,0.0,0.0,0.0,0.0,0.0,0.0,0.0,0.0,0.0,0.0,0.0,0.0,0.0,0.0,0.0,0.0,0.0,0.0,0.0,0.0,0.0,0.0,0.0,0.0,0.0,0.0,0.0,0.0,0.0,0.0,0.0,0.0,0.0,0.0,0.0,0.0,0.0,0.0,0.0,0.0,0.0,0.0,0.0,0.0,0.0,0.0,0.0,0.0,0.0,0.0,0.0,-0.8391,-0.9725,-1.004,-1.014,-1.006,-0.9604,-0.9054,-0.8356,0.0,0.0,0.0,0.0,0.0,0.0,0.0,0.0,0.0,0.0,0.0,0.0,0.0,0.0,0.0,0.0,0.0,0.0,0.0,0.0,0.0,0.0,0.0,0.0,0.0,0.0,0.0,0.0,0.0,0.0,0.0,0.0,0.0,0.0,0.0,0.0,0.0,0.0,0.0,0.0,0.0,0.0,0.0,0.0,0.0,0.0,0.0,0.0,0.0,0.0,0.0,0.0,0.0,0.0,0.0,0.0,0.0,0.0,0.0,0.0,0.0,0.0,0.0,0.0,0.0,0.0,0.0,0.0,0.0,0.0,0.0,0.0,0.0,0.0,0.0,0.0,0.0,0.0,0.0,0.0,0.0,0.0,0.0,0.0,0.0,0.0,0.0,0.0,0.0,0.0,0.0,0.0,0.0,0.0,0.0,0.0,0.0,0.0,0.0,0.0,0.0,0.0,0.0,-0.8818,-0.9126,-1.0265,-1.0207,-1.0047,-0.99,-0.9457,-0.8963,-0.8436,-0.8392,0.0,0.0,0.0,0.0,0.0,0.0,0.0,0.0,0.0,0.0,0.0,0.0,0.0,0.0,0.0,0.0,0.0,0.0,0.0,0.0,0.0,0.0,0.0,0.0,0.0,0.0,0.0,0.0,0.0,0.0,0.0,0.0,0.0,0.0,0.0,0.0,0.0,0.0,0.0,0.0,0.0,0.0,0.0,0.0,0.0,0.0,0.0,0.0,0.0,0.0,0.0,0.0,0.0,0.0,0.0,0.0,0.0,0.0,0.0,0.0,0.0,0.0,0.0,0.0,0.0,0.0,0.0,0.0,0.0,0.0,0.0,0.0,0.0,0.0,0.0,0.0,0.0,0.0,0.0,0.0,0.0,0.0,0.0,0.0,0.0,0.0,0.0,0.0,0.0,0.0,0.0,0.0,0.0,0.0,0.0,0.0,0.0,0.0,0.0,0.0,0.0,0.0,-0.9966,-0.9939,-1.0777,-1.0343,-0.9927,-0.9729,-0.9285,-0.8844,-0.8429,-0.8397,0.0,0.0,0.0,0.0,0.0,0.0,0.0,0.0,0.0,0.0,0.0,0.0,0.0,0.0,0.0,0.0,0.0,0.0,0.0,0.0,0.0,0.0,0.0,0.0,0.0,0.0,0.0,0.0,0.0,0.0,0.0,0.0,0.0,0.0,0.0,0.0,0.0,0.0,0.0,0.0,0.0,0.0,0.0,0.0,0.0,0.0,0.0,0.0,0.0,0.0,0.0,0.0,0.0,0.0,0.0,0.0,0.0,0.0,0.0,0.0,0.0,0.0,0.0,0.0,0.0,0.0,0.0,0.0,0.0,0.0,0.0,0.0,0.0,0.0,0.0,0.0,0.0,0.0,0.0,0.0,0.0,0.0,0.0,0.0,0.0,0.0,0.0,0.0,0.0,0.0,0.0,0.0,0.0,0.0,0.0,0.0,0.0,0.0,0.0,0.0,0.0,0.0,-1.0763,-1.0886,-1.1628,-1.0513,-0.9729,-0.9715,-0.8938,-0.8442,-0.8402,-0.839,0.0,0.0,0.0,0.0,0.0,0.0,0.0,0.0,0.0,0.0,0.0,0.0,0.0,0.0,0.0,0.0,0.0,0.0,0.0,0.0,0.0,0.0,0.0,0.0,0.0,0.0,0.0,0.0,0.0,0.0,0.0,0.0,0.0,0.0,0.0,0.0,0.0,0.0,0.0,0.0,0.0,0.0,0.0,0.0,0.0,0.0,0.0,0.0,0.0,0.0,0.0,0.0,0.0,0.0,0.0,0.0,0.0,0.0,0.0,0.0,0.0,0.0,0.0,0.0,0.0,0.0,0.0,0.0,0.0,0.0,0.0,0.0,0.0,0.0,0.0,0.0,0.0,0.0,0.0,0.0,0.0,0.0,0.0,0.0,0.0,0.0,0.0,0.0,0.0,0.0,0.0,0.0,0.0,0.0,0.0,0.0,0.0,0.0,0.0,0.0,0.0,0.0,-1.122,-1.0994,0.0,-1.0275,-0.9606,-0.9391,-0.8778,-0.8482,-0.8631,0.0,0.0,0.0,0.0,0.0,0.0,0.0,0.0,0.0,0.0,0.0,0.0,0.0,0.0,0.0,0.0,0.0,0.0,0.0,0.0,0.0,0.0,0.0,0.0,0.0,0.0,0.0,0.0,0.0,0.0,0.0,0.0,0.0,0.0,0.0,0.0,0.0,0.0,0.0,0.0,0.0,0.0,0.0,0.0,0.0,0.0,0.0,0.0,0.0,0.0,0.0,0.0,0.0,0.0,0.0,0.0,0.0,0.0,0.0,0.0,0.0,0.0,0.0,0.0,0.0,0.0,0.0,0.0,0.0,0.0,0.0,0.0,0.0,0.0,0.0,0.0,0.0,0.0,0.0,0.0,0.0,0.0,0.0,0.0,0.0,0.0,0.0,0.0,0.0,0.0,0.0,0.0,0.0,0.0,0.0,0.0,0.0,0.0,0.0,0.0,0.0,0.0,-1.2111,-1.1798,-1.1372,0.0,-1.0378,-0.9672,-0.9125,-0.8564,-0.8363,-0.8657,0.0,0.0,0.0,0.0,0.0,0.0,0.0,0.0,0.0,0.0,0.0,0.0,0.0,0.0,0.0,0.0,0.0,0.0,0.0,0.0,0.0,0.0,0.0,0.0,0.0,0.0,0.0,0.0,0.0,0.0,0.0,0.0,0.0,0.0,0.0,0.0,0.0,0.0,0.0,0.0,0.0,0.0,0.0,0.0,0.0,0.0,0.0,0.0,0.0,0.0,0.0,0.0,0.0,0.0,0.0,0.0,0.0,0.0,0.0,0.0,0.0,0.0,0.0,0.0,0.0,0.0,0.0,0.0,0.0,0.0,0.0,0.0,0.0,0.0,0.0,0.0,0.0,0.0,0.0,0.0,0.0,0.0,0.0,0.0,0.0,0.0,0.0,0.0,0.0,0.0,0.0,0.0,0.0,0.0,0.0,0.0,0.0,0.0,0.0,0.0,0.0,0.0,-1.2941,-1.2628,-1.2192,-1.1936,-1.0934,-0.9884,-0.8884,-0.8245,-0.8032,0.0,0.0,0.0,0.0,0.0,0.0,0.0,0.0,0.0,0.0,0.0,0.0,0.0,0.0,0.0,0.0,0.0,0.0,0.0,0.0,0.0,0.0,0.0,0.0,0.0,0.0,0.0,0.0,0.0,0.0,0.0,0.0,0.0,0.0,0.0,0.0,0.0,0.0,0.0,0.0,0.0,0.0,0.0,0.0,0.0,0.0,0.0,0.0,0.0,0.0,0.0,0.0,0.0,0.0,0.0,0.0,0.0,0.0,0.0,0.0,0.0,0.0,0.0,0.0,0.0,0.0,0.0,0.0,0.0,0.0,0.0,0.0,0.0,0.0,0.0,0.0,0.0,0.0,0.0,0.0,0.0,0.0,0.0,0.0,0.0,0.0,0.0,0.0,0.0,0.0,0.0,0.0,0.0,0.0,0.0,0.0,0.0,0.0,0.0,0.0,0.0,0.0,0.0,-1.2846,-1.2565,-1.1983,-1.1212,-1.0612,-0.9824,-0.8614,-0.835,-0.8299,-0.8403,0.0,0.0,0.0,0.0,0.0,0.0,0.0,0.0,0.0,0.0,0.0,0.0,0.0,0.0,0.0,0.0,0.0,0.0,0.0,0.0,0.0,0.0,0.0,0.0,0.0,0.0,0.0,0.0,0.0,0.0,0.0,0.0,0.0,0.0,0.0,0.0,0.0,0.0,0.0,0.0,0.0,0.0,0.0,0.0,0.0,0.0,0.0,0.0,0.0,0.0,0.0,0.0,0.0,0.0,0.0,0.0,0.0,0.0,0.0,0.0,0.0,0.0,0.0,0.0,0.0,0.0,0.0,0.0,0.0,0.0,0.0,0.0,0.0,0.0,0.0,0.0,0.0,0.0,0.0,0.0,0.0,0.0,0.0,0.0,0.0,0.0,0.0,0.0,0.0,0.0,0.0,0.0,0.0,0.0,0.0,0.0,0.0,0.0,0.0,0.0,0.0,0.0,-1.2812,-1.2688,-1.2197,-1.1283,-1.0779,-1.0026,-0.8891,-0.8539,-0.8396,-0.8387,0.0,0.0,0.0,0.0,0.0,0.0,0.0,0.0,0.0,0.0,0.0,0.0,0.0,0.0,0.0,0.0,0.0,0.0,0.0,0.0,0.0,0.0,0.0,0.0,0.0,0.0,0.0,0.0,0.0,0.0,0.0,0.0,0.0,0.0,0.0,0.0,0.0,0.0,0.0,0.0,0.0,0.0,0.0,0.0,0.0,0.0,0.0,0.0,0.0,0.0,0.0,0.0,0.0,0.0,0.0,0.0,0.0,0.0,0.0,0.0,0.0,0.0,0.0,0.0,0.0,0.0,0.0,0.0,0.0,0.0,0.0,0.0,0.0,0.0,0.0,0.0,0.0,0.0,0.0,0.0,0.0,0.0,0.0,0.0,0.0,0.0,0.0,0.0,0.0,0.0,0.0,0.0,0.0,0.0,0.0,0.0,0.0,0.0,0.0,0.0,0.0,0.0,-1.2856,-1.2915,-1.2608,-1.1888,-1.1191,-1.0431,-0.9481,-0.8816,-0.8415,-0.8412,0.0,0.0,0.0,0.0,0.0,0.0,0.0,0.0,0.0,0.0,0.0,0.0,0.0,0.0,0.0,0.0,0.0,0.0,0.0,0.0,0.0,0.0,0.0,0.0,0.0,0.0,0.0,0.0,0.0,0.0,0.0,0.0,0.0,0.0,0.0,0.0,0.0,0.0,0.0,0.0,0.0,0.0,0.0,0.0,0.0,0.0,0.0,0.0,0.0,0.0,0.0,0.0,0.0,0.0,0.0,0.0,0.0,0.0,0.0,0.0,-1.611,0.0,0.0,0.0,0.0,0.0,0.0,0.0,0.0,0.0,0.0,0.0,0.0,0.0,0.0,0.0,0.0,0.0,0.0,0.0,0.0,0.0,0.0,0.0,0.0,0.0,0.0,0.0,0.0,0.0,0.0,0.0,0.0,0.0,0.0,0.0,0.0,0.0,0.0,0.0,0.0,0.0,-1.2895,-1.2915,-1.2608,-1.1888,-1.1191,-1.0431,-0.9481,-0.8973,-0.8612,-0.8413,-0.8591,0.0,0.0,0.0,0.0,0.0,0.0,0.0,0.0,0.0,0.0,0.0,0.0,0.0,0.0,0.0,0.0,0.0,0.0,0.0,0.0,0.0,0.0,0.0,0.0,0.0,0.0,0.0,0.0,0.0,0.0,0.0,0.0,0.0,0.0,0.0,0.0,0.0,0.0,0.0,0.0,0.0,0.0,0.0,0.0,0.0,0.0,0.0,0.0,0.0,0.0,0.0,0.0,0.0,0.0,0.0,0.0,0.0,0.0,0.0,0.0,-1.7003,0.0,0.0,0.0,0.0,0.0,0.0,0.0,0.0,0.0,0.0,0.0,0.0,0.0,0.0,0.0,0.0,0.0,0.0,0.0,0.0,0.0,0.0,0.0,0.0,0.0,0.0,0.0,0.0,0.0,0.0,0.0,0.0,0.0,0.0,0.0,0.0,0.0,0.0,0.0,0.0,-1.291,-1.2915,-1.2749,-1.2369,-1.1708,-1.0948,-1.0143,-0.9588,-0.9071,-0.8625,-0.8751,0.0,0.0,0.0,0.0,0.0,0.0,0.0,0.0,0.0,0.0,0.0,0.0,0.0,0.0,0.0,0.0,0.0,0.0,0.0,0.0,0.0,0.0,0.0,0.0,0.0,0.0,0.0,0.0,0.0,0.0,0.0,0.0,0.0,0.0,0.0,0.0,0.0,0.0,0.0,0.0,0.0,0.0,0.0,0.0,0.0,0.0,0.0,0.0,0.0,0.0,0.0,0.0,0.0,-2.1711,-2.1924,-2.2136,-2.2431,-2.1901,-2.0651,-1.9552,-1.8867,-1.8526,-1.8467,0.0,0.0,0.0,0.0,0.0,0.0,0.0,0.0,0.0,0.0,0.0,0.0,0.0,0.0,0.0,0.0,0.0,0.0,0.0,0.0,0.0,0.0,0.0,0.0,-1.7471,-1.709,-1.5456,0.0,0.0,0.0,0.0,0.0,0.0,0.0,0.0,0.0,0.0,0.0,-1.3052,-1.2954,-1.2935,-1.3013,-1.2283,-1.1591,-1.1015,-1.0372,-0.9692,-0.9001,-0.9038,-0.8894,0.0,0.0,0.0,0.0,0.0,0.0,0.0,0.0,0.0,0.0,0.0,0.0,0.0,0.0,0.0,0.0,0.0,0.0,0.0,0.0,0.0,0.0,0.0,0.0,0.0,0.0,0.0,0.0,0.0,0.0,0.0,0.0,-1.9767,-1.9378,0.0,0.0,0.0,0.0,0.0,0.0,0.0,0.0,0.0,0.0,0.0,0.0,0.0,-2.4106,-2.5099,-2.5806,-2.6036,-2.5775,-2.5254,-2.4809,-2.4552,-2.4595,-2.4532,-2.4343,-2.4701,0.0,-2.0254,-1.996,0.0,0.0,0.0,0.0,0.0,0.0,0.0,0.0,0.0,0.0,0.0,0.0,0.0,0.0,0.0,0.0,0.0,0.0,0.0,0.0,0.0,0.0,-1.9308,-1.8174,-1.8193,-1.8277,0.0,-1.6403,-1.5463,-1.5781,-1.5334,0.0,0.0,0.0,0.0,0.0,0.0,0.0,-1.3437,-1.3105,-1.3027,-1.3379,-1.2451,-1.1765,-1.169,-1.104,-1.0397,-0.9718,-0.9673,-0.9438,-0.8852,-0.942,0.0,0.0,0.0,0.0,0.0,0.0,0.0,0.0,0.0,0.0,0.0,0.0,0.0,0.0,0.0,0.0,0.0,0.0,0.0,0.0,0.0,0.0,0.0,0.0,0.0,0.0,0.0,0.0,0.0,-2.0706,-2.1812,-2.0817,-2.1727,-2.2014,0.0,0.0,0.0,0.0,0.0,0.0,0.0,0.0,0.0,-2.5716,-2.6033,-2.6815,-2.8101,-2.8257,-2.8333,-2.8402,-2.8031,-2.759,-2.7194,-2.7151,-2.6998,-2.682,-2.7736,-2.6862,-2.4653,-2.2706,-2.1605,-2.1057,0.0,0.0,0.0,0.0,-1.9381,-1.9891,-1.9749,-1.9885,-2.005,-1.9712,0.0,0.0,0.0,0.0,0.0,0.0,0.0,0.0,0.0,0.0,-2.0727,-1.9977,-1.9766,-1.9668,-1.9492,-1.8262,-1.7145,0.0,-1.6315,-1.5838,-1.5931,0.0,0.0,0.0,0.0,-1.4141,-1.386,-1.3665,-1.3627,-1.3821,-1.3202,-1.2607,-1.2226,-1.1664,-1.1091,-1.0397,-1.0372,-1.0257,-0.999,-1.0499,-1.0689,0.0,0.0,0.0,0.0,0.0,0.0,0.0,0.0,0.0,0.0,0.0,0.0,0.0,0.0,0.0,0.0,0.0,0.0,0.0,0.0,0.0,0.0,0.0,0.0,0.0,0.0,0.0,0.0,-2.2411,-2.3827,-2.2219,-2.3866,-2.4393,0.0,0.0,0.0,0.0,0.0,0.0,-2.5936,-2.6154,-2.7127,-2.8996,-2.9135,-2.9755,-3.1046,-3.0711,-3.0687,-3.1039,-3.0629,-3.0171,-2.9712,-2.969,-2.9371,-2.8955,-2.9981,-2.9773,-2.8512,-2.5675,-2.3866,-2.2729,-2.2174,-2.179,-2.1452,-2.0847,-2.0859,-2.1155,-2.0858,-2.1113,-2.1497,-2.091,-2.0794,-2.0669,-1.963,0.0,0.0,0.0,0.0,-2.0663,-2.0797,-2.13,-2.1686,-2.1449,-2.123,-2.1075,-2.0957,-1.9961,-1.8856,0.0,-1.7293,-1.6779,-1.6666,0.0,0.0,0.0,0.0,-1.4824,-1.4465,-1.425,-1.4153,-1.427,-1.3899,-1.3445,-1.295,-1.2584,-1.2095,-1.143,-1.1378,-1.1301,-1.1146,-1.1627,-1.1869,-1.1772,0.0,0.0,0.0,0.0,0.0,0.0,0.0,0.0,0.0,0.0,0.0,0.0,0.0,0.0,0.0,0.0,0.0,0.0,0.0,0.0,0.0,0.0,0.0,0.0,0.0,0.0,0.0,0.0,0.0,-2.2926,-2.5481,0.0,0.0,0.0,0.0,-2.578,-2.7224,-2.8496,-2.9501,-3.0518,-3.1596,-3.2792,-3.3326,-3.3859,-3.446,-3.444,-3.442,-3.4445,-3.33,-3.2459,-3.196,-3.196,-3.1606,-3.106,-3.1772,-3.1484,-3.0367,-2.8593,-2.7226,-2.6127,-2.5037,-2.3959,-2.2956,-2.2677,-2.2192,-2.1627,-2.1273,-2.1191,-2.137,-2.2352,-2.2906,-2.3155,-2.2929,-2.2672,0.0,0.0,-2.1138,-2.132,-2.1214,-2.1525,-2.1918,-2.1897,-2.2148,-2.2305,-2.1914,-2.1153,-2.0116,0.0,-1.7905,-1.737,-1.735,0.0,-1.6484,-1.6085,-1.5644,-1.5371,-1.5352,-1.4601,-1.427,-1.4707,-1.4355,-1.4048,-1.4022,-1.4002,-1.3716,-1.3023,-1.2969,-1.2696,-1.2064,-1.2669,-1.2833,-1.2464,-1.3112,0.0,0.0,0.0,0.0,0.0,0.0,0.0,0.0,0.0,0.0,0.0,0.0,0.0,0.0,0.0,0.0,0.0,0.0,0.0,0.0,0.0,0.0,0.0,0.0,0.0,0.0,0.0,0.0,-2.7054,-2.9751,0.0,-2.8299,-2.8519,-2.9135,-2.9945,-3.0204,-3.1113,-3.2867,-3.2993,-3.352,-3.4625,-3.4806,-3.5228,-3.578,-3.578,-3.578,-3.578,-3.4988,-3.4287,-3.3744,-3.3399,-3.2956,-3.2457,-3.2671,-3.2329,-3.1568,-3.0973,-2.9487,-2.7485,-2.7072,-2.6447,-2.5701,-2.4861,-2.4213,-2.3556,-2.272,-2.2418,-2.2402,-2.2261,-2.193,-2.1598,-2.1492,-2.1637,-2.1645,-2.1232,-2.159,-2.2103,-2.2053,-2.2363,-2.2652,-2.2652,-2.2598,-2.248,-2.2324,-2.1836,-2.1191,-2.0411,-1.9124,-1.8149,-1.8149,-1.7617,-1.709,-1.6966,-1.6543,-1.6239,-1.6239,-1.5742,-1.5459,-1.5615,-1.5009,-1.4551,-1.4551,-1.427,-1.3987,-1.3746,-1.3746,-1.3638,-1.3395,-1.3902,-1.4143,-1.3963,-1.4751,-1.4609,0.0,0.0,0.0,0.0,0.0,0.0,0.0,0.0,0.0,0.0,0.0,0.0,0.0,0.0,0.0,0.0,0.0,0.0,0.0,0.0,0.0,0.0,0.0,0.0,0.0,0.0,-3.1356,-3.0388,-3.2914,-3.3872,-3.1662,-3.1938,-3.2524,-3.3251,-3.3345,-3.3997,-3.5479,-3.5378,-3.5629,-3.631,-3.616,-3.6282,-3.6681,-3.6505,-3.6405,-3.6405,-3.5981,-3.5529,-3.4931,-3.4424,-3.3872,-3.3345,-3.3169,-3.2867,-3.2516,-3.2516,-3.1437,-2.9722,-2.8899,-2.8168,-2.7361,-2.6193,-2.5303,-2.4553,-2.3663,-2.3218,-2.3003,-2.248,-2.1914,-2.1426,-2.1426,-2.1641,-2.1834,-2.1834,-2.2243,-2.2672,-2.2672,-2.2886,-2.3101,-2.3101,-2.2886,-2.2672,-2.2672,-2.2402,-2.2012,-2.1678,-2.0333,-1.9238,-1.9065,-1.8359,-1.788,-1.8028,-1.7422,-1.7017,-1.7177,-1.6687,-1.6289,-1.6289,-1.5644,-1.5244,-1.5244,-1.4941,-1.4727,-1.4543,-1.4679,-1.4699,-1.4543,-1.4844,-1.5,-1.5,-1.5733,-1.5537,-1.4375,0.0,0.0,0.0,0.0,0.0,0.0,0.0,0.0,0.0,0.0,0.0,0.0,0.0,0.0,0.0,0.0,0.0,0.0,0.0,0.0,0.0,0.0,0.0,-3.0839,-3.4074,-3.5538,-3.2777,-3.4846,-3.5676,-3.3514,-3.47,-3.5608,-3.5608,-3.6609,-3.7211,-3.7236,-3.7739,-3.8015,-3.8015,-3.7462,-3.7186,-3.7186,-3.6681,-3.6405,-3.6405,-3.6405,-3.6081,-3.5483,-3.4956,-3.4449,-3.3897,-3.3345,-3.3093,-3.3093,-3.3136,-3.3068,-3.2839,-3.0598,-2.8998,-2.7809,-2.6617,-2.5447,-2.4401,-2.3945,-2.3516,-2.3144,-2.3101,-2.3101,-2.3101,-2.3101,-2.3101,-2.3101,-2.3101,-2.3101,-2.3101,-2.3101,-2.3101,-2.3101,-2.3101,-2.3101,-2.3101,-2.3101,-2.2769,-2.2539,-2.2519,-2.1484,-2.0507,-2.0039,-1.9202,-1.8813,-1.9338,-1.8307,0.0,-1.8141,-1.7352,-1.6746,-1.6726,-1.6348,-1.6124,-1.6124,-1.6105,-1.5909,-1.5449,-1.585,-1.5889,-1.543,-1.541,-1.543,-1.5449,-1.5889,-1.6105,-1.6124,0.0,0.0,0.0,0.0,0.0,0.0,0.0,0.0,0.0,0.0,0.0,0.0,0.0,0.0,0.0,0.0,0.0,0.0,0.0,0.0,0.0,0.0,-3.7286,-3.5785,-3.6844,-3.7809,-3.7769,-3.835,-3.8391,-3.7436,-3.7688,-3.7965,-3.7965,-3.7839,-3.7965,-3.8441,-3.814,-3.8015,-3.8015,-3.7462,-3.7186,-3.7186,-3.6681,-3.6405,-3.6405,-3.6405,-3.6081,-3.5483,-3.5332,-3.4981,-3.4474,-3.3922,-3.3671,-3.3646,-3.3244,-3.2568,-3.1753,-3.205,-3.1143,-2.9552,-2.8477,-2.7097,-2.5591,-2.4241,-2.4295,-2.4728,-2.3485,-2.3101,-2.3101,-2.3101,-2.3101,-2.3101,-2.3101,-2.3101,-2.3101,-2.3101,-2.3101,-2.3101,-2.3101,-2.3101,-2.3101,-2.3101,-2.3003,-2.2828,-2.2578,-2.1973,-2.1387,-2.0898,-2.0099,-1.9588,-1.9735,-1.921,0.0,-1.8493,-1.7978,-1.7539,-1.7227,-1.6816,-1.6543,-1.6543,-1.6281,-1.6046,-1.5928,-1.5703,-1.5527,-1.541,-1.541,-1.5693,-1.6336,-1.6172,-1.6418,0.0,0.0,0.0,0.0,0.0,0.0,0.0,0.0,0.0,0.0,0.0,0.0,0.0,0.0,0.0,0.0,0.0,0.0,0.0,0.0,0.0,0.0,-3.961,-4.1645,-4.1625,-4.1193,-4.0987,-4.1335,-4.0851,-4.0388,-4.0054,-3.955,-3.922,-3.922,-3.8894,-3.8868,-3.9195,-3.8894,-3.8718,-3.8718,-3.8191,-3.7889,-3.7889,-3.7159,-3.6757,-3.6757,-3.6505,-3.6207,-3.5881,-3.5608,-3.5332,-3.4981,-3.4474,-3.4248,-3.4198,-3.3646,-3.3002,0.0,0.0,0.0,0.0,0.0,-2.832,-2.7189,-2.6217,-2.608,-2.6174,-2.5186,-2.4374,-2.38,-2.38,-2.3474,-2.3101,-2.3101,-2.3101,-2.3101,-2.3101,-2.3101,-2.3101,-2.3101,-2.3101,-2.3101,-2.3101,-2.3101,-2.3023,-2.2812,-2.2441,0.0,-2.1775,-2.0742,-1.9997,-2.0202,-1.9698,-1.9272,-1.9211,-1.8675,-1.8149,-1.793,-1.7363,-1.7012,-1.7012,-1.6758,0.0,0.0,0.0,-1.6152,-1.5946,-1.5927,0.0,0.0,0.0,-1.7083,-1.791,0.0,0.0,0.0,-1.5613,-1.527,0.0,0.0,0.0,0.0,0.0,0.0,0.0,0.0,0.0,0.0,0.0,0.0,0.0,0.0,0.0,0.0,-4.3031,-4.5126,-4.7209,-4.6035,-4.4686,-4.3937,-4.2555,-4.1696,-4.1696,-4.0491,-3.9697,-3.9697,-3.9697,-3.9697,-3.9697,0.0,0.0,0.0,0.0,-3.8919,-3.8919,-3.7814,-3.7236,-3.7186,-3.6732,-3.6455,-3.638,-3.5855,-3.5583,-3.5558,-3.5006,-3.4781,-3.4731,-3.4223,-3.3947,-3.3715,-3.1882,-3.053,-2.9601,-2.9442,-2.9263,-2.9037,-2.8835,0.0,0.0,-2.744,-2.6363,-2.5084,-2.5084,-2.4251,-2.3299,-2.3299,-2.3212,-2.3101,-2.3101,-2.3101,-2.3101,-2.3101,-2.3101,-2.3101,-2.3101,-2.3101,-2.3101,-2.3101,-2.2793,-2.2519,-2.2519,-2.1152,-2.023,-2.076,-2.0024,-1.9617,-2.0107,-1.933,-1.8715,-1.8617,0.0,0.0,-1.7461,-1.7455,-1.7227,-1.6804,-1.7129,-1.7129,-1.6726,-1.6746,-1.696,-1.7383,-1.7422,-1.7812,-1.8539,-1.8578,-1.8578,-1.8481,-1.6641,-1.6141,0.0,0.0,0.0,0.0,0.0,0.0,0.0,0.0,0.0,0.0,0.0,0.0,0.0,0.0,0.0,-4.2349,-4.5384,-4.7791,-4.8775,-4.8567,-4.7714,-4.6056,-4.3785,-4.2404,-4.2404,-4.0773,-3.9697,-3.9697,-3.9697,-3.9697,-3.9697,-3.9697,-3.9697,-3.9697,-3.917,-3.8919,-3.8919,-3.8191,-3.7638,-3.7186,0.0,0.0,-3.6405,-3.6304,-3.6207,-3.6182,-3.5629,-3.5332,-3.5282,-3.4801,-3.4299,-3.3715,-3.1882,-3.1045,-3.0732,-2.9761,-2.9988,-3.0566,-2.926,-2.9318,-2.9738,-2.8373,-2.7426,-2.6812,-2.6812,-2.5722,0.0,-2.4447,-2.38,-2.3101,-2.3101,-2.3101,-2.3101,-2.3101,-2.3101,-2.3101,-2.3101,-2.3101,-2.3101,-2.3101,-2.2793,-2.2519,-2.2519,-2.1619,-2.1094,-2.1607,-2.0899,-2.0389,-2.0504,-2.0017,-1.9358,-1.8676,-1.8461,-1.8262,-1.791,-1.7578,-1.7344,-1.7266,-1.7012,-1.6785,-1.6707,-1.707,-1.7305,-1.7383,-1.7715,-1.7969,-1.8125,-1.8442,-1.8422,-1.8091,-1.8013,-1.7896,0.0,0.0,0.0,0.0,0.0,0.0,0.0,0.0,0.0,0.0,0.0,-3.7887,0.0,0.0,-4.3654,-4.5841,-4.7911,-4.9374,-4.9703,-4.9763,-4.9266,-4.8008,-4.6187,-4.4865,-4.4512,-4.2498,-4.1002,-4.0668,-4.0083,-3.9697,-3.9697,-3.9697,-3.9697,-3.9697,-3.9421,-3.927,-3.927,-3.8718,-3.8291,-3.8015,-3.7462,-3.7036,-3.6807,-3.6531,-3.6405,-3.638,-3.6081,-3.5956,-3.5906,-3.5353,-3.465,-3.3828,-3.2887,-3.2372,-3.2108,-3.1468,-3.1645,-3.1928,-3.0496,-3.0238,-3.0371,-2.9526,-2.8482,-2.7601,-2.7601,-2.6497,-2.508,-2.4472,-2.372,-2.3101,-2.3101,-2.3101,-2.3101,-2.3101,-2.3101,-2.3101,-2.3101,-2.3101,-2.3101,-2.3101,-2.2925,-2.2789,-2.2789,-2.2243,-2.1756,-2.1602,-2.1191,-2.082,-2.0625,-2.0195,-1.9709,-1.928,-1.9082,-1.8887,-1.8672,-1.8457,-1.834,-1.834,-1.793,-1.7759,-1.8008,-1.8008,-1.8105,-1.8374,-1.8535,-1.875,-1.8965,-1.9143,-1.916,-1.8965,-1.9143,-1.889,0.0,0.0,0.0,0.0,0.0,0.0,0.0,0.0,-3.5361,-3.7603,-3.9762,-4.1738,-4.3442,-4.481,-4.6469,-4.8925,-4.9823,-5.0136,-5.0016,-5.0016,-4.9853,-4.9389,-4.816,-4.7088,-4.6289,-4.4032,-4.2277,-4.1479,-4.0338,-3.9697,-3.9697,-3.9697,-3.9697,-3.9697,-3.9697,-3.9697,-3.9697,-3.9245,-3.8969,-3.8919,-3.7989,-3.7462,-3.7337,-3.6832,-3.6556,-3.6556,-3.6455,-3.6405,-3.6355,-3.578,-3.4981,-3.4198,-3.4098,-3.3796,-3.337,-3.3169,-3.3111,-3.2939,-3.1909,-3.1312,-3.0908,-3.0908,-2.9922,-2.8726,-2.8726,-2.7499,-2.5803,-2.4795,-2.387,-2.3198,-2.312,-2.3101,-2.3101,-2.3101,-2.3101,-2.3101,-2.3101,-2.3101,-2.3101,-2.3101,-2.3101,-2.3101,-2.3101,-2.2808,-2.2402,-2.1658,-2.1424,-2.1269,-2.0977,-2.0488,-2.0137,-2.0039,-1.9668,-1.9375,-1.9297,-1.9297,-1.9297,-1.9297,-1.8965,-1.8926,-1.9277,-1.8945,-1.8926,-1.9277,-1.9297,-1.9453,-1.9785,-1.9883,-1.9883,-1.9805,-1.9883,-1.9455,-2.8076,-2.9226,-3.1753,-3.5166,-3.5974,-3.7211,0.0,0.0,-4.281,-4.3575,-4.561,-4.7195,-4.6864,-4.7894,-4.8925,-4.9269,-4.9823,-4.9986,-4.9464,-4.9419,-4.9389,-4.9329,-4.816,-4.6852,-4.556,-4.3683,-4.2056,-4.0714,-4.0077,-3.9697,-3.9697,-3.9697,-3.9697,-3.9697,-3.9697,-3.9697,-3.9697,-3.9647,-3.9346,-3.8919,-3.8793,-3.8417,-3.7889,-3.7337,-3.7086,-3.7061,-3.6631,-3.6405,-3.6355,-3.578,-3.5433,-3.5257,-3.4781,-3.46,-3.4424,-3.3445,-3.3111,-3.3068,-3.2939,-3.2846,-3.2796,-3.2796,-3.2311,-3.1712,-3.1712,-2.9815,-2.7543,-2.7036,-2.5371,-2.3633,-2.3198,-2.3101,-2.3101,-2.3101,-2.3101,-2.3101,-2.3101,-2.3101,-2.3101,-2.3101,-2.3101,-2.3101,-2.3101,-2.3062,-2.2984,-2.2906,-2.2285,-2.1934,-2.2246,-2.1582,-2.0937,-2.0566,-2.0098,-1.9687,-1.9316,-1.9297,-1.9297,-1.9297,-1.9238,-1.9238,-1.9297,-1.9238,-1.9238,-1.9297,-1.9297,-1.9316,-1.9355,-1.9727,-1.9727,-1.9375,-1.9746,-1.9668,-3.0401,-3.1599,-3.3502,0.0,-3.8324,-4.0533,-4.3041,-4.4109,-4.488,-4.5946,-4.7897,-4.9088,-4.8031,-4.9229,-5.0011,0.0,-4.9495,-5.0002,-4.9389,-4.897,-4.8566,-4.8177,-4.7353,-4.6882,-4.7021,-4.5036,-4.3617,-4.3388,-4.1773,-4.0794,-4.0794,-4.0083,-3.9697,-3.9697,-3.9697,-3.9697,-3.9697,-3.9697,-3.9572,-3.9346,-3.9019,-3.8793,-3.8492,-3.7588,-3.701,-3.6732,-3.6505,-3.6405,-3.638,-3.6107,-3.583,-3.5483,-3.5232,-3.4956,-3.4625,-3.3847,-3.3545,-3.3408,-3.2362,-3.1996,-3.1996,-3.1996,-3.1807,-3.1612,-3.1612,-3.062,-2.9152,-2.7502,-2.6199,-2.5031,-2.4106,-2.3691,-2.3516,-2.3516,-2.3276,-2.3101,-2.3101,-2.3101,-2.3101,-2.3101,-2.3101,-2.3101,-2.3101,-2.3101,-2.3101,-2.3101,-2.2637,-2.2227,-2.2168,-2.1836,-2.1543,-2.1348,-2.1172,-2.0996,-2.082,-2.0801,-2.0801,-2.0801,-2.0351,-2.0156,-2.041,-1.9922,-1.9766,-2.0057,-2.0293,-2.0293,-2.0077,-2.0469,-2.0449,-2.0077,-2.0488,-2.0586,-3.1597,-3.3571,0.0,-3.7973,-4.1387,-4.4289,-4.4821,-4.5977,-4.7214,-4.7955,-4.9404,-4.9944,-4.8277,-4.9198,-4.9599,-4.7951,-4.87,-4.9278,-4.879,-4.8045,-4.7288,-4.6636,-4.5389,-4.5344,-4.7096,-4.527,-4.398,-4.4018,-4.2324,-4.1252,-4.1069,-4.0364,-3.9848,-3.9697,-3.9697,-3.9697,-3.9697,-3.9697,-3.9697,-3.9697,-3.9295,-3.9094,-3.9069,-3.7939,-3.7036,-3.6405,-3.6405,-3.6405,-3.6405,-3.6405,-3.6132,-3.578,-3.578,-3.5529,-3.5102,-3.455,-3.4248,-3.3915,-3.2455,-3.195,-3.1926,-3.1781,-3.1733,-3.1733,-3.1733,-3.1292,-3.0279,-2.8049,-2.6952,-2.616,-2.4756,-2.418,-2.3965,-2.3965,-2.3633,-2.3276,-2.3276,-2.3179,-2.3101,-2.3101,-2.3101,-2.3101,-2.3101,-2.3101,-2.3101,-2.3101,-2.2847,-2.2578,-2.2266,-2.2129,-2.2012,-2.1894,-2.1894,-2.1894,-2.1894,-2.1894,-2.1894,-2.1894,-2.1329,-2.1074,-2.1366,-2.0801,-2.0605,-2.0957,-2.125,-2.125,-2.0977,-2.125,-2.125,-2.0977,-2.1269,-2.1366,-3.0197,-3.4035,-3.7988,-4.193,-4.6034,-4.9269,-4.9821,-5.1033,-5.1631,-5.0375,-5.0674,-5.0406,-4.788,-4.746,-4.7286,-4.6558,-4.7009,-4.7474,-4.7344,-4.6329,-4.5338,-4.476,-4.1957,-4.1292,0.0,-4.3485,-4.2107,-4.0738,-4.0581,-4.0302,-3.9774,-4.0199,-4.0249,-3.9722,-3.9697,-3.9697,-3.9697,-3.9697,-3.9697,-3.9697,-3.9672,-3.9672,-3.9622,-3.8492,-3.7387,-3.6405,-3.6405,-3.6405,-3.6405,-3.6405,-3.6405,-3.638,-3.638,-3.638,-3.6304,-3.5658,-3.5107,-3.458,-3.4028,-3.3828,-3.3727,-3.3201,-3.3025,-3.3025,-3.3025,-3.2171,-3.0814,-2.9171,-2.7824,-2.6484,-2.4835,-2.4414,-2.4394,-2.4394,-2.4082,-2.3769,-2.3769,-2.3437,-2.3101,-2.3101,-2.3101,-2.3101,-2.3101,-2.3101,-2.3101,-2.3101,-2.3081,-2.3081,-2.3062,-2.2711,-2.2344,-2.1934,-2.1894,-2.1894,-2.1894,-2.1894,-2.1894,-2.1894,-2.1855,-2.1855,-2.1875,-2.1836,-2.1836,-2.1855,-2.1855,-2.1855,-2.1855,-2.1855,-2.1855,-2.1855,-2.1855,-2.1875,-3.3126,-3.7923,-4.2782,-4.6024,-4.906,-5.1259,-5.1498,-5.1558,-5.1169,-4.9853,-4.8237,-4.6366,-4.4128,-4.3821,-4.3811,-4.3403,-4.531,-4.6949,-4.7225,-4.7718,-4.7289,-4.5306,-4.4547,0.0,0.0,0.0,0.0,-4.3636,-4.2525,-4.1697,-4.1516,-4.0845,-4.0425,-4.0249,-3.9898,-3.9697,-3.9697,-3.9697,-3.9697,-3.9697,-3.9697,-3.9496,-3.9145,-3.8743,-3.7965,-3.6935,-3.7287,-3.7036,-3.643,-3.6807,-3.6732,-3.6405,-3.6405,-3.6405,-3.638,-3.6157,-3.5956,-3.568,-3.4751,-3.4449,-3.4424,-3.4223,-3.3922,-3.3696,-3.4048,-3.3632,-3.2685,-3.1376,-3.0673,-2.9943,-2.8172,-2.6865,-2.6059,-2.6059,-2.5091,-2.4199,-2.4199,-2.4082,-2.3906,-2.3633,-2.3574,-2.3477,-2.314,-2.3101,-2.3101,-2.3101,-2.3101,-2.3101,-2.3101,-2.2964,-2.2828,-2.2691,-2.2715,-2.2715,-2.2715,-2.2715,-2.2715,-2.2715,-2.2461,-2.2305,-2.2305,-2.2031,-2.1894,-2.1894,-2.2168,-2.2168,-2.1894,-2.2168,-2.2168,-2.1894,-2.2168,-2.2305,-3.6668,-4.1775,-4.6708,-4.9615,-5.1636,-5.2845,-5.2606,-5.1858,-5.072,-4.8925,-4.6299,-4.3502,-4.0972,-4.0479,-4.0396,-4.0311,-4.2636,-4.4978,-4.6502,-4.652,-4.612,-4.5443,-4.4379,-4.3565,0.0,0.0,0.0,-4.4507,-4.3053,-4.2137,-4.2387,-4.1386,-4.0727,-4.0526,-3.9973,-3.9697,-3.9697,-3.9697,-3.9697,-3.9697,-3.9697,-3.9396,-3.8919,-3.8919,-3.8366,-3.7487,-3.7839,-3.7613,-3.696,-3.7111,-3.6985,-3.6681,-3.648,-3.6405,-3.6405,-3.6405,-3.6405,-3.6279,-3.5328,-3.4981,-3.4931,-3.4731,-3.4474,-3.4248,-3.4625,-3.4349,-3.3701,-3.268,-3.2265,-3.1756,-3.0351,-2.8693,-2.7437,-2.7437,-2.5999,-2.4648,-2.4648,-2.4531,-2.4297,-2.3867,-2.3789,-2.3652,-2.3179,-2.3101,-2.3101,-2.3101,-2.3101,-2.3101,-2.3101,-2.3101,-2.3101,-2.3101,-2.3101,-2.3101,-2.3101,-2.3101,-2.3101,-2.3101,-2.2847,-2.2691,-2.2691,-2.248,-2.2344,-2.2344,-2.2598,-2.2598,-2.2344,-2.2598,-2.2598,-2.2344,-2.2617,-2.2691,-4.0703,-4.5513,-4.986,-5.2651,-5.3743,-5.3952,-5.3185,-5.1852,-5.009,-4.7448,-4.4608,-4.1632,0.0,0.0,-3.7085,-3.7563,-3.9493,-4.2081,-4.5416,-4.3409,-4.2574,0.0,0.0,0.0,0.0,0.0,0.0,-4.3396,0.0,-4.161,-4.234,-4.1743,-4.1075,-4.0626,-4.0049,-3.9747,-3.9747,-3.9697,-3.9697,-3.9697,-3.9697,-3.9421,-3.8969,-3.8969,-3.8592,-3.804,-3.809,-3.8065,-3.7965,-3.7462,-3.7236,-3.7136,-3.6656,-3.643,-3.6405,-3.6405,-3.6405,-3.6329,-3.5755,-3.5533,-3.5458,-3.4931,-3.4801,-3.4731,-3.4801,-3.4424,-3.3851,-3.3184,-3.2691,-3.213,-3.1382,-2.9895,-2.8609,-2.8609,-2.6887,-2.524,-2.524,-2.4812,-2.4355,-2.3945,-2.3828,-2.3652,-2.3179,-2.3101,-2.3101,-2.3101,-2.3101,-2.3101,-2.3101,-2.3101,-2.3101,-2.3101,-2.3101,-2.3101,-2.3101,-2.3101,-2.3101,-2.3101,-2.3101,-2.3101,-2.3101,-2.3101,-2.3101,-2.3101,-2.3101,-2.3101,-2.3101,-2.3101,-2.3101,-2.3101,-2.3101,-2.3101,-4.6156,-5.0642,-5.4509,-5.5218,-5.4431,-5.2919,-5.0877,-4.8009,-4.4938,-4.201,-3.8404,-3.5253,0.0,0.0,0.0,-3.7896,-4.1,0.0,-4.7867,-4.8499,0.0,-4.6224,0.0,-4.533,-4.3932,-4.2894,0.0,0.0,-4.2554,-4.1562,-4.222,-4.2074,-4.1936,-4.1785,-4.0802,-4.03,-4.03,-3.9898,-3.9697,-3.9697,-3.9697,-3.9622,-3.9496,-3.9496,-3.917,-3.8668,-3.9094,-3.8793,-3.804,-3.8316,-3.7989,-3.7161,-3.7036,-3.6782,-3.6405,-3.6405,-3.6405,-3.638,-3.6207,-3.6157,-3.6132,-3.5981,-3.5655,-3.5357,-3.583,-3.5554,-3.5061,-3.491,-3.4743,-3.4477,-3.3931,-3.2458,-3.1136,-3.1136,-2.8989,-2.694,-2.694,-2.6119,-2.5273,-2.4824,-2.4219,-2.3652,-2.3179,-2.3101,-2.3101,-2.3101,-2.3101,-2.3101,-2.3101,-2.3101,-2.3101,-2.3101,-2.3101,-2.3101,-2.3101,-2.3101,-2.3101,-2.3101,-2.3101,-2.3101,-2.3101,-2.3101,-2.3101,-2.3101,-2.3101,-2.3101,-2.3101,-2.3101,-2.3101,-2.3101,-2.3101,-2.3101,-5.0579,-5.3773,-5.6043,-5.6489,-5.485,-5.2424,-4.9416,-4.6056,-4.2549,-3.8945,-3.5225,0.0,-3.0939,-3.1691,0.0,0.0,0.0,0.0,-4.8074,-4.8748,-4.8599,0.0,-4.7503,0.0,-4.4377,-4.3704,-4.354,0.0,-4.249,-4.2077,-4.3005,-4.2515,-4.2213,-4.2213,-4.1078,-4.04,-4.0149,-3.9848,-3.9697,-3.9697,-3.9697,-3.9697,-3.9697,-3.9697,-3.9521,-3.9245,0.0,-3.9346,-3.8743,-3.8843,-3.8492,-3.7864,-3.7387,-3.6985,-3.6732,-3.6505,-3.6405,-3.6405,-3.6405,-3.6405,-3.6405,-3.6405,-3.6157,-3.5956,-3.6329,-3.5981,-3.5558,-3.583,-3.5683,-3.5483,-3.5454,-3.4105,-3.2742,-3.2528,-3.016,-2.7878,-2.7641,-2.662,-2.5605,-2.5156,-2.4531,-2.3926,-2.3496,-2.353,-2.353,-2.3159,-2.3413,-2.351,-2.314,-2.3101,-2.3101,-2.3101,-2.3101,-2.3101,-2.3101,-2.3101,-2.3101,-2.3101,-2.3101,-2.3101,-2.3101,-2.3101,-2.3101,-2.3101,-2.3101,-2.3101,-2.3101,-2.3101,-2.3101,-2.3101,-2.3101,-2.3101,-5.4412,-5.6029,-5.6343,-5.6958,-5.5059,-5.2007,-4.7998,-4.4559,-4.0999,-3.661,0.0,-3.0751,-2.9495,-3.0964,-3.2836,-3.4289,0.0,-4.2877,-4.7301,-4.6957,-4.7224,-4.9839,-4.7906,-4.59,-4.4573,-4.4075,-4.3413,-4.2489,-4.2363,-4.278,-4.3885,-4.2943,-4.2288,-4.2213,-4.1153,-4.035,-3.9798,-3.9722,-3.9697,-3.9697,-3.9697,-3.9697,-3.9697,-3.9697,-3.9697,-3.9697,-3.9697,-3.9697,-3.9647,-3.917,-3.8944,-3.8818,-3.7789,-3.7362,-3.7236,-3.6807,-3.6631,-3.6606,-3.6531,-3.6505,-3.6505,-3.643,-3.6405,-3.6405,-3.6405,-3.6031,-3.5708,-3.6279,-3.6006,-3.5755,-3.6279,-3.5153,-3.3814,-3.3358,-3.1081,-2.8807,-2.8099,-2.6757,-2.5605,-2.5156,-2.4766,-2.4375,-2.3945,-2.418,-2.4114,-2.3374,-2.3945,-2.4121,-2.3276,-2.3179,-2.3159,-2.3101,-2.3101,-2.3101,-2.3101,-2.3101,-2.3101,-2.3101,-2.3101,-2.3101,-2.3101,-2.3101,-2.3101,-2.3101,-2.3101,-2.3169,-2.3343,-2.3343,-2.3343,-2.3343,-2.3343,-2.3256,-5.8029,-5.9279,-5.8952,-5.746,-5.47,-5.0775,-4.4636,-4.0435,0.0,0.0,-2.9116,-2.785,-2.7189,-2.8467,-3.0943,-3.5062,-3.7547,-4.1321,-4.8105,0.0,-4.9219,0.0,0.0,0.0,0.0,0.0,0.0,0.0,0.0,-4.2947,-4.3199,-4.3002,-4.269,-4.2213,-4.153,-4.0874,-4.0375,-3.9923,-3.9697,-3.9697,-3.9697,-3.9697,-3.9697,-3.9697,-3.9697,-3.9697,-3.9697,0.0,-3.9697,-3.9597,-3.927,-3.8894,-3.8693,-3.8291,-3.7839,-3.7764,-3.7713,-3.7663,-3.7211,-3.7036,-3.696,-3.6556,-3.6405,-3.6405,-3.6405,-3.6355,-3.6279,-3.638,-3.6329,-3.6279,-3.638,-3.5815,-3.518,-3.508,-3.3546,-3.1669,-3.0066,-2.7613,-2.5605,-2.5156,-2.5,-2.4805,-2.4375,-2.4375,-2.4355,-2.4219,-2.4316,-2.4238,-2.375,-2.3672,-2.3535,-2.314,-2.3101,-2.3101,-2.3101,-2.3101,-2.3101,-2.3101,-2.3101,-2.3101,-2.3101,-2.3101,-2.3101,-2.3101,-2.3101,-2.3541,-2.451,-2.451,-2.451,-2.451,-2.451,-2.3996,-5.8868,-5.9132,-5.7945,-5.7654,-5.464,-4.9897,-4.3004,0.0,0.0,0.0,-2.7419,-2.6801,-2.6549,-2.8308,0.0,-3.3325,-3.6184,-4.0284,0.0,0.0,0.0,0.0,0.0,0.0,0.0,0.0,0.0,0.0,0.0,-4.3288,-4.2986,-4.2986,-4.2766,-4.2238,-4.163,-4.1025,-4.0526,-3.9973,-3.9697,-3.9697,-3.9697,-3.9697,-3.9697,-3.9697,-3.9697,-3.9697,-3.9697,-3.9697,-3.9697,-3.9697,-3.9546,-3.927,-3.8994,-3.8693,-3.8417,-3.8115,-3.8015,-3.7965,-3.7713,-3.7613,-3.7563,-3.7312,-3.6835,-3.6405,-3.6405,-3.6405,-3.6405,-3.6405,-3.6405,-3.6405,-3.6405,-3.6182,-3.5906,-3.5558,-3.4157,-3.223,-2.9796,-2.8151,-2.6774,-2.5633,-2.541,-2.5273,-2.4824,-2.4941,-2.4894,-2.4492,-2.4805,-2.4816,-2.4199,-2.4316,-2.4121,-2.3198,-2.3101,-2.3101,-2.3101,-2.3101,-2.3101,-2.3101,-2.3101,-2.3101,-2.3101,-2.3101,-2.3101,-2.3101,-2.3671,-2.4253,-2.4787,-2.542,-2.5672,-2.5672,-2.5083,-2.451,-5.8323,-5.8325,-5.6845,-5.7419,-5.436,-4.9334,-4.2294,-3.7669,0.0,-2.8324,-2.6977,-2.6625,-2.6524,-2.8317,-3.0121,0.0,-3.402,-3.8309,-4.4511,0.0,0.0,0.0,0.0,0.0,0.0,0.0,0.0,0.0,0.0,-4.3438,-4.3011,-4.2986,-4.2841,-4.2389,-4.1681,-4.1075,-4.0701,-4.0023,-3.9697,-3.9697,-3.9697,-3.9697,-3.9697,-3.9697,-3.9697,-3.9697,-3.9697,-3.9697,-3.9697,-3.9697,-3.9697,-3.9647,-3.922,-3.9095,-3.8994,-3.8542,-3.8366,-3.8341,-3.8241,-3.8191,-3.8165,-3.804,-3.7337,-3.6581,-3.6581,-3.6505,-3.6405,-3.6405,-3.6405,-3.6405,-3.6405,-3.6405,-3.6304,-3.583,-3.4328,-3.2441,-3.0035,-2.9015,-2.8147,-2.6939,-2.6201,-2.5771,-2.5654,-2.5681,-2.546,-2.4758,-2.5245,-2.5401,-2.4648,-2.4863,-2.4648,-2.3491,-2.3296,-2.3276,-2.3354,-2.3198,-2.3179,-2.3354,-2.3198,-2.314,-2.3237,-2.3402,-2.3474,-2.3474,-2.4339,-2.5041,-2.5483,-2.6032,-2.6515,-2.7012,-2.5824,-2.519,-5.6658,-5.8325,-5.8631,-5.639,-5.3488,-4.9334,-4.2294,0.0,-3.3303,-2.8324,-2.7278,-2.7077,-2.6575,-2.6703,-2.7582,-2.9644,-3.0683,-3.4099,-4.2227,0.0,0.0,0.0,0.0,0.0,0.0,0.0,0.0,0.0,0.0,0.0,-4.2986,-4.2986,-4.2961,-4.2911,-4.1882,-4.125,-4.12,-4.0224,-3.9697,-3.9697,-3.9697,-3.9697,-3.9697,-3.9697,-3.9697,-3.9697,-3.9697,-3.9697,0.0,-3.9697,-3.9697,-3.9697,-3.9647,-3.9622,-3.9622,-3.9546,-3.9546,-3.9471,-3.8969,-3.8844,-3.8718,-3.8191,-3.7588,-3.7111,-3.7111,-3.6807,-3.6405,-3.6405,-3.6405,-3.6405,-3.6405,-3.6405,-3.6405,-3.6355,-3.4938,-3.3553,-3.3267,-3.0975,-2.9125,-2.9708,-2.7918,-2.6566,-2.7241,-2.6456,-2.5654,-2.5577,-2.5635,-2.5566,-2.5078,-2.5086,-2.4863,-2.4355,-2.3965,-2.3887,-2.4258,-2.3549,-2.3432,-2.4258,-2.353,-2.3276,-2.3711,-2.4306,-2.4617,-2.4617,-2.4745,-2.5775,-2.7804,-2.6234,-2.6623,-2.8633,-2.7447,-2.641,-5.3949,-5.5817,-5.6218,-5.5254,-5.1035,-4.5852,-4.0732,0.0,-3.0762,-2.7468,-2.6826,-2.6751,-2.6524,-2.6499,-2.688,-2.8048,-2.8696,-3.113,-3.7055,0.0,0.0,0.0,0.0,0.0,0.0,0.0,0.0,0.0,0.0,0.0,-4.2986,-4.2986,-4.2986,-4.2986,-4.2233,-4.1831,-4.1831,-4.0727,-4.0199,-4.0199,-3.9848,-3.9697,-3.9697,-3.9697,-3.9697,-3.9697,-3.9697,-3.9697,0.0,-3.9697,-3.9697,-3.9697,-3.9697,-3.9697,-3.9697,-3.9697,-3.9697,-3.9672,-3.9446,-3.9371,-3.932,-3.9094,-3.8642,-3.814,-3.7789,-3.7287,-3.6908,-3.6908,-3.6656,-3.6405,-3.6405,-3.6405,-3.6405,-3.6405,-3.5852,-3.5059,-3.3959,-3.2694,-3.1601,-3.0816,-2.9864,-2.9289,-2.9576,-2.896,-2.8407,-2.8407,-2.7529,-2.6778,-2.6642,-2.5928,-2.541,-2.5187,-2.459,-2.4238,-2.4414,-2.4102,-2.4043,-2.4394,-2.4056,-2.4326,-2.5251,-2.5555,-2.6064,-2.6778,-2.6692,-2.7462,-2.9141,-2.8303,-2.8395,-2.9302,-2.8925,-2.8097,-5.0069,-5.2544,-5.3671,-5.3402,-4.8782,-4.3313,0.0,0.0,-2.9329,-2.7196,-2.6751,-2.67,-2.6524,-2.6499,-2.6645,-2.7129,-2.7687,-2.9592,-3.3769,-3.5328,0.0,0.0,0.0,0.0,0.0,0.0,0.0,0.0,0.0,0.0,-4.2986,-4.2986,-4.2986,-4.2986,-4.2489,-4.2137,-4.1907,-4.0978,-4.0425,-4.0275,-3.9873,-3.9697,-3.9697,-3.9697,-3.9697,-3.9697,-3.9697,-3.9697,0.0,-3.9697,-3.9697,-3.9697,-3.9697,-3.9697,-3.9697,-3.9697,-3.9697,-3.9697,-3.9697,-3.9697,-3.9697,-3.9697,-3.9421,-3.9044,-3.8617,-3.7889,-3.7186,-3.7186,-3.6784,-3.6405,-3.6405,-3.6405,-3.6405,-3.6405,-3.6405,-3.6043,-3.4771,-3.4174,-3.3576,-3.2557,-3.1725,-3.1295,-3.1519,-3.0916,-3.0409,-3.0204,-2.9164,-2.8293,-2.8143,-2.7342,-2.6791,-2.6791,-2.6268,-2.5557,-2.4851,-2.4875,-2.5065,-2.5325,-2.5085,-2.5396,-2.6427,-2.6683,-2.7195,-2.8026,-2.7939,-2.8502,-2.9719,-2.8769,-2.8621,-2.9293,-2.9034,-2.8509,-4.5003,-4.8799,-5.1848,-5.0537,-4.7001,-4.2915,0.0,-3.4406,-2.9872,-2.7718,-2.7268,-2.7153,-2.66,-2.6499,-2.6645,-2.7129,-2.7687,-2.9556,-3.3731,-3.4085,0.0,0.0,0.0,0.0,0.0,0.0,0.0,0.0,0.0,0.0,-4.2986,-4.2986,-4.2986,-4.2986,-4.2489,-4.1882,-4.13,-4.0802,-4.0249,-3.9697,-3.9697,-3.9697,-3.9697,-3.9697,-3.9697,-3.9697,-3.9697,-3.9697,0.0,-3.9697,-3.9697,-3.9697,-3.9697,-3.9697,-3.9697,-3.9697,-3.9697,-3.9697,-3.9697,-3.9697,-3.9697,-3.9697,-3.9697,-3.9697,-3.9672,-3.8517,-3.7186,-3.7186,-3.6784,-3.6405,-3.6405,-3.6405,-3.6405,-3.6405,-3.6405,-3.6405,-3.6405,-3.5307,-3.4607,-3.5304,-3.3434,-3.1945,-3.2747,-3.1829,-3.0791,-3.0249,-3.0182,-3.0003,-2.9463,-2.935,-2.935,-2.935,-2.935,-2.8333,-2.5917,-2.6049,-2.6662,-2.7516,-2.6743,-2.6472,-2.6865,-2.7523,-2.7873,-2.7873,-2.7873,-2.8436,-2.9569,-2.6588,-2.6331,-2.8567,-2.7323,-2.7158,-3.9572,-4.1986,-4.3501,-4.2912,-3.9596,-3.6149,-3.4794,-3.1018,-2.7573,-2.6895,-2.6751,-2.67,-2.6524,-2.6499,-2.6797,-2.767,-2.8006,-2.869,0.0,0.0,0.0,0.0,0.0,0.0,0.0,0.0,0.0,0.0,-4.3514,-4.2986,-4.2986,-4.2986,-4.2986,-4.2986,-4.2489,-4.2137,-4.1907,-4.0978,-4.0425,-4.0249,-3.9873,-3.9697,-3.9697,-3.9697,-3.9697,-3.9697,-3.9697,-3.9697,-3.9697,-3.9697,-3.9697,-3.9697,-3.9697,-3.9697,-3.9697,-3.9697,-3.9697,-3.9697,-3.9697,-3.9697,-3.9697,-3.9697,-3.9697,-3.9622,-3.9245,-3.8492,-3.7663,-3.7287,-3.6784,-3.6505,-3.6883,-3.6681,-3.6405,-3.6405,-3.6405,-3.6405,-3.6405,-3.6073,-3.5856,-3.6085,-3.5443,-3.4989,-3.5221,-3.4595,-3.3876,-3.3341,-3.2245,-3.1272,-3.0689,-3.0239,-2.9958,-2.9958,-3.0249,-2.99,-2.8351,-2.8351,-2.8536,-2.8797,-2.8558,-2.8879,-2.9782,-3.0045,-3.0548,-3.1423,-3.0592,-3.0329,-3.068,-2.8901,-2.8853,-3.0386,-2.9984,-2.9937,-3.5127,-3.7262,-3.8413,-3.823,-3.5314,0.0,0.0,-2.9057,-2.6499,-2.6499,-2.6499,-2.6499,-2.6499,-2.6499,-2.6772,-2.7619,-2.7739,-2.8178,0.0,0.0,0.0,0.0,0.0,0.0,0.0,0.0,-4.4869,-4.4644,-4.379,-4.3187,-4.2986,-4.2986,-4.2986,-4.2986,-4.2489,-4.2011,-4.153,-4.0852,-4.04,-4.0199,-3.9848,-3.9697,-3.9697,-3.9697,-3.9697,-3.9697,-3.9697,-3.9697,0.0,-3.9697,-3.9697,-3.9697,-3.9697,-3.9697,-3.9697,-3.9697,-3.9697,-3.9697,-3.9697,-3.9697,-3.9697,-3.9697,-3.9697,-3.9597,-3.9044,-3.8467,-3.7939,-3.7588,-3.7086,-3.6807,-3.7086,-3.6832,-3.6405,-3.6405,-3.6405,-3.6405,-3.6405,-3.6405,-3.6405,-3.6405,-3.6405,-3.6405,-3.6405,-3.6081,-3.5655,-3.5082,-3.4065,-3.3168,-3.2589,-3.2148,-3.1878,-3.1878,-3.223,-3.2159,-3.1456,-3.0997,-3.0698,-3.0698,-3.0698,-3.1089,-3.1817,-3.1627,-3.1889,-3.269,-3.1741,-3.1223,-3.1223,-2.9988,-2.9533,-2.9852,-3.0777,-3.1223,0.0,-3.4142,-3.5701,-3.5701,-3.3363,-3.0909,-3.0432,-2.8323,0.0,-2.6499,-2.6499,-2.6499,-2.6549,-2.6524,-2.6671,-2.7164,-2.7258,-2.8031,0.0,-3.1794,0.0,0.0,0.0,0.0,0.0,-4.4217,-4.5246,-4.4669,-4.4116,-4.3564,-4.3011,-4.2986,-4.2961,-4.2911,-4.2439,-4.1605,-4.0576,-4.0526,-4.0249,-3.9697,-3.9697,-3.9697,-3.9697,-3.9697,-3.9697,0.0,-3.9697,-3.9697,-3.9697,-3.9697,-3.9697,-3.9697,-3.9697,-3.9697,-3.9697,-3.9697,-3.9697,-3.9697,-3.9697,-3.9697,-3.9697,-3.9697,-3.9672,-3.9546,-3.9069,-3.8517,-3.8065,-3.8065,-3.7663,-3.7236,-3.7236,-3.6883,-3.6455,-3.6405,-3.6405,-3.6405,-3.6405,-3.6405,-3.6405,-3.6405,-3.6405,-3.6405,-3.6405,-3.6405,-3.6182,-3.5583,-3.5508,-3.5307,-3.4756,-3.4705,-3.4776,-3.4776,-3.4826,-3.4851,-3.4851,-3.3722,-3.3049,-3.3049,-3.3049,-3.3049,-3.3049,-3.2548,-3.2285,-3.2285,-3.1648,-3.1318,-3.127,-3.017,-2.9068,-2.8014,-3.0375,-3.1451,-2.7781,0.0,-2.8812,-2.8812,-2.8234,-2.763,0.0,0.0,0.0,0.0,0.0,0.0,0.0,-2.6776,-2.681,-2.7748,-2.79,-2.8532,-3.0326,0.0,0.0,0.0,0.0,0.0,0.0,-4.4669,-4.5246,-4.4669,-4.4116,-4.3564,-4.3011,-4.2986,-4.2841,-4.2414,-4.1806,-4.1351,-4.11,-4.0727,-4.0249,-3.9697,-3.9697,-3.9697,-3.9697,-3.9697,-3.9697,-3.9697,-3.9697,-3.9697,-3.9697,-3.9697,-3.9697,-3.9697,-3.9697,-3.9697,-3.9697,-3.9697,-3.9697,-3.9697,-3.9697,-3.9697,-3.9697,-3.9697,-3.9396,-3.912,-3.9421,-3.912,-3.8668,-3.8668,-3.8266,-3.7814,-3.7814,-3.7412,-3.6885,-3.6505,-3.6405,-3.6405,-3.6405,-3.6405,-3.6405,-3.6405,-3.6405,-3.6405,-3.6405,-3.6405,-3.6182,-3.5583,-3.5508,-3.5307,-3.4756,-3.5056,-3.5307,-3.5307,-3.573,-3.6028,-3.6028,-3.4973,-3.4293,-3.4293,-3.4293,-3.4293,-3.4293,-3.4169,-3.4094,-3.4094,-3.3013,-3.2291,-3.1886,-3.2016,-3.1926,-3.1693,-3.3193,-3.3672,-2.681,-2.6901,-2.6801,-2.6549,-2.6675,-2.6801,-2.6549,0.0,0.0,0.0,0.0,0.0,0.0,0.0,-2.7077,-2.762,-2.8373,0.0,0.0,0.0,0.0,0.0,0.0,-4.5095,0.0,0.0,-4.5246,-4.4669,-4.4116,-4.3564,-4.3011,-4.2986,-4.2766,-4.2238,-4.1856,-4.148,-4.0924,-4.0425,-3.9998,-3.9697,-3.9697,-3.9697,-3.9697,-3.9697,-3.9697,-3.9697,-3.9697,-3.9697,-3.9697,-3.9697,-3.9697,-3.9697,-3.9697,-3.9697,-3.9697,-3.9697,-3.9697,-3.9697,-3.9697,-3.9697,-3.9697,-3.9697,-3.9496,-3.9295,-3.9597,-3.9496,-3.9245,-3.9245,-3.8843,-3.8341,-3.8065,-3.7789,-3.7362,-3.6606,-3.6606,-3.6707,-3.6455,-3.6405,-3.6405,-3.6405,-3.6405,-3.6405,-3.6405,-3.6405,-3.6304,-3.5956,-3.5906,-3.5805,-3.5504,-3.573,-3.5906,-3.5906,-3.6182,-3.6405,-3.6405,-3.5805,-3.5479,-3.5479,-3.5479,-3.5479,-3.5479,-3.5182,-3.4931,-3.468,-3.4065,-3.3298,-3.248,-3.3298,-3.3443,-3.2909,-3.4156,-3.453,-2.7176,-2.7656,-2.7706,-2.6725,-2.6901,-2.7178,-2.6625,-2.6499,0.0,0.0,0.0,0.0,0.0,-2.7128,0.0,0.0,0.0,0.0,0.0,0.0,0.0,0.0,0.0,0.0,-4.5824,-4.5648,-4.5246,-4.4669,-4.4116,-4.3564,-4.3011,-4.2986,-4.2766,-4.2238,-4.2137,-4.1555,-4.0526,-4.0049,-3.9772,-3.9697,-3.9697,-3.9697,-3.9697,-3.9697,-3.9697,-3.9697,0.0,0.0,-3.9697,-3.9697,-3.9697,-3.9697,-3.9697,-3.9697,-3.9697,-3.9697,-3.9697,-3.9697,-3.9697,-3.9697,-3.9697,-3.9697,-3.9697,-3.9697,-3.9697,-3.9697,-3.9697,-3.9697,-3.9346,-3.8868,-3.8291,-3.8065,-3.7739,-3.6782,-3.6832,-3.6935,-3.6505,-3.6405,-3.6405,-3.6405,-3.6405,-3.6405,-3.6405,-3.6405,-3.6405,-3.6405,-3.6405,-3.6405,-3.6405,-3.6405,-3.6405,-3.6405,-3.6405,-3.6405,-3.6405,-3.6405,-3.6405,-3.6405,-3.6405,-3.6405,-3.6405,-3.5906,-3.5357,-3.4806,-3.4926,-3.44,-3.3308,-3.44,-3.4449,-3.3475,-3.4495,-3.4926,-2.7446,-2.9096,-3.0055,-2.7228,-2.6901,-2.7178,-2.6625,-2.6499,-2.6499,0.0,0.0,0.0,0.0,-2.7921,-2.8298,0.0,0.0,-3.5454,0.0,0.0,-4.2534,-4.3438,0.0,-4.5472,-4.4292,-4.497,-4.5246,-4.4669,-4.4116,-4.3564,-4.3011,-4.2986,-4.2766,-4.2238,-4.1706,-4.1153,-4.0526,-4.0425,-4.0149,-3.9697,-3.9697,-3.9697,-3.9697,-3.9697,-3.9697,-3.9697,0.0,-3.9697,-3.9697,-3.9697,-3.9697,-3.9697,-3.9697,-3.9697,-3.9697,-3.9697,-3.9697,-3.9697,-3.9697,-3.9697,-3.9697,-3.9697,-3.9697,-3.9697,-3.9697,-3.9697,-3.9697,-3.9697,-3.9647,-3.9446,-3.8868,-3.8366,-3.7839,-3.7211,-3.6807,-3.6505,-3.643,-3.6405,-3.6405,-3.6405,-3.6405,-3.6405,-3.6405,-3.6405,-3.6405,-3.6405,-3.6405,-3.6405,-3.6405,-3.6405,-3.6405,-3.6405,-3.6405,-3.6405,-3.6405,-3.6405,-3.6405,-3.6405,-3.6405,-3.6405,-3.6405,-3.6329,-3.5981,-3.5382,-3.5881,-3.5787,-3.508,-3.5787,-3.606,-3.5846,-3.606,-3.5855,-2.7538,-2.8582,-2.9478,-2.885,-2.9553,-3.0069,-2.8636,-2.8499,-2.8524,0.0,0.0,0.0,0.0,0.0,-3.0834,-3.3746,0.0,-3.7538,-4.0423,-4.1329,-4.2082,0.0,0.0,-4.4895,-4.4719,-4.4895,-4.4794,-4.4217,-4.3664,-4.3112,-4.2615,-4.259,-4.2187,-4.1304,-4.1028,-4.0626,-4.0074,-4.0074,-3.9948,-3.9697,-3.9697,-3.9697,-3.9697,-3.9697,-3.9697,-3.9697,0.0,-3.9697,-3.9697,-3.9697,-3.9697,-3.9697,-3.9697,-3.9697,-3.9697,-3.9697,-3.9697,-3.9697,-3.9697,-3.9697,-3.9697,-3.9697,-3.9697,-3.9697,-3.9697,-3.9697,-3.9697,-3.9697,-3.9697,-3.9572,-3.907,-3.8894,-3.8617,-3.7462,-3.7211,-3.7086,-3.6531,-3.6405,-3.6405,-3.6405,-3.6405,-3.6405,-3.6405,-3.6405,-3.6405,-3.6405,-3.6405,-3.6405,-3.6405,-3.6405,-3.6405,-3.6405,-3.6405,-3.6405,-3.6405,-3.6405,-3.6405,-3.6405,-3.6405,-3.6405,-3.6405,-3.6405,-3.6279,-3.5981,-3.6279,-3.6279,-3.5981,-3.6279,-3.6405,-3.6405,-3.6405,-3.6279,-2.7531,-2.8161,-2.895,-2.998,-3.0984,-3.1578,-3.0909,-3.0683,-3.0507,-3.0116,0.0,0.0,0.0,-3.116,0.0,-3.7538,-3.8542,-3.9471,-4.1404,-4.1681,-4.2183,-4.3589,-4.4016,-4.4543,-4.5397,-4.4844,-4.4192,-4.3639,-4.3087,-4.2534,-4.2037,-4.1957,-4.153,-4.0551,-4.0526,-4.0249,-3.9697,-3.9697,-3.9697,-3.9697,-3.9697,-3.9697,-3.9697,-3.9697,-3.9697,-3.9697,-3.9697,-3.9697,-3.9697,-3.9697,-3.9697,-3.9697,-3.9697,-3.9697,-3.9697,-3.9697,-3.9697,-3.9697,-3.9697,-3.9697,-3.9697,-3.9697,-3.9697,-3.9697,-3.9697,-3.9697,-3.9697,-3.9697,-3.9697,-3.9597,-3.917,-3.917,-3.8969,-3.7688,-3.7513,-3.7387,-3.6581,-3.6405,-3.6405,-3.6405,-3.6405,-3.6405,-3.6405,-3.6405,-3.6405,-3.6405,-3.6405,-3.6405,-3.6405,-3.6405,-3.6405,-3.6405,-3.6531,-3.6656,-3.6782,-3.6782,-3.6782,-3.6782,-3.6556,-3.6455,-3.6606,-3.6606,-3.6656,-3.6782,-3.6782,-3.6782,-3.6782,-3.6782,-3.6732,-3.6606,-3.6606,-3.6531,-2.7483,-2.8933,-3.0206,-2.9239,-2.8373,-2.8725,-3.2692,-3.2064,-3.116,-3.3144,-3.3545,0.0,0.0,-3.2616,-3.4826,-3.8266,-4.0099,-4.2057,-4.4744,0.0,-4.5372,-4.5999,-4.5648,-4.5397,-4.5472,-4.4493,-4.3639,-4.3087,-4.259,-4.1982,-4.1376,-4.1351,-4.1075,-4.0526,-4.0526,-4.0249,-3.9697,-3.9697,-3.9697,-3.9697,-3.9697,-3.9697,-3.9697,-3.9697,-3.9697,-3.9697,-3.9697,-3.9697,-3.9697,-3.9697,-3.9697,-3.9697,-3.9697,-3.9697,-3.9697,-3.9697,-3.9697,-3.9697,-3.9697,-3.9697,-3.9697,-3.9697,-3.9697,-3.9697,-3.9697,-3.9697,-3.9697,-3.9697,-3.9697,-3.9697,-3.9647,-3.8894,-3.809,-3.7965,-3.7186,-3.6505,-3.643,-3.6405,-3.6405,-3.6405,-3.6405,-3.6405,-3.6405,-3.6405,-3.6405,-3.6405,-3.6405,-3.6405,-3.6405,-3.6405,-3.6405,-3.6405,-3.6883,-3.7337,-3.7839,-3.7889,-3.7889,-3.7889,-3.6935,-3.6631,-3.7111,-3.7136,-3.7362,-3.7889,-3.7889,-3.7889,-3.7889,-3.7889,-3.7638,-3.7136,-3.7136,-3.6908,-2.7115,-2.8773,-3.0507,-3.0041,-2.9654,-3.0256,-3.3646,-3.4299,-3.4449,-3.5278,-3.6006,0.0,0.0,0.0,-3.7638,-3.9572,-4.158,-4.3363,-4.4744,-4.5271,-4.5422,-4.5271,-4.507,-4.4819,-4.4468,-4.374,-4.3062,-4.2564,-4.1957,-4.1404,-4.0852,-4.0774,-4.0576,-4.0023,-3.9998,-3.9898,-3.9697,-3.9697,-3.9697,-3.9697,-3.9697,-3.9697,-3.9697,-3.9697,-3.9697,-3.9697,-3.9697,-3.9697,-3.9697,-3.9697,-3.9697,-3.9697,-3.9697,-3.9697,-3.9697,-3.9697,-3.9697,-3.9697,-3.9697,-3.9697,-3.9697,-3.9697,-3.9697,-3.9697,-3.9697,-3.9697,-3.9697,-3.9697,-3.9697,-3.9697,-3.9697,-3.9371,-3.8868,-3.8165,-3.7688,-3.7186,-3.6556,-3.6405,-3.6405,-3.6405,-3.6405,-3.6405,-3.6405,-3.6405,-3.6405,-3.6405,-3.6405,-3.6405,-3.6405,-3.6405,-3.6405,-3.6405,-3.6908,-3.7412,-3.7965,-3.8015,-3.8015,-3.8015,-3.7613,-3.7487,-3.7688,-3.7688,-3.7789,-3.8015,-3.8015,-3.7839,-3.7487,-3.7839,-3.7713,-3.7186,-3.7186,-3.7061,-2.7,-2.8213,-2.9704,-3.0231,-3.0482,-3.1512,-3.4977,-3.6107,-3.681,-3.8191,-3.8241,-3.7889,-3.7536,0.0,0.0,0.0,-4.2359,-4.3991,-4.4543,-4.497,-4.507,-4.4669,-4.4317,-4.3966,-4.3589,-4.2886,-4.2233,-4.1681,-4.1304,-4.0774,-4.03,-4.0249,-4.0074,-3.9697,-3.9697,-3.9697,-3.9697,-3.9697,-3.9697,-3.9697,-3.9697,-3.9697,-3.9697,-3.9697,-3.9697,-3.9697,-3.9697,-3.9697,-3.9697,-3.9697,-3.9697,-3.9697,-3.9697,-3.9697,-3.9697,-3.9697,-3.9697,-3.9697,-3.9697,-3.9697,-3.9697,-3.9697,-3.9697,-3.9697,-3.9697,-3.9697,-3.9697,-3.9697,-3.9697,-3.9697,-3.9697,-3.9421,-3.8969,-3.8191,-3.7739,-3.7287,-3.6581,-3.6405,-3.6455,-3.6631,-3.6531,-3.6455,-3.6631,-3.6531,-3.6405,-3.6405,-3.6405,-3.648,-3.6656,-3.6681,-3.6807,-3.7159,-3.7536,-3.7939,-3.8492,-3.8542,-3.8542,-3.8542,-3.8542,-3.8467,-3.8291,-3.8291,-3.8366,-3.8542,-3.8542,-3.8366,-3.799,-3.8366,-3.8266,-3.7713,-3.7713,-3.7613,-2.7268,-2.7329,-2.7756,-2.9377,-3.0231,-3.1964,-3.6885,-3.7186,-3.7688,-4.2082,-4.035,-3.8366,-3.9496,-3.8793,0.0,-4.0249,-4.2359,-4.3991,-4.4518,-4.4593,-4.4593,-4.4593,-4.3639,-4.2961,-4.2961,-4.1982,-4.105,-4.0551,-4.0501,-4.0275,-3.9722,-3.9697,-3.9697,-3.9697,-3.9697,-3.9697,-3.9697,-3.9697,-3.9697,-3.9697,-3.9697,-3.9697,-3.9697,-3.9697,-3.9697,-3.9697,-3.9697,-3.9697,-3.9697,-3.9697,-3.9697,-3.9697,-3.9697,-3.9697,-3.9697,-3.9697,-3.9697,-3.9697,-3.9697,-3.9697,-3.9697,-3.9697,-3.9697,-3.9697,-3.9697,-3.9697,-3.9697,-3.9697,-3.9697,-3.9697,-3.9697,-3.8868,-3.8015,-3.8015,-3.7186,-3.643,-3.6405,-3.6405,-3.6581,-3.7086,-3.6782,-3.6581,-3.7086,-3.6782,-3.6405,-3.6405,-3.6405,-3.6606,-3.7111,-3.7186,-3.7613,-3.8793,-3.8919,-3.9094,-3.9647,-3.9697,-3.9697,-3.9697,-3.9697,-3.9446,-3.8944,-3.8919,-3.9145,-3.9697,-3.9697,-3.9697,-3.9697,-3.9697,-3.9421,-3.8919,-3.8919,-3.8567,-2.6851,-2.8147,-2.9654,-2.9754,0.0,-3.5353,-3.8015,-3.8366,-3.917,-4.2811,-4.153,-3.9873,-4.0199,-3.9998,0.0,-3.9923,-4.1781,-4.3137,-4.2911,-4.3212,-4.3187,-4.2354,-4.1978,-4.1831,-4.1831,-4.1178,-4.0701,-4.0526,-4.0149,-3.9873,-3.9697,-3.9697,-3.9697,-3.9697,-3.9697,-3.9697,-3.9697,-3.9697,-3.9697,-3.9697,-3.9697,-3.9697,-3.9697,-3.9697,-3.9697,-3.9697,-3.9697,-3.9697,-3.9697,-3.9697,-3.9697,-3.9697,-3.9697,-3.9697,-3.9697,-3.9697,-3.9697,-3.9697,-3.9697,-3.9697,-3.9697,-3.9697,-3.9697,-3.9697,-3.9697,-3.9697,-3.9697,-3.9697,-3.9697,-3.9697,-3.9697,-3.9145,-3.8617,-3.8617,-3.8416,-3.7964,-3.7159,-3.6935,-3.6985,-3.7161,-3.7061,-3.6985,-3.7161,-3.7061,-3.6935,-3.6935,-3.6656,-3.6606,-3.7111,-3.7513,-3.804,-3.8844,-3.8919,-3.9094,-3.9647,-3.9697,-3.9697,-3.9697,-3.9697,-3.9622,-3.9446,-3.9446,-3.9521,-3.9697,-3.9697,-3.9496,-3.912,-3.9496,-3.9421,-3.8919,-3.8919,-3.8768,-2.7971,-2.9327,-3.0859,-3.1838,-3.4575,-3.7613,-3.9973,0.0,0.0,0.0,-4.2886,-4.148,-4.148,-4.1128,0.0,-4.04,-4.1656,-4.2514,-4.1907,-4.2108,-4.2082,-4.1351,-4.11,-4.0949,-4.0949,-4.0526,-4.0199,-4.0199,-3.9873,-3.9697,-3.9697,-3.9697,-3.9697,-3.9697,-3.9697,-3.9697,-3.9697,-3.9697,-3.9697,-3.9697,-3.9697,-3.9697,-3.9697,-3.9697,-3.9697,-3.9697,-3.9697,-3.9697,-3.9697,-3.9697,-3.9697,-3.9697,-3.9697,-3.9697,-3.9697,-3.9697,-3.9697,-3.9697,-3.9697,-3.9697,-3.9697,-3.9697,-3.9697,-3.9697,-3.9697,-3.9697,-3.9697,-3.9697,-3.9697,-3.9697,-3.9697,-3.9446,-3.9145,-3.8969,-3.8693,-3.8341,-3.7663,-3.7337,-3.7312,-3.7764,-3.736,-3.7061,-3.7739,-3.7487,-3.7262,-3.7487,-3.7486,-3.7536,-3.7814,-3.8341,-3.8818,-3.917,-3.9195,-3.932,-3.9672,-3.9697,-3.9697,-3.9697,-3.9697,-3.9697,-3.9697,-3.9697,-3.9697,-3.9697,-3.9697,-3.9521,-3.9195,-3.9521,-3.9521,-3.9195,-3.9195,-3.9195,-2.9877,-3.0618,-3.1562,-3.4831,-3.7086,0.0,-4.2409,-4.4267,-4.5347,-4.5347,0.0,-4.3011,-4.2911,-4.2082,-4.1326,-4.1225,-4.1731,-4.1882,-4.1275,-4.12,-4.12,-4.115,-4.0752,-4.045,-4.045,-3.9998,-3.9697,-3.9697,-3.9697,-3.9672,-3.9622,-3.9622,-3.9622,-3.9622,-3.9622,-3.9647,-3.9697,-3.9647,-3.9622,-3.9622,-3.9572,-3.9546,-3.9546,-3.9597,-3.9597,-3.9546,-3.9546,-3.9546,-3.9546,-3.9597,-3.9622,-3.9622,-3.9622,-3.9647,-3.9697,-3.9647,-3.9647,-3.9697,-3.9697,-3.9697,-3.9697,-3.9697,-3.9697,-3.9697,-3.9697,-3.9697,-3.9697,-3.9697,-3.9697,-3.9697,-3.9697,-3.9697,-3.9572,-3.9069,-3.8542,-3.814,-3.804,-3.7613,-3.7538,-3.8567,-3.7561,-3.7033,-3.8567,-3.799,-3.7487,-3.7939,-3.8542,-3.8969,-3.8919,-3.9346,-3.9697,-3.9697,-3.9697,-3.9697,-3.9697,-3.9697,-3.9697,-3.9697,-3.9697,-3.9697,-3.9697,-3.9697,-3.9697,-3.9697,-3.9697,-3.9697,-3.9697,-3.9697,-3.9697,-3.9697,-3.9697,-3.9697,-2.9012,-3.0642,0.0,-3.6006,-3.9396,-4.2333,-4.3915,-4.4217,-4.4166,-4.4166,-4.389,-4.3363,-4.2539,-4.2187,-4.1706,-4.0827,-4.1153,-4.1329,-4.0777,-4.0701,-4.0526,-4.0099,-3.9948,-3.9873,-3.9873,-3.9772,-3.9697,-3.9697,-3.9697,-3.9496,-3.9069,-3.9044,-3.9044,-3.9044,-3.9044,-3.9245,-3.9697,-3.927,-3.9044,-3.9095,-3.8592,-3.8366,-3.8391,-3.8843,-3.8793,-3.8366,-3.8366,-3.8366,-3.8391,-3.8868,-3.9044,-3.9044,-3.9044,-3.932,-3.9647,-3.922,-3.932,-3.9697,-3.9697,-3.9697,-3.9697,-3.9697,-3.9697,-3.9697,-3.9697,-3.9697,-3.9697,-3.9697,-3.9697,-3.9697,-3.9697,-3.9697,-3.9672,-3.9546,-3.9421,-3.9094,-3.8191,-3.7914,-3.7764,-3.7588,-3.7613,-3.7764,-3.814,-3.8366,-3.8391,-3.8065,-3.8868,-3.9371,-3.8919,-3.9346,-3.9697,-3.9697,-3.9697,-3.9697,-3.9697,-3.9697,-3.9697,-3.9697,-3.9697,-3.9697,-3.9697,-3.9697,-3.9697,-3.9697,-3.9697,-3.9697,-3.9697,-3.9697,-3.9697,-3.9697,-3.9697,-3.9697,-2.9221,-3.1264,0.0,-3.8441,0.0,-4.3187,-4.4041,-4.3589,-4.3011,-4.3011,-4.3011,-4.276,-4.1932,-4.1756,-4.148,-4.0651,-4.0752,-4.0752,-4.0199,-4.0124,-4.0023,-3.9722,-3.9697,-3.9697,-3.9697,-3.9446,-3.9295,-3.9295,-3.9044,-3.8768,-3.8467,-3.8467,-3.8592,-3.8919,-3.8592,-3.8718,-3.9295,-3.8743,-3.8467,-3.8467,-3.814,-3.7864,-3.7638,-3.8191,-3.8291,-3.8015,-3.8015,-3.8015,-3.804,-3.8341,-3.8467,-3.8492,-3.8818,-3.9095,-3.9295,-3.927,-3.9446,-3.9697,-3.9697,-3.9697,-3.9697,-3.9697,-3.9697,-3.9697,-3.9697,-3.9697,-3.9647,-3.9371,-3.9496,-3.9572,-3.9019,-3.9295,-3.9622,-3.9371,-3.9295,-3.9145,-3.8542,-3.799,-3.7613,-3.7588,-3.7588,-3.7789,-3.8341,-3.8894,-3.917,-3.8868,-3.932,-3.9597,-3.9295,-3.9521,-3.9697,-3.9697,-3.9697,-3.9697,-3.9697,-3.9697,-3.9697,-3.9697,-3.9697,-3.9697,-3.9697,-3.9697,-3.9697,-3.9697,-3.9697,-3.9697,-3.9697,-3.9697,-3.9697,-3.9697,-3.9697,-3.9697,-2.9261,-3.2013,-3.5123,-4.0453,-4.2208,0.0,-4.3263,-4.2585,-4.1936,-4.1936,-4.2011,-4.1856,-4.125,-4.115,-4.0974,-4.0475,-4.0375,-4.0224,-3.9747,-3.9622,-3.9546,-3.9546,-3.9471,-3.9396,-3.9396,-3.8994,-3.8718,-3.8718,-3.8266,-3.7965,-3.7864,-3.7864,-3.809,-3.8567,-3.8115,-3.814,-3.8718,-3.814,-3.7864,-3.7864,-3.7764,-3.7487,-3.7061,-3.7513,-3.7713,-3.7713,-3.7713,-3.7713,-3.7739,-3.7814,-3.7864,-3.7914,-3.8492,-3.8844,-3.8919,-3.9371,-3.9622,-3.9697,-3.9697,-3.9697,-3.9697,-3.9697,-3.9697,-3.9697,-3.9697,-3.9697,-3.9597,-3.9145,-3.9346,-3.9446,-3.8417,-3.8919,-3.9546,-3.9045,-3.8919,-3.8919,-3.8919,-3.8065,-3.7462,-3.7914,-3.7713,-3.7789,-3.8894,-3.9396,-3.9697,-3.9697,-3.9697,-3.9697,-3.9697,-3.9697,-3.9697,-3.9697,-3.9697,-3.9697,-3.9697,-3.9697,-3.9697,-3.9697,-3.9697,-3.9697,-3.9697,-3.9697,-3.9697,-3.9697,-3.9697,-3.9697,-3.9697,-3.9697,-3.9697,-3.9697,-3.9697,-3.9697,-2.7358,0.0,-3.7186,0.0,-4.0802,-4.1526,0.0,0.0,-4.0727,0.0,-4.1128,-4.1225,-4.0727,-4.0626,-4.045,-3.9898,-3.9798,-3.9772,-3.9697,-3.927,-3.902,-3.902,-3.8542,-3.8241,-3.8241,-3.8165,-3.8115,-3.8115,-3.804,-3.7789,-3.7312,-3.7287,-3.7337,-3.7412,-3.7337,-3.7563,-3.8115,-3.7563,-3.7287,-3.7287,-3.6857,-3.6581,-3.6531,-3.6606,-3.6631,-3.6631,-3.6631,-3.6631,-3.6656,-3.7086,-3.7287,-3.7337,-3.7914,-3.8442,-3.8919,-3.8994,-3.927,-3.9697,-3.9697,-3.9697,-3.9697,-3.9697,-3.9697,-3.9697,-3.9697,-3.9697,-3.9672,-3.9597,-3.9647,-3.9546,-3.8919,-3.922,-3.9546,-3.9045,-3.8919,-3.8919,-3.8919,-3.8366,-3.7914,-3.799,-3.8341,-3.8894,-3.9471,-3.9647,-3.9697,-3.9697,-3.9697,-3.9697,-3.9697,-3.9697,-3.9697,-3.9697,-3.9697,-3.9697,-3.9697,-3.9697,-3.9697,-3.9697,-3.9697,-3.9697,-3.9697,-3.9697,-3.9697,-3.9697,-3.9697,-3.9697,-3.9697,-3.9697,-3.9697,-3.9697,-3.9697,-3.9697,-2.8875,-3.258,-3.6121,0.0,-3.9597,-4.0049,-4.035,0.0,-3.9496,-3.917,-3.9295,-3.9597,-3.9998,-4.0049,-3.9973,-3.9747,-3.9421,-3.922,-3.922,-3.8743,-3.8391,-3.8391,-3.8165,-3.8015,-3.8015,-3.7739,-3.7538,-3.7538,-3.7262,-3.6985,-3.6782,-3.6782,-3.6908,-3.7186,-3.6885,-3.6985,-3.7538,-3.6985,-3.6782,-3.6782,-3.6531,-3.6405,-3.6405,-3.6405,-3.6405,-3.6405,-3.6405,-3.6405,-3.643,-3.6681,-3.6782,-3.6832,-3.7337,-3.7889,-3.8442,-3.8793,-3.922,-3.9697,-3.9697,-3.9697,-3.9697,-3.9697,-3.9697,-3.9697,-3.9697,-3.9471,-3.917,-3.8843,-3.8994,-3.8969,-3.7813,-3.8391,-3.9094,-3.8517,-3.8642,-3.8994,-3.927,-3.8642,-3.809,-3.8442,-3.8693,-3.9095,-3.9597,-3.9697,-3.9697,-3.9697,-3.9697,-3.9697,-3.9697,-3.9697,-3.9697,-3.9697,-3.9697,-3.9697,-3.9697,-3.9697,-3.9697,-3.9697,-3.9697,-3.9697,-3.9697,-3.9697,-3.9697,-3.9697,-3.9697,-3.9697,-3.9697,-3.9697,-3.9697,-3.9697,-3.9697,-3.9697,0.0,0.0,-3.3603,-3.6463,-3.7513,-3.799,0.0,0.0,-3.8366,0.0,-3.8015,-3.8266,-3.912,-3.927,-3.927,-3.927,-3.8919,-3.8642,-3.8642,-3.8165,-3.7789,-3.7789,-3.7688,-3.7588,-3.7588,-3.7211,-3.6985,-3.6985,-3.6631,-3.6405,-3.6405,-3.6405,-3.6606,-3.696,-3.6631,-3.6531,-3.6759,-3.6358,-3.6279,-3.6405,-3.6405,-3.6329,-3.6157,-3.6355,-3.6329,-3.6157,-3.6355,-3.6405,-3.6405,-3.6405,-3.6405,-3.6455,-3.696,-3.7437,-3.7864,-3.8442,-3.8994,-3.9496,-3.9496,-3.9572,-3.9672,-3.9521,-3.9572,-3.9647,-3.9346,-3.9069,-3.8743,-3.8165,-3.8417,-3.8592,-3.7184,-3.7964,-3.8944,-3.8366,-3.8668,-3.9196,-3.9421,-3.8944,-3.8517,-3.8818,-3.8994,-3.922,-3.9622,-3.9697,-3.9697,-3.9697,-3.9697,-3.9697,-3.9697,-3.9697,-3.9697,-3.9697,-3.9697,-3.9697,-3.9697,-3.9697,-3.9697,-3.9697,-3.9697,-3.9697,-3.9697,-3.9697,-3.9697,-3.9697,-3.9697,-3.9697,-3.9697,-3.9697,-3.9697,-3.9697,-3.9697,-3.9697,0.0,-2.7912,0.0,-3.2056,-3.3746,0.0,0.0,0.0,0.0,-3.7914,-3.8015,-3.8015,-3.809,-3.809,-3.809,-3.809,-3.8065,-3.804,-3.804,-3.7563,-3.7236,-3.7236,-3.6807,-3.648,-3.648,-3.6455,-3.6455,-3.6455,-3.643,-3.6405,-3.6405,-3.6405,-3.643,-3.6455,-3.643,-3.6132,-3.5583,-3.5558,-3.5855,-3.6405,-3.6405,-3.6081,-3.5558,-3.6132,-3.6081,-3.5583,-3.6132,-3.6405,-3.6405,-3.6405,-3.6405,-3.6455,-3.696,-3.7211,-3.7287,-3.7839,-3.8417,-3.8969,-3.8969,-3.9245,-3.9622,-3.9094,-3.927,-3.9496,-3.8417,-3.8467,-3.8743,-3.8165,-3.8417,-3.8718,-3.809,-3.8793,-3.9521,-3.8969,-3.9245,-3.9521,-3.907,-3.927,-3.9471,-3.8969,-3.9295,-3.9672,-3.9697,-3.9697,-3.9697,-3.9697,-3.9697,-3.9697,-3.9697,-3.9697,-3.9697,-3.9697,-3.9697,-3.9697,-3.9697,-3.9697,-3.9697,-3.9697,-3.9697,-3.9697,-3.9697,-3.9697,-3.9697,-3.9697,-3.9697,-3.9697,-3.9697,-3.9697,-3.9697,-3.9697,-3.9697,-3.9697,0.0,0.0,0.0,-3.1116,-3.2454,-3.3319,-3.4117,-3.4951,-3.5554,-3.5403,-3.5655,-3.5906,-3.5906,-3.7061,-3.8015,-3.8015,-3.7713,-3.7487,-3.7487,-3.701,-3.6707,-3.6707,-3.6531,-3.6405,-3.6405,-3.6405,-3.6405,-3.6405,-3.6031,-3.5981,-3.638,-3.6031,-3.583,-3.583,-3.583,-3.5579,-3.4981,-3.4981,-3.5127,-3.5303,-3.568,-3.5554,-3.4981,-3.5579,-3.5529,-3.5006,-3.5604,-3.6031,-3.6405,-3.6405,-3.6405,-3.643,-3.6631,-3.6933,-3.7211,-3.7412,-3.7839,-3.8316,-3.8316,-3.8442,-3.8642,-3.8818,-3.9045,-3.9145,-3.9094,-3.8718,-3.8341,-3.8517,-3.8442,-3.8266,-3.8065,-3.8592,-3.912,-3.8969,-3.9295,-3.9647,-3.9446,-3.9546,-3.9647,-3.9446,-3.9572,-3.9697,-3.9697,-3.9697,-3.9697,-3.9697,-3.9697,-3.9697,-3.9697,-3.9697,-3.9697,-3.9697,-3.9697,-3.9697,-3.9697,-3.9697,-3.9697,-3.9697,-3.9697,-3.9697,-3.9697,-3.9697,-3.9697,-3.9697,-3.9697,-3.9697,-3.9697,-3.9697,-3.9697,-3.9697,-3.9697,-3.9697,-2.6873,0.0,0.0,0.0,0.0,-3.1085,-3.2039,0.0,-3.3671,-3.3847,-3.4198,-3.45,-3.47,-3.5906,-3.691,-3.691,-3.6759,-3.6634,-3.6634,-3.6157,-3.5881,-3.6056,-3.5931,-3.5805,-3.5805,-3.5805,-3.5805,-3.5805,-3.5479,0.0,-3.578,-3.5454,-3.5232,-3.5232,-3.5056,-3.4856,-3.468,-3.455,-3.455,-3.468,-3.5056,-3.4931,-3.4474,-3.4981,-3.4931,-3.4474,-3.5182,-3.5708,-3.6107,-3.6329,-3.6405,-3.6405,-3.6405,-3.6631,-3.6958,-3.6958,-3.7262,-3.7739,-3.7739,-3.7839,-3.8065,-3.8467,-3.8718,-3.8944,-3.9069,-3.8743,-3.8341,-3.8517,-3.8442,-3.8291,-3.8291,-3.8718,-3.9145,-3.9145,-3.9421,-3.9697,-3.9697,-3.9697,-3.9697,-3.9697,-3.9697,-3.9697,-3.9697,-3.9697,-3.9697,-3.9697,-3.9697,-3.9697,-3.9697,-3.9697,-3.9697,-3.9697,-3.9697,-3.9697,-3.9697,-3.9697,-3.9697,-3.9697,-3.9697,-3.9697,-3.9697,-3.9697,-3.9697,-3.9697,-3.9697,-3.9697,-3.9697,-3.9697,-3.9697,-3.9697,-3.9697,-3.9697,0.0,0.0,0.0,0.0,0.0,0.0,-3.0156,0.0,-3.1813,-3.347,-3.3822,-3.4022,-3.4575,-3.47,-3.47,-3.4675,-3.5107,-3.5483,-3.5483,-3.5006,-3.4881,-3.5408,-3.5006,-3.468,-3.468,-3.468,-3.468,-3.468,-3.47,-3.4655,-3.468,-3.4655,-3.47,-3.47,-3.4173,-3.4123,-3.4675,-3.4148,-3.4148,-3.4675,-3.47,-3.4399,-3.3897,-3.4449,-3.4399,-3.3947,-3.4981,-3.5458,-3.5508,-3.6132,-3.6405,-3.6405,-3.6405,-3.6405,-3.6405,-3.6405,-3.6757,-3.7161,-3.7161,-3.7513,-3.7965,-3.799,-3.8391,-3.8718,-3.8191,-3.8417,-3.8793,-3.8191,-3.8442,-3.8919,-3.8944,-3.9295,-3.9697,-3.9697,-3.9697,-3.9697,-3.9697,-3.9697,-3.9697,-3.9697,-3.9697,-3.9697,-3.9697,-3.9697,-3.9697,-3.9697,-3.9697,-3.9697,-3.9697,-3.9697,-3.9697,-3.9722,-3.9722,-3.9722,-3.9722,-3.9722,-3.9722,-3.9697,-3.9697,-3.9697,-3.9697,-3.9697,-3.9697,-3.9697,-3.9697,-3.9697,-3.9697,-3.9697,-3.9697,-3.9697,-3.9697,-3.9697,-2.6756,0.0,0.0,0.0,0.0,0.0,0.0,0.0,0.0,-3.1336,-3.2139,-3.2867,-3.342,-3.3847,-3.3997,-3.3596,-3.4324,-3.4906,-3.4906,-3.4781,-3.4776,-3.4881,-3.4781,-3.468,-3.468,-3.468,-3.468,0.0,-3.4349,-3.4299,-3.47,-3.4349,-3.4123,-3.4123,-3.3596,-3.337,-3.352,-3.3395,-3.3395,-3.3545,-3.3947,-3.3847,-3.3319,-3.3872,-3.3822,-3.3345,-3.4048,-3.4575,-3.4981,-3.5981,-3.6405,-3.6405,-3.6405,-3.6405,-3.6405,-3.6405,-3.6505,-3.6631,-3.6631,-3.6732,-3.6983,-3.7739,-3.7839,-3.7764,-3.8442,-3.8442,-3.8291,-3.8567,-3.8743,-3.902,-3.9371,-3.9572,-3.9697,-3.9697,-3.9697,-3.9697,-3.9697,-3.9697,-3.9697,-3.9697,-3.9697,-3.9697,-3.9697,-3.9697,-3.9697,-3.9697,-3.9697,-3.9697,-3.9697,-3.9697,-3.9848,-4.0249,-4.03,-4.03,-4.03,-4.03,-4.0124,-3.9722,-3.9697,-3.9697,-3.9697,-3.9697,-3.9697,-3.9697,-3.9697,-3.9697,-3.9697,-3.9697,-3.9697,-3.9697,-3.9697,-3.9697,0.0,0.0,0.0,0.0,0.0,0.0,-2.7996,-2.8725,-2.9654,0.0,-3.111,-3.1788,-3.2566,-3.2968,-3.3169,-3.3093,-3.3621,-3.4123,-3.4349,-3.4173,-3.4123,-3.4349,-3.4173,-3.4048,-3.4048,-3.4048,-3.4048,-3.4048,-3.3746,-3.3696,-3.4022,-3.3746,-3.3545,-3.3545,-3.3244,-3.3111,-3.3111,-3.3111,-3.3111,-3.3111,-3.3395,-3.3395,-3.3136,-3.3395,-3.3395,-3.3119,-3.3671,-3.4198,-3.4801,-3.5655,-3.6157,-3.6405,-3.6405,-3.6405,-3.6405,-3.6405,-3.6405,-3.6405,-3.6405,-3.6405,-3.6556,-3.7387,-3.7613,-3.7688,-3.8592,-3.8793,-3.8793,-3.912,-3.922,-3.9295,-3.9622,-3.9697,-3.9697,-3.9697,-3.9697,-3.9697,-3.9697,-3.9697,-3.9697,-3.9697,-3.9697,-3.9697,-3.9697,-3.9697,-3.9697,-3.9697,-3.9898,-4.0049,-4.0049,-4.0249,-4.0501,-4.0774,-4.0799,-4.0799,-4.0799,-4.0799,-4.0727,-4.04,-4.0174,-4.0049,-4.0049,-3.9823,-3.9798,-4.0023,-4.0049,-4.0049,-4.0049,-3.9798,-3.9697,-3.9697,-3.9697,-3.9697,0.0,0.0,0.0,0.0,0.0,0.0,-2.8687,-2.8787,-2.9113,0.0,-3.0482,-3.0809,-3.1763,-3.1938,-3.2114,-3.2641,-3.2817,-3.3093,-3.3721,-3.3395,-3.3269,-3.3746,-3.337,-3.3111,-3.3111,-3.3111,-3.3111,-3.3111,-3.3111,-3.3136,-3.3212,-3.3119,-3.3136,-3.3212,-3.3119,-3.3111,-3.3111,-3.3111,-3.3111,-3.3111,-3.3111,-3.3111,-3.3111,-3.3111,-3.3111,-3.3119,-3.3671,-3.4198,-3.4731,-3.5282,-3.5881,-3.6405,-3.6405,-3.6405,-3.6405,-3.6405,-3.6405,-3.6405,-3.6405,-3.6405,-3.6505,-3.7059,-3.7513,-3.8015,-3.8592,-3.917,-3.9622,-3.9672,-3.9697,-3.9697,-3.9697,-3.9697,-3.9697,-3.9697,-3.9697,-3.9697,-3.9697,-3.9697,-3.9697,-3.9697,-3.9697,-3.9697,-3.9697,-3.9697,-3.9722,-3.9772,-4.0199,-4.0551,-4.0601,-4.0974,-4.13,-4.1376,-4.1376,-4.1376,-4.1376,-4.1376,-4.1351,-4.1275,-4.0824,-4.0601,-4.0601,-4.0149,-4.0099,-4.0601,-4.0601,-4.0601,-4.0601,-3.9998,-3.9697,-3.9697,-3.9697,-3.9697,0.0,0.0,0.0,0.0,0.0,0.0,-2.8247,-2.8273,-2.8448,0.0,-2.9628,-3.0005,-3.0231,-3.0256,-3.0306,-3.0407,-3.116,-3.2064,-3.3093,-3.3187,-3.3162,-3.3219,-3.3144,-3.3111,-3.3111,-3.3111,-3.3111,-3.3111,-3.3111,-3.3269,-3.3721,-3.3319,-3.3294,-3.3721,-3.3319,-3.3111,-3.3111,-3.3111,-3.3111,-3.3111,-3.3111,-3.3111,-3.3111,-3.3111,-3.3111,-3.3119,-3.3671,-3.4198,-3.4731,-3.5282,-3.5881,-3.6405,-3.6405,-3.6405,-3.6405,-3.6405,-3.6405,-3.6405,-3.6405,-3.6405,-3.6505,-3.7059,-3.7262,-3.7437,-3.8015,-3.8567,-3.912,-3.9572,-3.9697,-3.9697,-3.9697,-3.9697,-3.9697,-3.9697,-3.9697,-3.9697,-3.9697,-3.9697,-3.9697,-3.9697,-3.9697,-3.9697,-3.9697,-3.9697,-3.9848,-4.03,-4.045,-4.0676,-4.1075,-4.1225,-4.1505,-4.1957,-4.2037,-4.2037,-4.2037,-4.2037,-4.1806,-4.13,-4.1175,-4.1125,-4.1125,-4.1025,-4.1025,-4.1125,-4.1125,-4.1125,-4.1125,-4.0174,-3.9697,-3.9697,-3.9697,-3.9697,0.0,0.0,0.0,-2.9428,0.0,0.0,0.0,-2.895,-2.9026,-2.9302,-2.9352,-2.9453,-2.9729,-2.9553,-2.9453,-2.9754,-3.0683,-3.1486,-3.1813,-3.2566,-3.3111,-3.3111,-3.3111,-3.3111,-3.3111,-3.3111,-3.3194,-3.347,-3.3746,-3.4022,-3.4299,-3.3796,-3.3621,-3.3897,-3.337,-3.3111,-3.3111,-3.3111,-3.3111,-3.3111,-3.3111,-3.3111,-3.3111,-3.3111,-3.3111,-3.3119,-3.3671,-3.4198,-3.4731,-3.5282,-3.5881,-3.6405,-3.6405,-3.6405,-3.6405,-3.6405,-3.6405,-3.6405,-3.6405,-3.6405,-3.6455,-3.6732,-3.696,-3.7287,-3.7839,-3.8592,-3.9346,-3.9622,-3.9697,-3.9697,-3.9697,-3.9697,-3.9697,-3.9697,-3.9697,-3.9697,-3.9697,-3.9697,-3.9697,-3.9697,-3.9697,-3.9697,-3.9697,-3.9923,-4.0199,-4.0475,-4.0978,-4.143,-4.1706,-4.1982,-4.2258,-4.259,-4.2615,-4.2615,-4.2615,-4.2615,-4.2459,-4.2183,-4.1907,-4.1756,-4.1756,-4.148,-4.1455,-4.1731,-4.1756,-4.1756,-4.1756,-4.0927,-4.0375,-4.0099,-3.9823,-3.9697,0.0,0.0,0.0,0.0,0.0,-2.9654,0.0,0.0,0.0,-2.9628,-2.9252,0.0,0.0,0.0,0.0,0.0,0.0,0.0,0.0,-3.1637,0.0,-3.2742,-3.2986,-3.3043,-3.2918,-3.2918,-3.3194,-3.3847,-3.4223,-3.455,-3.4831,-3.4349,-3.4098,-3.4198,-3.3671,-3.3395,-3.3395,-3.3294,-3.3244,-3.3244,-3.3162,-3.3111,-3.3111,-3.3111,-3.3111,-3.3162,-3.3771,-3.4299,-3.4731,-3.5382,-3.5956,-3.6405,-3.6405,-3.6405,-3.6405,-3.6405,-3.6405,-3.6405,-3.6405,-3.6405,-3.6405,-3.6405,-3.6857,-3.7437,-3.8015,-3.8894,-3.9697,-3.9697,-3.9697,-3.9697,-3.9697,-3.9697,-3.9697,-3.9697,-3.9697,-3.9697,-3.9697,-3.9697,-3.9697,-3.9697,-3.9697,-3.9697,-3.9697,-4.0149,-4.0551,-4.0651,-4.153,-4.2263,-4.2363,-4.271,-4.2986,-4.2986,-4.2986,-4.2986,-4.2986,-4.2986,-4.2986,-4.2986,-4.2615,-4.2363,-4.2363,-4.1882,-4.1856,-4.2363,-4.2363,-4.2363,-4.2363,-4.1756,-4.1204,-4.0651,-4.0224,-4.0023,0.0,0.0,0.0,0.0,-2.9402,0.0,0.0,0.0,-2.8988,-2.8988,0.0,0.0,0.0,0.0,0.0,0.0,0.0,0.0,-2.9164,-3.0156,-3.106,-3.1537,-3.2466,-3.2867,-3.2365,-3.2315,-3.2767,-3.3822,-3.3495,-3.3897,-3.5332,-3.4881,-3.4806,-3.5282,-3.4781,-3.4525,-3.4525,-3.4048,-3.3796,-3.3796,-3.3319,-3.3111,-3.3111,-3.3111,-3.3111,-3.3187,-3.4173,-3.463,-3.4801,-3.583,-3.6355,-3.6405,-3.6405,-3.6405,-3.6405,-3.6405,-3.6405,-3.6405,-3.6405,-3.6405,-3.6405,-3.6405,-3.7061,-3.8015,-3.8592,-3.9195,-3.9697,-3.9697,-3.9697,-3.9697,-3.9697,-3.9697,-3.9697,-3.9697,-3.9697,-3.9697,-3.9697,-3.9697,-3.9697,-3.9697,-3.9697,-3.9697,-3.9697,-4.0149,-4.0676,-4.1125,-4.1756,-4.2389,-4.2866,-4.2936,-4.2986,-4.2986,-4.2986,-4.2986,-4.2986,-4.2986,-4.2986,-4.2986,-4.2911,-4.2886,-4.2886,-4.2811,-4.2811,-4.2886,-4.2886,-4.2886,-4.2942,-4.2389,-4.1781,-4.12,-4.1125,-4.11,0.0,0.0,0.0,0.0,0.0,0.0,-3.0278,0.0,-2.9454,0.0,0.0,0.0,0.0,0.0,0.0,0.0,-2.875,0.0,0.0,0.0,-3.1035,0.0,0.0,0.0,-3.1712,-3.2616,-3.3395,-3.3872,-3.3972,-3.4324,-3.4981,-3.4806,-3.4781,-3.5006,-3.4806,-3.468,-3.468,-3.4173,-3.3897,-3.3897,-3.3345,-3.3111,-3.3136,-3.3395,-3.3545,-3.3621,-3.468,-3.5157,-3.5207,-3.6031,-3.6405,-3.6405,-3.6405,-3.6405,-3.6405,-3.6405,-3.6405,-3.6405,-3.6405,-3.6405,-3.6405,-3.6405,-3.7111,-3.804,-3.8291,-3.8994,-3.9697,-3.9697,-3.9697,-3.9697,-3.9697,-3.9697,-3.9697,-3.9697,-3.9697,-3.9697,-3.9697,-3.9697,-3.9697,-3.9697,-3.9948,-4.0174,-4.0174,-4.0626,-4.1178,-4.1731,-4.2283,-4.2766,-4.2936,-4.2986,-4.2986,-4.2986,-4.2986,-4.2986,-4.2986,-4.2986,-4.2986,-4.2986,-4.2986,-4.2986,-4.2986,-4.2986,-4.2986,-4.2986,-4.2986,-4.2986,-4.2986,-4.2735,-4.2509,-4.2283,-4.163,-4.1275,-3.1738,0.0,0.0,0.0,0.0,0.0,0.0,0.0,0.0,0.0,0.0,0.0,0.0,0.0,0.0,0.0,0.0,-2.9603,0.0,0.0,0.0,0.0,0.0,0.0,0.0,-3.219,-3.3119,-3.342,-3.3947,-3.4474,-3.4881,-3.4906,-3.5027,-3.5177,-3.5177,-3.5177,-3.5177,-3.4625,-3.4274,-3.4123,-3.3721,-3.3445,-3.3319,-3.3872,-3.4123,-3.4173,-3.5082,-3.5508,-3.5533,-3.6132,-3.6405,-3.6405,-3.6405,-3.6405,-3.6405,-3.6405,-3.6405,-3.6405,-3.6405,-3.6405,-3.643,-3.6581,-3.7236,-3.804,-3.8191,-3.8919,-3.9697,-3.9697,-3.9697,-3.9697,-3.9697,-3.9697,-3.9697,-3.9697,-3.9697,-3.9697,-3.9697,-3.9823,-3.9923,-3.9923,-4.0375,-4.0802,-4.0927,-4.1304,-4.1706,-4.2137,-4.269,-4.2986,-4.2986,-4.2986,-4.2986,-4.2986,-4.2986,-4.2986,-4.2986,-4.2986,-4.2986,-4.2986,-4.2986,-4.2986,-4.2986,-4.2986,-4.2986,-4.2986,-4.2986,-4.2986,-4.2986,-4.2986,-4.2986,-4.2961,-4.2158,-4.1781,0.0,0.0,0.0,-3.1512,0.0,0.0,0.0,0.0,-3.0022,0.0,0.0,0.0,0.0,0.0,0.0,0.0,0.0,0.0,0.0,0.0,0.0,0.0,0.0,0.0,0.0,-3.0382,-3.116,0.0,-3.2792,-3.3822,-3.5382,-3.5483,-3.5755,-3.6329,-3.6355,-3.6355,-3.6355,-3.5755,-3.5182,-3.4655,-3.4675,-3.4399,-3.3897,-3.4449,-3.4655,-3.4726,-3.5257,-3.5508,-3.5533,-3.6132,-3.6405,-3.6405,-3.6405,-3.6405,-3.6405,-3.6405,-3.6405,-3.6405,-3.6405,-3.6405,-3.6505,-3.6985,-3.7538,-3.8115,-3.8668,-3.9245,-3.9697,-3.9697,-3.9697,-3.9697,-3.9697,-3.9697,-3.9697,-3.9697,-3.9697,-3.9697,-3.9697,-4.0124,-4.0501,-4.0501,-4.0874,-4.148,-4.2062,-4.2162,-4.2187,-4.2213,-4.269,-4.2986,-4.2986,-4.2986,-4.2986,-4.2986,-4.2986,-4.2986,-4.2986,-4.2986,-4.2986,-4.2986,-4.2986,-4.2986,-4.2986,-4.2986,-4.2986,-4.2986,-4.2986,-4.2986,-4.2986,-4.2986,-4.2986,-4.2986,-4.2936,-4.2936,0.0,0.0,-3.455,-3.296,0.0,0.0,0.0,0.0,0.0,0.0,0.0,0.0,0.0,0.0,0.0,0.0,0.0,0.0,0.0,0.0,0.0,0.0,0.0,0.0,0.0,0.0,0.0,0.0,-3.2541,0.0,-3.3872,-3.4555,-3.5031,-3.5278,-3.6028,-3.6405,-3.6405,-3.5805,-3.5408,-3.5232,-3.4856,-3.4625,-3.4449,-3.4981,-3.5232,-3.5257,-3.5855,-3.6081,-3.6107,-3.6329,-3.6405,-3.6405,-3.6405,-3.6405,-3.6405,-3.6405,-3.6405,-3.6405,-3.6405,-3.6656,-3.6935,-3.7136,-3.7814,-3.8617,-3.8869,-3.9245,-3.9697,-3.9697,-3.9697,-3.9697,-3.9697,-3.9697,-3.9697,-3.9697,-3.9697,-3.9798,-4.0149,-4.0375,-4.0626,-4.0949,-4.1505,-4.1932,-4.2162,-4.2514,-4.2766,-4.2766,-4.2861,-4.2986,-4.2986,-4.2986,-4.2986,-4.2986,-4.2986,-4.2986,-4.2986,-4.2986,-4.2986,-4.2986,-4.2986,-4.2986,-4.2986,-4.2986,-4.2986,-4.2986,-4.2986,-4.2986,-4.2986,-4.2986,-4.2986,-4.2986,-4.2986,-4.2986,-3.4776,-3.5127,0.0,-3.4022,-3.3419,0.0,-3.2431,0.0,0.0,0.0,0.0,0.0,0.0,0.0,0.0,0.0,0.0,0.0,0.0,-2.9302,0.0,0.0,0.0,0.0,0.0,0.0,0.0,-3.1386,-3.224,-3.2943,0.0,-3.4223,-3.4781,-3.4956,-3.5881,-3.6405,-3.6405,-3.6006,-3.5683,-3.5508,-3.5378,-3.5203,-3.4981,-3.5533,-3.583,-3.5855,-3.6207,-3.6405,-3.6405,-3.6405,-3.6405,-3.6405,-3.6405,-3.6405,-3.6405,-3.6405,-3.6531,-3.6707,-3.6707,-3.7059,-3.7513,-3.7713,-3.8266,-3.8969,-3.9145,-3.9421,-3.9697,-3.9697,-3.9697,-3.9697,-3.9697,-3.9697,-3.9697,-3.9697,-3.9697,-3.9848,-4.04,-4.0676,-4.0978,-4.153,-4.2082,-4.2514,-4.2514,-4.2791,-4.2986,-4.2986,-4.2986,-4.2986,-4.2986,-4.2986,-4.2986,-4.2986,-4.2986,-4.2986,-4.2986,-4.2986,-4.2986,-4.2986,-4.2986,-4.2986,-4.2986,-4.2986,-4.2986,-4.2986,-4.2986,-4.2986,-4.2986,-4.2986,-4.2986,-4.2986,-4.2986,-4.2986]},{"header":{"parameterUnit":"m.s-1","parameterCategory":1,"la1":30.6,"la2":29.2853,"lo1":-89.7004,"lo2":-87.6739,"dy":0.0162,"dx":0.0183,"nx":112,"ny":82,"refTime":"2023-05-13T06:00:00:Z","depth":0,"parameterNumber":3,"parameterNumberName":"V-component_of_WINDS"},"data":[0.0,0.0,0.0,0.0,0.0,0.0,0.0,0.0,0.0,0.0,0.0,0.0,0.0,0.0,0.0,0.0,0.0,0.0,0.0,0.0,0.0,0.0,0.0,0.0,0.0,0.0,0.0,0.0,0.0,0.0,0.0,0.0,0.0,0.0,0.0,0.0,0.0,0.0,0.0,0.0,0.0,0.0,0.0,0.0,0.0,0.0,0.0,0.0,0.0,0.0,0.0,0.0,0.0,0.0,0.0,0.0,0.0,0.0,0.0,0.0,0.0,0.0,0.0,0.0,0.0,0.0,0.0,0.0,0.0,0.0,0.0,0.0,0.0,0.0,0.0,0.0,0.0,0.0,0.0,0.0,0.0,0.0,0.0,0.0,0.0,0.0,0.0,0.0,0.0,0.0,2.5606,2.5903,2.7643,2.8253,2.6906,2.7163,2.6223,2.3462,0.0,0.0,0.0,0.0,0.0,0.0,0.0,0.0,0.0,0.0,0.0,0.0,0.0,0.0,0.0,0.0,0.0,0.0,0.0,0.0,0.0,0.0,0.0,0.0,0.0,0.0,0.0,0.0,0.0,0.0,0.0,0.0,0.0,0.0,0.0,0.0,0.0,0.0,0.0,0.0,0.0,0.0,0.0,0.0,0.0,0.0,0.0,0.0,0.0,0.0,0.0,0.0,0.0,0.0,0.0,0.0,0.0,0.0,0.0,0.0,0.0,0.0,0.0,0.0,0.0,0.0,0.0,0.0,0.0,0.0,0.0,0.0,0.0,0.0,0.0,0.0,0.0,0.0,0.0,0.0,0.0,0.0,0.0,0.0,0.0,0.0,0.0,0.0,0.0,0.0,0.0,0.0,0.0,0.0,0.0,0.0,0.0,0.0,0.0,0.0,0.0,0.0,0.0,0.0,2.4543,2.718,2.7772,2.786,2.764,2.6476,2.5304,2.4183,0.0,0.0,0.0,0.0,0.0,0.0,0.0,0.0,0.0,0.0,0.0,0.0,0.0,0.0,0.0,0.0,0.0,0.0,0.0,0.0,0.0,0.0,0.0,0.0,0.0,0.0,0.0,0.0,0.0,0.0,0.0,0.0,0.0,0.0,0.0,0.0,0.0,0.0,0.0,0.0,0.0,0.0,0.0,0.0,0.0,0.0,0.0,0.0,0.0,0.0,0.0,0.0,0.0,0.0,0.0,0.0,0.0,0.0,0.0,0.0,0.0,0.0,0.0,0.0,0.0,0.0,0.0,0.0,0.0,0.0,0.0,0.0,0.0,0.0,0.0,0.0,0.0,0.0,0.0,0.0,0.0,0.0,0.0,0.0,0.0,0.0,0.0,0.0,0.0,0.0,0.0,0.0,0.0,0.0,0.0,0.0,0.0,0.0,0.0,0.0,0.0,0.0,0.0,2.4393,2.4821,2.8106,2.8044,2.7603,2.72,2.6072,2.488,2.3658,2.446,0.0,0.0,0.0,0.0,0.0,0.0,0.0,0.0,0.0,0.0,0.0,0.0,0.0,0.0,0.0,0.0,0.0,0.0,0.0,0.0,0.0,0.0,0.0,0.0,0.0,0.0,0.0,0.0,0.0,0.0,0.0,0.0,0.0,0.0,0.0,0.0,0.0,0.0,0.0,0.0,0.0,0.0,0.0,0.0,0.0,0.0,0.0,0.0,0.0,0.0,0.0,0.0,0.0,0.0,0.0,0.0,0.0,0.0,0.0,0.0,0.0,0.0,0.0,0.0,0.0,0.0,0.0,0.0,0.0,0.0,0.0,0.0,0.0,0.0,0.0,0.0,0.0,0.0,0.0,0.0,0.0,0.0,0.0,0.0,0.0,0.0,0.0,0.0,0.0,0.0,0.0,0.0,0.0,0.0,0.0,0.0,0.0,0.0,0.0,0.0,0.0,0.0,2.5463,2.5557,2.8541,2.8036,2.7273,2.6638,2.5511,2.43,2.3079,2.363,0.0,0.0,0.0,0.0,0.0,0.0,0.0,0.0,0.0,0.0,0.0,0.0,0.0,0.0,0.0,0.0,0.0,0.0,0.0,0.0,0.0,0.0,0.0,0.0,0.0,0.0,0.0,0.0,0.0,0.0,0.0,0.0,0.0,0.0,0.0,0.0,0.0,0.0,0.0,0.0,0.0,0.0,0.0,0.0,0.0,0.0,0.0,0.0,0.0,0.0,0.0,0.0,0.0,0.0,0.0,0.0,0.0,0.0,0.0,0.0,0.0,0.0,0.0,0.0,0.0,0.0,0.0,0.0,0.0,0.0,0.0,0.0,0.0,0.0,0.0,0.0,0.0,0.0,0.0,0.0,0.0,0.0,0.0,0.0,0.0,0.0,0.0,0.0,0.0,0.0,0.0,0.0,0.0,0.0,0.0,0.0,0.0,0.0,0.0,0.0,0.0,0.0,2.5433,2.6609,2.8247,2.7387,2.6638,2.6602,2.4474,2.3116,2.3006,2.3052,0.0,0.0,0.0,0.0,0.0,0.0,0.0,0.0,0.0,0.0,0.0,0.0,0.0,0.0,0.0,0.0,0.0,0.0,0.0,0.0,0.0,0.0,0.0,0.0,0.0,0.0,0.0,0.0,0.0,0.0,0.0,0.0,0.0,0.0,0.0,0.0,0.0,0.0,0.0,0.0,0.0,0.0,0.0,0.0,0.0,0.0,0.0,0.0,0.0,0.0,0.0,0.0,0.0,0.0,0.0,0.0,0.0,0.0,0.0,0.0,0.0,0.0,0.0,0.0,0.0,0.0,0.0,0.0,0.0,0.0,0.0,0.0,0.0,0.0,0.0,0.0,0.0,0.0,0.0,0.0,0.0,0.0,0.0,0.0,0.0,0.0,0.0,0.0,0.0,0.0,0.0,0.0,0.0,0.0,0.0,0.0,0.0,0.0,0.0,0.0,0.0,0.0,2.4764,2.559,0.0,2.6767,2.6392,2.5888,2.4116,2.3226,2.3712,0.0,0.0,0.0,0.0,0.0,0.0,0.0,0.0,0.0,0.0,0.0,0.0,0.0,0.0,0.0,0.0,0.0,0.0,0.0,0.0,0.0,0.0,0.0,0.0,0.0,0.0,0.0,0.0,0.0,0.0,0.0,0.0,0.0,0.0,0.0,0.0,0.0,0.0,0.0,0.0,0.0,0.0,0.0,0.0,0.0,0.0,0.0,0.0,0.0,0.0,0.0,0.0,0.0,0.0,0.0,0.0,0.0,0.0,0.0,0.0,0.0,0.0,0.0,0.0,0.0,0.0,0.0,0.0,0.0,0.0,0.0,0.0,0.0,0.0,0.0,0.0,0.0,0.0,0.0,0.0,0.0,0.0,0.0,0.0,0.0,0.0,0.0,0.0,0.0,0.0,0.0,0.0,0.0,0.0,0.0,0.0,0.0,0.0,0.0,0.0,0.0,0.0,2.3641,2.419,2.4738,0.0,2.6014,2.5784,2.5071,2.3529,2.2978,2.3786,0.0,0.0,0.0,0.0,0.0,0.0,0.0,0.0,0.0,0.0,0.0,0.0,0.0,0.0,0.0,0.0,0.0,0.0,0.0,0.0,0.0,0.0,0.0,0.0,0.0,0.0,0.0,0.0,0.0,0.0,0.0,0.0,0.0,0.0,0.0,0.0,0.0,0.0,0.0,0.0,0.0,0.0,0.0,0.0,0.0,0.0,0.0,0.0,0.0,0.0,0.0,0.0,0.0,0.0,0.0,0.0,0.0,0.0,0.0,0.0,0.0,0.0,0.0,0.0,0.0,0.0,0.0,0.0,0.0,0.0,0.0,0.0,0.0,0.0,0.0,0.0,0.0,0.0,0.0,0.0,0.0,0.0,0.0,0.0,0.0,0.0,0.0,0.0,0.0,0.0,0.0,0.0,0.0,0.0,0.0,0.0,0.0,0.0,0.0,0.0,0.0,0.0,2.3286,2.3812,2.4388,2.538,2.5147,2.4697,2.4244,2.273,2.2143,0.0,0.0,0.0,0.0,0.0,0.0,0.0,0.0,0.0,0.0,0.0,0.0,0.0,0.0,0.0,0.0,0.0,0.0,0.0,0.0,0.0,0.0,0.0,0.0,0.0,0.0,0.0,0.0,0.0,0.0,0.0,0.0,0.0,0.0,0.0,0.0,0.0,0.0,0.0,0.0,0.0,0.0,0.0,0.0,0.0,0.0,0.0,0.0,0.0,0.0,0.0,0.0,0.0,0.0,0.0,0.0,0.0,0.0,0.0,0.0,0.0,0.0,0.0,0.0,0.0,0.0,0.0,0.0,0.0,0.0,0.0,0.0,0.0,0.0,0.0,0.0,0.0,0.0,0.0,0.0,0.0,0.0,0.0,0.0,0.0,0.0,0.0,0.0,0.0,0.0,0.0,0.0,0.0,0.0,0.0,0.0,0.0,0.0,0.0,0.0,0.0,0.0,0.0,2.2533,2.3447,2.3968,2.3908,2.4478,2.4469,2.3427,2.2942,2.242,2.1963,0.0,0.0,0.0,0.0,0.0,0.0,0.0,0.0,0.0,0.0,0.0,0.0,0.0,0.0,0.0,0.0,0.0,0.0,0.0,0.0,0.0,0.0,0.0,0.0,0.0,0.0,0.0,0.0,0.0,0.0,0.0,0.0,0.0,0.0,0.0,0.0,0.0,0.0,0.0,0.0,0.0,0.0,0.0,0.0,0.0,0.0,0.0,0.0,0.0,0.0,0.0,0.0,0.0,0.0,0.0,0.0,0.0,0.0,0.0,0.0,0.0,0.0,0.0,0.0,0.0,0.0,0.0,0.0,0.0,0.0,0.0,0.0,0.0,0.0,0.0,0.0,0.0,0.0,0.0,0.0,0.0,0.0,0.0,0.0,0.0,0.0,0.0,0.0,0.0,0.0,0.0,0.0,0.0,0.0,0.0,0.0,0.0,0.0,0.0,0.0,0.0,0.0,2.2192,2.289,2.3244,2.3007,2.372,2.3837,2.2863,2.2914,2.2758,2.2136,0.0,0.0,0.0,0.0,0.0,0.0,0.0,0.0,0.0,0.0,0.0,0.0,0.0,0.0,0.0,0.0,0.0,0.0,0.0,0.0,0.0,0.0,0.0,0.0,0.0,0.0,0.0,0.0,0.0,0.0,0.0,0.0,0.0,0.0,0.0,0.0,0.0,0.0,0.0,0.0,0.0,0.0,0.0,0.0,0.0,0.0,0.0,0.0,0.0,0.0,0.0,0.0,0.0,0.0,0.0,0.0,0.0,0.0,0.0,0.0,0.0,0.0,0.0,0.0,0.0,0.0,0.0,0.0,0.0,0.0,0.0,0.0,0.0,0.0,0.0,0.0,0.0,0.0,0.0,0.0,0.0,0.0,0.0,0.0,0.0,0.0,0.0,0.0,0.0,0.0,0.0,0.0,0.0,0.0,0.0,0.0,0.0,0.0,0.0,0.0,0.0,0.0,2.2212,2.2313,2.2398,2.2656,2.3009,2.3021,2.254,2.2892,2.3043,2.2878,0.0,0.0,0.0,0.0,0.0,0.0,0.0,0.0,0.0,0.0,0.0,0.0,0.0,0.0,0.0,0.0,0.0,0.0,0.0,0.0,0.0,0.0,0.0,0.0,0.0,0.0,0.0,0.0,0.0,0.0,0.0,0.0,0.0,0.0,0.0,0.0,0.0,0.0,0.0,0.0,0.0,0.0,0.0,0.0,0.0,0.0,0.0,0.0,0.0,0.0,0.0,0.0,0.0,0.0,0.0,0.0,0.0,0.0,0.0,0.0,2.6549,0.0,0.0,0.0,0.0,0.0,0.0,0.0,0.0,0.0,0.0,0.0,0.0,0.0,0.0,0.0,0.0,0.0,0.0,0.0,0.0,0.0,0.0,0.0,0.0,0.0,0.0,0.0,0.0,0.0,0.0,0.0,0.0,0.0,0.0,0.0,0.0,0.0,0.0,0.0,0.0,0.0,2.2279,2.2313,2.2398,2.2656,2.3009,2.3021,2.254,2.3376,2.3345,2.1917,2.2978,0.0,0.0,0.0,0.0,0.0,0.0,0.0,0.0,0.0,0.0,0.0,0.0,0.0,0.0,0.0,0.0,0.0,0.0,0.0,0.0,0.0,0.0,0.0,0.0,0.0,0.0,0.0,0.0,0.0,0.0,0.0,0.0,0.0,0.0,0.0,0.0,0.0,0.0,0.0,0.0,0.0,0.0,0.0,0.0,0.0,0.0,0.0,0.0,0.0,0.0,0.0,0.0,0.0,0.0,0.0,0.0,0.0,0.0,0.0,0.0,2.6498,0.0,0.0,0.0,0.0,0.0,0.0,0.0,0.0,0.0,0.0,0.0,0.0,0.0,0.0,0.0,0.0,0.0,0.0,0.0,0.0,0.0,0.0,0.0,0.0,0.0,0.0,0.0,0.0,0.0,0.0,0.0,0.0,0.0,0.0,0.0,0.0,0.0,0.0,0.0,0.0,2.2361,2.2313,2.2363,2.2487,2.2794,2.2952,2.285,2.351,2.3631,2.284,2.3251,0.0,0.0,0.0,0.0,0.0,0.0,0.0,0.0,0.0,0.0,0.0,0.0,0.0,0.0,0.0,0.0,0.0,0.0,0.0,0.0,0.0,0.0,0.0,0.0,0.0,0.0,0.0,0.0,0.0,0.0,0.0,0.0,0.0,0.0,0.0,0.0,0.0,0.0,0.0,0.0,0.0,0.0,0.0,0.0,0.0,0.0,0.0,0.0,0.0,0.0,0.0,0.0,0.0,3.4244,3.4248,3.3129,3.373,3.3565,3.265,3.0617,2.8641,2.6893,2.6744,0.0,0.0,0.0,0.0,0.0,0.0,0.0,0.0,0.0,0.0,0.0,0.0,0.0,0.0,0.0,0.0,0.0,0.0,0.0,0.0,0.0,0.0,0.0,0.0,2.9149,2.9013,2.81,0.0,0.0,0.0,0.0,0.0,0.0,0.0,0.0,0.0,0.0,0.0,2.255,2.2381,2.2347,2.2482,2.2623,2.281,2.3093,2.3432,2.3764,2.4075,2.3393,2.2946,0.0,0.0,0.0,0.0,0.0,0.0,0.0,0.0,0.0,0.0,0.0,0.0,0.0,0.0,0.0,0.0,0.0,0.0,0.0,0.0,0.0,0.0,0.0,0.0,0.0,0.0,0.0,0.0,0.0,0.0,0.0,0.0,3.0805,3.0126,0.0,0.0,0.0,0.0,0.0,0.0,0.0,0.0,0.0,0.0,0.0,0.0,0.0,3.1133,3.1695,3.4014,3.4867,3.4282,3.7528,3.8662,3.7898,3.7964,3.7958,3.7754,3.6109,0.0,2.8926,2.8178,0.0,0.0,0.0,0.0,0.0,0.0,0.0,0.0,0.0,0.0,0.0,0.0,0.0,0.0,0.0,0.0,0.0,0.0,0.0,0.0,0.0,0.0,3.3191,3.132,3.1354,3.1576,0.0,2.8057,2.5799,2.62,2.5967,0.0,0.0,0.0,0.0,0.0,0.0,0.0,2.3274,2.2699,2.2564,2.3173,2.2932,2.2721,2.2759,2.3081,2.3421,2.3753,2.3645,2.3361,2.2837,2.2396,0.0,0.0,0.0,0.0,0.0,0.0,0.0,0.0,0.0,0.0,0.0,0.0,0.0,0.0,0.0,0.0,0.0,0.0,0.0,0.0,0.0,0.0,0.0,0.0,0.0,0.0,0.0,0.0,0.0,3.0843,3.0792,2.8717,3.018,3.0791,0.0,0.0,0.0,0.0,0.0,0.0,0.0,0.0,0.0,3.2402,3.3247,3.4321,3.5646,3.7498,3.8465,3.8559,4.0219,4.0617,3.9847,3.9971,3.9744,3.9298,3.8175,3.6054,3.3316,3.1833,3.0219,2.8784,0.0,0.0,0.0,0.0,3.1783,3.2066,3.3612,3.3758,3.3205,3.2725,0.0,0.0,0.0,0.0,0.0,0.0,0.0,0.0,0.0,0.0,3.4667,3.4428,3.4235,3.4066,3.3761,3.1314,2.8889,0.0,2.7019,2.6621,2.6383,0.0,0.0,0.0,0.0,2.4492,2.4068,2.3729,2.3661,2.4,2.3454,2.3158,2.3361,2.3079,2.3057,2.3421,2.3432,2.3312,2.3045,2.2774,2.2729,0.0,0.0,0.0,0.0,0.0,0.0,0.0,0.0,0.0,0.0,0.0,0.0,0.0,0.0,0.0,0.0,0.0,0.0,0.0,0.0,0.0,0.0,0.0,0.0,0.0,0.0,0.0,0.0,3.1131,3.1052,2.7996,3.0479,3.1504,0.0,0.0,0.0,0.0,0.0,0.0,3.3422,3.3102,3.3574,3.5175,3.6221,3.7575,3.9293,4.0295,4.1095,4.1661,4.1964,4.1718,4.0989,4.1053,4.0705,3.9945,3.8984,3.8108,3.7157,3.4698,3.2924,3.1865,3.249,3.2843,3.3112,3.3771,3.4039,3.427,3.5498,3.5664,3.5252,3.4374,3.385,3.3238,3.1262,0.0,0.0,0.0,0.0,3.3472,3.4442,3.5188,3.5914,3.6871,3.6772,3.6411,3.6208,3.4573,3.2414,0.0,2.871,2.7925,2.7263,0.0,0.0,0.0,0.0,2.5676,2.5117,2.4745,2.4575,2.4778,2.4135,2.3765,2.4038,2.3481,2.3297,2.3631,2.3656,2.3693,2.3766,2.3578,2.3676,2.4203,0.0,0.0,0.0,0.0,0.0,0.0,0.0,0.0,0.0,0.0,0.0,0.0,0.0,0.0,0.0,0.0,0.0,0.0,0.0,0.0,0.0,0.0,0.0,0.0,0.0,0.0,0.0,0.0,0.0,2.9676,3.2835,0.0,0.0,0.0,0.0,3.3295,3.4148,3.4878,3.5314,3.645,3.7738,3.908,3.9805,4.0531,4.125,4.1318,4.1385,4.1415,4.2241,4.2302,4.1651,4.1651,4.1283,4.0569,3.9061,3.8793,3.9131,3.5152,3.2736,3.1414,3.0238,3.0256,3.1024,3.2237,3.3608,3.5034,3.6295,3.6705,3.6736,3.7017,3.6216,3.4984,3.3914,3.3851,0.0,0.0,3.4326,3.5222,3.6375,3.7188,3.7773,3.7831,3.8362,3.8633,3.7956,3.6546,3.4754,0.0,3.0934,2.9935,2.9901,0.0,2.8552,2.779,2.7097,2.6623,2.659,2.5354,2.4778,2.5473,2.4864,2.4455,2.4471,2.4437,2.4554,2.4884,2.4912,2.5052,2.5363,2.5066,2.4587,2.3942,2.3594,0.0,0.0,0.0,0.0,0.0,0.0,0.0,0.0,0.0,0.0,0.0,0.0,0.0,0.0,0.0,0.0,0.0,0.0,0.0,0.0,0.0,0.0,0.0,0.0,0.0,0.0,0.0,0.0,3.3784,3.6576,0.0,3.4636,3.5061,3.5819,3.6569,3.6559,3.7327,3.917,3.932,3.9948,4.1265,4.1572,4.1983,4.2641,4.2641,4.2641,4.2641,4.2538,4.2152,4.1485,4.1061,4.0516,3.9814,3.9283,3.8958,3.8724,3.7241,3.674,3.6808,3.6336,3.6069,3.6031,3.6945,3.7373,3.7606,3.8571,3.8928,3.8802,3.798,3.6678,3.5418,3.5071,3.5395,3.5847,3.5776,3.6653,3.7711,3.8101,3.8734,3.9334,3.9334,3.914,3.8937,3.8667,3.7821,3.6705,3.5441,3.3207,3.1515,3.1515,3.0514,2.96,2.9311,2.8653,2.8197,2.8197,2.7266,2.6708,2.6979,2.5931,2.5203,2.5203,2.4778,2.4535,2.4671,2.4671,2.4731,2.4864,2.521,2.5255,2.4997,2.5809,2.5304,0.0,0.0,0.0,0.0,0.0,0.0,0.0,0.0,0.0,0.0,0.0,0.0,0.0,0.0,0.0,0.0,0.0,0.0,0.0,0.0,0.0,0.0,0.0,0.0,0.0,0.0,3.7785,3.6863,3.9487,4.0367,3.7734,3.8063,3.8846,3.9715,3.9738,4.0516,4.2282,4.2162,4.2462,4.3369,4.3189,4.324,4.3618,4.3409,4.329,4.329,4.288,4.2342,4.1722,4.1025,4.0367,3.9738,3.9529,3.917,3.8751,3.8751,3.9082,3.9622,3.9503,3.9309,3.9257,4.0046,4.02,4.0067,4.0373,4.0316,3.9943,3.8937,3.7956,3.711,3.711,3.7483,3.7912,3.7912,3.8623,3.9368,3.9368,3.974,4.0113,4.0113,3.974,3.9368,3.9368,3.8802,3.8125,3.7642,3.5306,3.3322,3.3106,3.1799,3.0813,3.0681,2.995,2.9327,2.9233,2.8614,2.8213,2.8213,2.7097,2.6336,2.6336,2.5879,2.5507,2.5252,2.5489,2.5523,2.5252,2.571,2.5981,2.5981,2.7181,2.6843,2.4898,0.0,0.0,0.0,0.0,0.0,0.0,0.0,0.0,0.0,0.0,0.0,0.0,0.0,0.0,0.0,0.0,0.0,0.0,0.0,0.0,0.0,0.0,0.0,3.587,3.8177,3.9383,3.8633,4.1436,4.2423,3.9852,4.1354,4.253,4.253,4.3629,4.4347,4.4377,4.4975,4.5304,4.5304,4.4646,4.4317,4.4317,4.3618,4.329,4.329,4.329,4.3,4.2381,4.1752,4.1055,4.0397,3.9738,3.9439,3.9439,3.9403,3.9409,3.9397,3.89,3.9188,3.9993,4.0889,4.1627,4.2158,4.1474,4.073,4.0087,4.0113,4.0113,4.0113,4.0113,4.0113,4.0113,4.0113,4.0113,4.0113,4.0113,4.0113,4.0113,4.0113,4.0113,4.0113,4.0113,3.9537,3.9039,3.9005,3.7212,3.543,3.4709,3.3343,3.2259,3.1947,3.0925,0.0,2.9749,2.9311,2.9077,2.9044,2.8315,2.7858,2.7858,2.7824,2.7486,2.6759,2.7384,2.7452,2.6725,2.6691,2.6725,2.6759,2.7452,2.7824,2.7858,0.0,0.0,0.0,0.0,0.0,0.0,0.0,0.0,0.0,0.0,0.0,0.0,0.0,0.0,0.0,0.0,0.0,0.0,0.0,0.0,0.0,0.0,3.5615,3.6415,3.9081,4.1171,4.1947,4.4507,4.5753,4.4515,4.4915,4.5244,4.5244,4.5095,4.5244,4.5711,4.5454,4.5304,4.5304,4.4646,4.4317,4.4317,4.3618,4.329,4.329,4.329,4.3,4.2381,4.2201,4.1782,4.1085,4.0427,4.0127,4.0098,3.9619,3.9773,4.0278,3.949,3.9416,3.9847,4.067,4.1135,4.1355,4.1257,4.0635,3.996,4.007,4.0113,4.0113,4.0113,4.0113,4.0113,4.0113,4.0113,4.0113,4.0113,4.0113,4.0113,4.0113,4.0113,4.0113,4.0113,3.9943,3.9639,3.9106,3.8058,3.7043,3.6288,3.49,3.3842,3.3756,3.3022,0.0,3.1631,3.0982,3.0378,2.9837,2.9127,2.8653,2.8653,2.8128,2.7722,2.7519,2.7199,2.6894,2.6691,2.6691,2.725,2.8367,2.801,2.8365,0.0,0.0,0.0,0.0,0.0,0.0,0.0,0.0,0.0,0.0,0.0,0.0,0.0,0.0,0.0,0.0,0.0,0.0,0.0,0.0,0.0,0.0,3.6217,3.7579,3.7892,3.978,4.1708,4.3274,4.527,4.6359,4.5976,4.641,4.6741,4.6741,4.6352,4.6322,4.6711,4.6352,4.6142,4.6142,4.5514,4.5155,4.5155,4.4186,4.3708,4.3708,4.3409,4.315,4.2761,4.253,4.2201,4.1782,4.1085,4.0816,4.0756,4.0098,4.0124,0.0,0.0,0.0,0.0,0.0,4.1206,4.0981,4.1054,4.0352,3.9451,3.9534,3.9581,3.961,3.961,3.985,4.0113,4.0113,4.0113,4.0113,4.0113,4.0113,4.0113,4.0113,4.0113,4.0113,4.0113,4.0113,3.9977,3.9512,3.887,0.0,3.7811,3.5926,3.4462,3.4297,3.3777,3.3212,3.2614,3.2023,3.1515,3.1055,3.0074,2.9465,2.9465,2.9025,0.0,0.0,0.0,2.7977,2.769,2.7656,0.0,0.0,0.0,2.9514,3.1021,0.0,0.0,0.0,2.8682,2.7979,0.0,0.0,0.0,0.0,0.0,0.0,0.0,0.0,0.0,0.0,0.0,0.0,0.0,0.0,0.0,0.0,3.8491,3.9661,3.9877,4.0461,4.1488,4.3177,4.4648,4.5504,4.5504,4.658,4.7309,4.7309,4.7309,4.7309,4.7309,0.0,0.0,0.0,0.0,4.6279,4.6279,4.5065,4.4377,4.4317,4.3678,4.3349,4.326,4.2731,4.25,4.247,4.1811,4.1542,4.1482,4.0786,4.0457,4.0447,4.0624,4.1164,4.1885,4.1949,4.1502,4.0896,4.0895,0.0,0.0,3.8916,3.8901,3.8903,3.8903,3.9382,3.9952,3.9952,4.0003,4.0113,4.0113,4.0113,4.0113,4.0113,4.0113,4.0113,4.0113,4.0113,4.0113,4.0113,3.9478,3.9005,3.9005,3.6637,3.4688,3.4465,3.3994,3.3553,3.3217,3.2816,3.2496,3.2327,0.0,0.0,3.0243,3.0156,2.9837,2.9179,2.9668,2.9668,2.9044,2.9077,2.945,3.0108,3.0176,3.0852,3.2192,3.2259,3.2259,3.209,2.8822,2.8028,0.0,0.0,0.0,0.0,0.0,0.0,0.0,0.0,0.0,0.0,0.0,0.0,0.0,0.0,0.0,3.7964,3.9365,4.0458,4.0927,4.1115,4.1568,4.2481,4.4654,4.6074,4.6074,4.6801,4.7309,4.7309,4.7309,4.7309,4.7309,4.7309,4.7309,4.7309,4.6681,4.6279,4.6279,4.5514,4.4855,4.4317,0.0,0.0,4.329,4.317,4.315,4.312,4.2462,4.2201,4.2141,4.1474,4.0876,4.0447,4.0624,4.0826,4.1062,4.1723,4.1464,4.0747,4.0833,4.0261,3.9464,3.9594,3.926,3.883,3.883,3.8954,0.0,3.9123,3.961,4.0113,4.0113,4.0113,4.0113,4.0113,4.0113,4.0113,4.0113,4.0113,4.0113,4.0113,3.9478,3.9005,3.9005,3.754,3.6535,3.705,3.6016,3.5138,3.5071,3.4496,3.3613,3.2429,3.2056,3.163,3.1021,3.0446,3.004,2.9905,2.9465,2.9145,2.901,2.9567,2.9973,3.0108,3.0683,3.1123,3.1393,3.2022,3.1989,3.1413,3.1278,3.1075,0.0,0.0,0.0,0.0,0.0,0.0,0.0,0.0,0.0,0.0,0.0,3.5719,0.0,0.0,3.82,3.9674,4.074,4.143,4.1706,4.1756,4.1799,4.1825,4.3543,4.4572,4.4318,4.5774,4.6651,4.6373,4.6931,4.7309,4.7309,4.7309,4.7309,4.7309,4.698,4.68,4.68,4.6142,4.5633,4.5304,4.4646,4.4137,4.3768,4.3439,4.329,4.326,4.3,4.2851,4.2791,4.2132,4.1294,4.0404,4.0521,4.0335,4.0095,4.055,4.0413,4.0139,4.0653,4.031,3.967,3.972,3.9564,3.9328,3.9328,3.9376,3.9462,3.9934,4.0068,4.0113,4.0113,4.0113,4.0113,4.0113,4.0113,4.0113,4.0113,4.0113,4.0113,4.0113,3.9808,3.9571,3.9571,3.8623,3.7777,3.7415,3.6705,3.6062,3.5633,3.4979,3.4223,3.3478,3.3051,3.2713,3.2341,3.1968,3.1765,3.1765,3.1055,3.0838,3.119,3.119,3.136,3.1745,3.2104,3.2476,3.2848,3.3241,3.3186,3.2848,3.3241,3.2801,0.0,0.0,0.0,0.0,0.0,0.0,0.0,0.0,3.5515,3.5451,3.6515,3.7417,3.7432,3.8356,3.9601,4.1053,4.1806,4.2162,4.2062,4.2062,4.1831,4.1351,4.2422,4.3148,4.2977,4.4905,4.6137,4.5966,4.6815,4.7309,4.7309,4.7309,4.7309,4.7309,4.7309,4.7309,4.7309,4.677,4.6441,4.6279,4.5173,4.4646,4.4496,4.3798,4.3469,4.3469,4.3349,4.329,4.323,4.2641,4.1782,4.0756,4.0636,4.0277,3.9768,3.9529,3.9373,3.9517,4.0205,4.0078,3.965,3.965,3.9618,3.9629,3.9629,3.9732,4.002,4.0561,4.0523,4.0282,4.0146,4.0113,4.0113,4.0113,4.0113,4.0113,4.0113,4.0113,4.0113,4.0113,4.0113,4.0113,4.0113,3.9605,3.8802,3.7608,3.7202,3.684,3.6332,3.5487,3.4878,3.4709,3.4066,3.3558,3.3423,3.3423,3.3423,3.3423,3.2848,3.278,3.3389,3.2814,3.278,3.3389,3.3423,3.3694,3.4269,3.4438,3.4438,3.4303,3.4438,3.3783,3.4364,3.4371,3.4958,3.5708,3.5896,3.6647,0.0,0.0,3.9143,3.9754,3.9999,3.9954,3.9498,4.0277,4.1053,4.125,4.1806,4.2037,4.1505,4.1376,4.1351,4.13,4.2422,4.369,4.4869,4.5731,4.6708,4.7882,4.7551,4.7309,4.7309,4.7309,4.7309,4.7309,4.7309,4.7309,4.7309,4.7249,4.689,4.6279,4.613,4.5783,4.5155,4.4496,4.4197,4.4167,4.3559,4.329,4.323,4.2641,4.2321,4.2111,4.1542,4.1235,4.1025,3.9858,3.9373,3.9409,3.9517,3.9493,3.9433,3.9433,3.9023,3.8555,3.8555,3.9209,3.9796,3.9245,4.0018,4.0933,4.0282,4.0113,4.0113,4.0113,4.0113,4.0113,4.0113,4.0113,4.0113,4.0113,4.0113,4.0113,4.0113,4.0045,3.991,3.9774,3.8599,3.799,3.8531,3.7381,3.6265,3.5532,3.481,3.41,3.3457,3.3423,3.3423,3.3423,3.3322,3.3322,3.3423,3.3322,3.3322,3.3423,3.3423,3.3457,3.3525,3.4167,3.4167,3.3558,3.4201,3.4066,3.7458,3.6916,3.6641,0.0,3.8408,3.9057,3.9354,3.9629,3.9881,4.0029,4.0817,4.1648,4.2214,4.2325,4.2431,0.0,4.2554,4.1957,4.1351,4.1,4.0752,4.0425,4.1802,4.2678,4.2524,4.4065,4.4872,4.4442,4.5487,4.6211,4.6211,4.6931,4.7309,4.7309,4.7309,4.7309,4.7309,4.7309,4.716,4.689,4.6501,4.613,4.5873,4.4796,4.4107,4.3678,4.3409,4.329,4.326,4.303,4.2701,4.2381,4.2081,4.1752,4.1265,4.0337,3.9978,3.9991,4.0142,4.0135,4.0135,4.0135,3.9986,3.9742,3.9742,3.9725,3.985,4.0582,4.0926,4.1149,4.1336,4.1035,4.073,4.073,4.0417,4.0113,4.0113,4.0113,4.0113,4.0113,4.0113,4.0113,4.0113,4.0113,4.0113,4.0113,3.9208,3.8497,3.8396,3.7821,3.7313,3.6975,3.6671,3.6366,3.6062,3.6028,3.6028,3.6028,3.516,3.4912,3.5351,3.4506,3.4235,3.4653,3.5148,3.5148,3.4687,3.5453,3.5419,3.4687,3.5487,3.5656,3.8245,3.7945,0.0,3.881,4.0142,4.094,3.9829,4.0409,4.0952,4.0507,4.1455,4.2751,4.3756,4.3431,4.321,4.3651,4.2991,4.2087,4.1031,4.0763,4.0567,4.0007,4.1591,4.21,4.067,4.3148,4.4462,4.354,4.5189,4.6117,4.5913,4.6948,4.7489,4.7309,4.7309,4.7309,4.7309,4.7309,4.7309,4.7309,4.683,4.6591,4.6561,4.5214,4.4137,4.329,4.329,4.329,4.329,4.329,4.306,4.2641,4.2641,4.2342,4.1833,4.1175,4.0816,4.0688,4.0619,4.062,4.0589,4.0405,4.0343,4.0343,4.0343,4.0143,4.0181,4.1486,4.1602,4.146,4.2132,4.188,4.1508,4.1508,4.0933,4.0417,4.0417,4.0248,4.0113,4.0113,4.0113,4.0113,4.0113,4.0113,4.0113,4.0113,3.9673,3.9106,3.8565,3.8328,3.8125,3.7922,3.7922,3.7922,3.7922,3.7922,3.7922,3.7922,3.685,3.6502,3.71,3.6028,3.569,3.6208,3.6806,3.6806,3.6242,3.6806,3.6806,3.6242,3.684,3.71,3.4358,3.5554,3.7249,3.8254,3.9928,4.1433,4.199,4.2916,4.3419,4.2363,4.2615,4.3051,4.3206,4.3204,4.3046,4.2569,4.2887,4.2372,4.008,4.0719,4.1182,4.0657,4.2232,4.2666,0.0,4.3962,4.6662,4.8015,4.8148,4.7924,4.7296,4.7908,4.7967,4.7339,4.7309,4.7309,4.7309,4.7309,4.7309,4.7309,4.7279,4.7279,4.7219,4.5873,4.4556,4.329,4.329,4.329,4.329,4.329,4.329,4.326,4.326,4.326,4.317,4.259,4.1931,4.1302,4.0643,4.0404,4.0284,3.9655,3.9445,3.9445,3.9445,3.9995,4.0707,4.0896,4.1543,4.2179,4.2267,4.2286,4.2252,4.2252,4.1711,4.117,4.117,4.0595,4.0113,4.0113,4.0113,4.0113,4.0113,4.0113,4.0113,4.0113,4.0079,4.0079,4.0045,3.9436,3.87,3.799,3.7922,3.7922,3.7922,3.7922,3.7922,3.7922,3.7855,3.7855,3.7889,3.7821,3.7821,3.7855,3.7855,3.7855,3.7855,3.7855,3.7855,3.7855,3.7855,3.7889,3.7034,3.8256,3.9808,4.1531,4.246,4.3011,4.3212,4.3263,4.2936,4.1831,4.1381,4.1383,4.1968,4.195,4.1848,4.1822,4.2252,4.1904,3.9979,4.0665,4.0746,3.9038,4.1179,0.0,0.0,0.0,0.0,4.3923,4.5802,4.6924,4.6719,4.7718,4.8177,4.7967,4.7549,4.7309,4.7309,4.7309,4.7309,4.7309,4.7309,4.707,4.6651,4.6172,4.5244,4.4018,4.4436,4.4137,4.3319,4.3768,4.3678,4.329,4.329,4.329,4.326,4.309,4.2851,4.2521,4.1414,4.1055,4.1025,4.0786,4.0427,4.0157,4.0576,4.0618,4.0634,4.1261,4.1641,4.1881,4.2062,4.2169,4.2214,4.2214,4.207,4.1914,4.1914,4.1711,4.1407,4.0933,4.0832,4.0663,4.018,4.0113,4.0113,4.0113,4.0113,4.0113,4.0113,3.9876,3.9639,3.9402,3.9343,3.9343,3.9343,3.9343,3.9343,3.9343,3.8903,3.8633,3.8633,3.8159,3.7922,3.7922,3.8396,3.8396,3.7922,3.8396,3.8396,3.7922,3.8396,3.8633,3.9407,4.0695,4.2056,4.3607,4.4198,4.4342,4.4141,4.3514,4.2559,4.1053,4.0159,3.9775,4.0175,3.9953,3.987,4.0399,4.0815,4.0766,3.9804,4.0797,4.1073,3.9416,4.193,4.2998,0.0,0.0,0.0,4.242,4.5468,4.7107,4.646,4.782,4.8536,4.8297,4.7638,4.7309,4.7309,4.7309,4.7309,4.7309,4.7309,4.695,4.6279,4.6279,4.5723,4.4676,4.5095,4.4825,4.4047,4.4227,4.4077,4.3618,4.3379,4.329,4.329,4.329,4.329,4.314,4.2102,4.1782,4.1722,4.1482,4.1085,4.0816,4.1265,4.0935,4.0611,4.1735,4.186,4.1856,4.255,4.2841,4.2963,4.2963,4.2846,4.2692,4.2692,4.2489,4.2083,4.1339,4.1204,4.0967,4.0248,4.0113,4.0113,4.0113,4.0113,4.0113,4.0113,4.0113,4.0113,4.0113,4.0113,4.0113,4.0113,4.0113,4.0113,4.0113,3.9673,3.9402,3.9402,3.8937,3.87,3.87,3.914,3.914,3.87,3.914,3.914,3.87,3.9174,3.9402,4.133,4.2721,4.3919,4.4572,4.5095,4.5271,4.4727,4.3702,4.2217,4.0079,3.8948,3.8232,0.0,0.0,3.7492,3.8391,3.8894,3.9241,3.9567,4.1194,4.2112,0.0,0.0,0.0,0.0,0.0,0.0,4.3776,0.0,4.8504,4.6715,4.8338,4.906,4.8416,4.7728,4.7369,4.7369,4.7309,4.7309,4.7309,4.7309,4.698,4.6339,4.6339,4.5992,4.5334,4.5394,4.5364,4.5244,4.4646,4.4377,4.4257,4.3589,4.3319,4.329,4.329,4.329,4.32,4.2611,4.244,4.2351,4.1722,4.1474,4.1482,4.1474,4.1025,4.0791,4.2283,4.2221,4.2062,4.3493,4.401,4.416,4.416,4.3768,4.3388,4.3388,4.2868,4.2185,4.1474,4.1271,4.0967,4.0248,4.0113,4.0113,4.0113,4.0113,4.0113,4.0113,4.0113,4.0113,4.0113,4.0113,4.0113,4.0113,4.0113,4.0113,4.0113,4.0113,4.0113,4.0113,4.0113,4.0113,4.0113,4.0113,4.0113,4.0113,4.0113,4.0113,4.0113,4.0113,4.0113,4.2947,4.4509,4.6247,4.6436,4.5673,4.48,4.4716,4.2475,4.0109,3.9089,3.7494,3.5952,0.0,0.0,0.0,3.7731,4.0203,0.0,4.0972,4.1974,0.0,4.2356,0.0,4.4546,4.4124,4.6099,0.0,0.0,4.7678,4.9313,4.9215,4.9699,4.9867,4.9687,4.8626,4.8027,4.8027,4.7549,4.7309,4.7309,4.7309,4.7219,4.707,4.707,4.6681,4.6082,4.6591,4.6232,4.5334,4.5663,4.5173,4.4287,4.4137,4.3738,4.329,4.329,4.329,4.326,4.315,4.309,4.306,4.288,4.2491,4.2231,4.2701,4.2372,4.197,4.2349,4.2334,4.2198,4.2088,4.2204,4.2367,4.2367,4.2877,4.3322,4.3322,4.3685,4.3775,4.2997,4.1948,4.0967,4.0248,4.0113,4.0113,4.0113,4.0113,4.0113,4.0113,4.0113,4.0113,4.0113,4.0113,4.0113,4.0113,4.0113,4.0113,4.0113,4.0113,4.0113,4.0113,4.0113,4.0113,4.0113,4.0113,4.0113,4.0113,4.0113,4.0113,4.0113,4.0113,4.0113,4.6449,4.7574,4.8717,4.7716,4.6024,4.4478,4.4009,4.1378,3.8734,3.7609,3.5924,0.0,3.3106,3.4433,0.0,0.0,0.0,0.0,4.115,4.2283,4.3281,0.0,4.5673,0.0,4.6256,4.822,4.8997,0.0,4.8879,4.9594,4.9363,4.9889,5.0196,5.0196,4.8955,4.8147,4.7848,4.7489,4.7309,4.7309,4.7309,4.7309,4.7309,4.7309,4.71,4.677,0.0,4.689,4.6172,4.6292,4.5873,4.5125,4.4556,4.4077,4.3678,4.3409,4.329,4.329,4.329,4.329,4.329,4.329,4.309,4.2851,4.32,4.288,4.247,4.2701,4.262,4.2381,4.2252,4.2399,4.2478,4.22,4.2973,4.3655,4.3388,4.3977,4.435,4.3572,4.2489,4.1441,4.0696,4.0857,4.0857,4.0214,4.0654,4.0823,4.018,4.0113,4.0113,4.0113,4.0113,4.0113,4.0113,4.0113,4.0113,4.0113,4.0113,4.0113,4.0113,4.0113,4.0113,4.0113,4.0113,4.0113,4.0113,4.0113,4.0113,4.0113,4.0113,4.0113,5.0188,5.0559,5.062,4.8432,4.62,4.4124,4.284,4.0297,3.7651,3.5976,0.0,3.3121,3.2048,3.2275,3.3123,3.4817,0.0,3.8018,4.1209,4.2653,4.4037,4.5869,4.8326,4.9545,4.8749,5.0814,5.1738,5.0524,5.0375,4.9868,4.874,4.9727,5.0285,5.0196,4.9045,4.8087,4.7429,4.7339,4.7309,4.7309,4.7309,4.7309,4.7309,4.7309,4.7309,4.7309,4.7309,4.7309,4.7249,4.6681,4.6411,4.616,4.5035,4.4526,4.4377,4.3768,4.3559,4.3529,4.3439,4.3409,4.3409,4.3319,4.329,4.329,4.329,4.294,4.265,4.314,4.291,4.2611,4.314,4.3411,4.3377,4.2792,4.3373,4.3938,4.3373,4.3985,4.435,4.3572,4.2895,4.2219,4.1474,4.188,4.1873,4.0587,4.1474,4.1779,4.0417,4.0248,4.0214,4.0113,4.0113,4.0113,4.0113,4.0113,4.0113,4.0113,4.0113,4.0113,4.0113,4.0113,4.0113,4.0113,4.0113,4.0028,3.9927,3.9927,3.9927,3.9927,3.9927,3.9978,5.0778,5.0406,5.0128,4.8322,4.5899,4.3462,4.1714,3.8708,0.0,0.0,3.3642,3.2464,3.1694,3.2964,3.4898,3.7272,3.9222,4.1321,4.3888,0.0,4.5101,0.0,0.0,0.0,0.0,0.0,0.0,0.0,0.0,5.0956,5.0691,5.0909,5.0764,5.0196,4.9494,4.882,4.8117,4.7578,4.7309,4.7309,4.7309,4.7309,4.7309,4.7309,4.7309,4.7309,4.7309,0.0,4.7309,4.7189,4.68,4.6249,4.601,4.5633,4.5095,4.5005,4.4945,4.4885,4.4347,4.4137,4.4047,4.3469,4.329,4.329,4.329,4.323,4.314,4.326,4.32,4.314,4.326,4.2968,4.2582,4.2461,4.2744,4.2994,4.3038,4.3869,4.435,4.3572,4.3301,4.2963,4.2219,4.2219,4.2185,4.1948,4.2117,4.1982,4.1136,4.1001,4.0764,4.018,4.0113,4.0113,4.0113,4.0113,4.0113,4.0113,4.0113,4.0113,4.0113,4.0113,4.0113,4.0113,4.0113,3.9765,3.9129,3.9129,3.9129,3.9129,3.9129,3.9447,5.3825,5.3243,5.2634,4.9241,4.5849,4.2805,4.0542,0.0,0.0,0.0,3.2677,3.1869,3.157,3.2637,0.0,3.5581,3.7552,3.976,0.0,0.0,0.0,0.0,0.0,0.0,0.0,0.0,0.0,0.0,0.0,5.1588,5.1229,5.1229,5.0853,5.0226,4.9613,4.9,4.8297,4.7638,4.7309,4.7309,4.7309,4.7309,4.7309,4.7309,4.7309,4.7309,4.7309,4.7309,4.7309,4.7309,4.713,4.68,4.6471,4.6112,4.5783,4.5424,4.5304,4.5244,4.4945,4.4825,4.4766,4.4466,4.3898,4.329,4.329,4.329,4.329,4.329,4.329,4.329,4.329,4.312,4.2791,4.247,4.2558,4.2868,4.3557,4.4083,4.434,4.4063,4.4012,4.3775,4.2997,4.32,4.3227,4.2422,4.2963,4.3091,4.1914,4.2117,4.1779,4.0282,4.0113,4.0113,4.0113,4.0113,4.0113,4.0113,4.0113,4.0113,4.0113,4.0113,4.0113,4.0113,3.9688,3.9289,3.8908,3.8497,3.833,3.833,3.8718,3.9129,5.6568,5.5834,5.4894,5.0466,4.6121,4.2322,3.97,3.6456,0.0,3.2727,3.2079,3.166,3.154,3.2006,3.2799,0.0,3.546,3.7646,4.0698,0.0,0.0,0.0,0.0,0.0,0.0,0.0,0.0,0.0,0.0,5.1768,5.1259,5.1229,5.0943,5.0405,4.9673,4.906,4.8506,4.7698,4.7309,4.7309,4.7309,4.7309,4.7309,4.7309,4.7309,4.7309,4.7309,4.7309,4.7309,4.7309,4.7309,4.7249,4.6741,4.6488,4.6471,4.5933,4.5723,4.5693,4.5574,4.5514,4.5484,4.5334,4.4496,4.3499,4.3499,4.3409,4.329,4.329,4.329,4.329,4.329,4.329,4.317,4.2701,4.2772,4.3149,4.4009,4.4361,4.4502,4.4286,4.4591,4.4525,4.3553,4.4035,4.4209,4.299,4.3836,4.4107,4.2692,4.3064,4.2692,4.079,4.0451,4.0417,4.0553,4.0282,4.0248,4.0553,4.0282,4.018,4.035,4.0028,3.985,3.985,3.9236,3.8745,3.8409,3.8323,3.8133,3.7782,3.8557,3.8975,5.703,5.5834,5.4198,5.1672,4.7011,4.2322,3.97,0.0,3.3815,3.2727,3.2437,3.2198,3.16,3.1543,3.2437,3.4939,3.6004,3.7788,4.1406,0.0,0.0,0.0,0.0,0.0,0.0,0.0,0.0,0.0,0.0,0.0,5.1229,5.1229,5.1199,5.1139,4.9912,4.9269,4.9209,4.7938,4.7309,4.7309,4.7309,4.7309,4.7309,4.7309,4.7309,4.7309,4.7309,4.7309,0.0,4.7309,4.7309,4.7309,4.7249,4.7219,4.7219,4.713,4.713,4.704,4.6441,4.619,4.6142,4.5514,4.4796,4.4227,4.4227,4.3768,4.329,4.329,4.329,4.329,4.329,4.329,4.329,4.323,4.3434,4.3629,4.3749,4.4547,4.4849,4.3428,4.4462,4.5101,4.3595,4.403,4.4547,4.4412,4.4513,4.4282,4.3436,4.3341,4.3064,4.2185,4.1508,4.1373,4.2016,4.0891,4.0688,4.2016,4.0857,4.0417,4.1068,3.9761,3.9016,3.9016,3.8935,3.8213,3.6813,3.8893,3.9101,3.7655,3.848,3.9246,5.7475,5.78,5.6587,5.1977,4.728,4.2758,3.8907,0.0,3.2629,3.202,3.1899,3.1809,3.154,3.1511,3.1752,3.2552,3.323,3.4574,3.7136,0.0,0.0,0.0,0.0,0.0,0.0,0.0,0.0,0.0,0.0,0.0,5.1229,5.1229,5.1229,5.1229,5.0331,4.9853,4.9853,4.8536,4.7908,4.7908,4.7489,4.7309,4.7309,4.7309,4.7309,4.7309,4.7309,4.7309,0.0,4.7309,4.7309,4.7309,4.7309,4.7309,4.7309,4.7309,4.7309,4.7279,4.701,4.692,4.686,4.6591,4.6052,4.5454,4.5035,4.4436,4.3888,4.3888,4.3589,4.329,4.329,4.329,4.329,4.329,4.3395,4.3487,4.3661,4.4082,4.4201,4.3705,4.4172,4.4462,4.3848,4.365,4.3639,4.3639,4.3737,4.3698,4.3369,4.3799,4.4012,4.3735,4.2591,4.1982,4.2286,4.1745,4.1644,4.2252,4.1771,4.1298,4.1106,4.0502,3.9944,3.9421,3.948,3.8948,3.7807,3.8777,3.8904,3.8274,3.856,3.9119,5.6468,5.7973,5.7681,5.2938,4.7833,4.3031,0.0,0.0,3.2147,3.1842,3.1809,3.175,3.154,3.1511,3.1336,3.0866,3.1363,3.2436,3.4288,3.6424,0.0,0.0,0.0,0.0,0.0,0.0,0.0,0.0,0.0,0.0,5.1229,5.1229,5.1229,5.1229,5.0524,5.0106,4.9942,4.8835,4.8177,4.7997,4.7519,4.7309,4.7309,4.7309,4.7309,4.7309,4.7309,4.7309,0.0,4.7309,4.7309,4.7309,4.7309,4.7309,4.7309,4.7309,4.7309,4.7309,4.7309,4.7309,4.7309,4.7309,4.698,4.6531,4.6022,4.5155,4.4317,4.4317,4.3838,4.329,4.329,4.329,4.329,4.329,4.329,4.3337,4.3518,4.384,4.3956,4.3599,4.3968,4.4179,4.3683,4.3443,4.3227,4.3036,4.3136,4.3154,4.2925,4.3439,4.3827,4.3827,4.2865,4.2429,4.2936,4.2334,4.2131,4.2567,4.2165,4.1749,4.1383,4.0893,4.0413,3.9841,3.9902,3.9501,3.8643,3.9598,3.9849,3.9407,3.9598,3.9785,5.3514,5.54,5.6335,5.5152,4.899,4.2821,0.0,3.6816,3.2815,3.2526,3.2497,3.2288,3.163,3.1511,3.1336,3.0866,3.1363,3.2468,3.4325,3.6954,0.0,0.0,0.0,0.0,0.0,0.0,0.0,0.0,0.0,0.0,5.1229,5.1229,5.1229,5.1229,5.0524,4.9912,4.9329,4.8626,4.7967,4.7309,4.7309,4.7309,4.7309,4.7309,4.7309,4.7309,4.7309,4.7309,0.0,4.7309,4.7309,4.7309,4.7309,4.7309,4.7309,4.7309,4.7309,4.7309,4.7309,4.7309,4.7309,4.7309,4.7309,4.7309,4.7279,4.5903,4.4317,4.4317,4.3838,4.329,4.329,4.329,4.329,4.329,4.329,4.329,4.329,4.409,4.4295,4.2732,4.3868,4.4579,4.2967,4.3409,4.377,4.31,4.3004,4.2749,4.2077,4.2013,4.2013,4.2013,4.2013,4.2706,4.444,4.2404,4.165,4.3191,4.1877,4.1354,4.2169,4.0709,3.99,3.99,3.99,3.9501,3.8709,4.1836,4.2551,4.0988,4.1874,4.1422,4.716,4.9159,4.9604,4.6933,4.3401,3.9884,3.7149,3.4148,3.193,3.1841,3.1809,3.175,3.154,3.1511,3.1514,3.1482,3.1655,3.2145,0.0,0.0,0.0,0.0,0.0,0.0,0.0,0.0,0.0,0.0,5.1858,5.1229,5.1229,5.1229,5.1229,5.1229,5.0524,5.0106,4.9942,4.8835,4.8177,4.7967,4.7519,4.7309,4.7309,4.7309,4.7309,4.7309,4.7309,4.7309,4.7309,4.7309,4.7309,4.7309,4.7309,4.7309,4.7309,4.7309,4.7309,4.7309,4.7309,4.7309,4.7309,4.7309,4.7309,4.7219,4.677,4.5873,4.4885,4.4436,4.3838,4.3409,4.3858,4.3618,4.329,4.329,4.329,4.329,4.329,4.3566,4.3594,4.3099,4.3477,4.3693,4.3205,4.3008,4.2683,4.201,4.2023,4.1878,4.1192,4.2005,4.2685,4.2685,4.31,4.3201,4.2834,4.213,4.1911,4.2394,4.1943,4.1532,4.1179,4.0697,4.0173,3.9593,4.014,4.0339,4.0073,4.166,4.1883,4.0784,4.1081,4.0922,4.1863,4.4407,4.5275,4.3211,4.0625,0.0,0.0,3.3279,3.1511,3.1511,3.1511,3.1511,3.1511,3.1511,3.1485,3.1424,3.1422,3.192,0.0,0.0,0.0,0.0,0.0,0.0,0.0,0.0,5.3473,5.3204,5.2187,5.1468,5.1229,5.1229,5.1229,5.1229,5.0524,4.9956,4.9494,4.8686,4.8147,4.7908,4.7489,4.7309,4.7309,4.7309,4.7309,4.7309,4.7309,4.7309,0.0,4.7309,4.7309,4.7309,4.7309,4.7309,4.7309,4.7309,4.7309,4.7309,4.7309,4.7309,4.7309,4.7309,4.7309,4.7189,4.6531,4.5843,4.5214,4.4796,4.4197,4.3768,4.4197,4.3798,4.329,4.329,4.329,4.329,4.329,4.329,4.329,4.329,4.329,4.329,4.329,4.3,4.2491,4.1901,4.1879,4.1698,4.1061,4.1802,4.24,4.24,4.2771,4.2677,4.1838,4.2082,4.2252,4.2252,4.2252,4.2014,4.1465,4.1217,4.0816,4.0279,4.0536,4.069,4.069,4.156,4.1885,4.1658,4.1028,4.069,0.0,4.0599,4.2453,4.2453,3.9672,3.6836,3.6267,3.3754,0.0,3.1511,3.1511,3.1511,3.157,3.154,3.1366,3.1043,3.1013,3.1893,0.0,3.6334,0.0,0.0,0.0,0.0,0.0,5.2695,5.3922,5.3234,5.2576,5.1917,5.1259,5.1229,5.1199,5.1139,5.0465,4.9583,4.8356,4.8297,4.7967,4.7309,4.7309,4.7309,4.7309,4.7309,4.7309,0.0,4.7309,4.7309,4.7309,4.7309,4.7309,4.7309,4.7309,4.7309,4.7309,4.7309,4.7309,4.7309,4.7309,4.7309,4.7309,4.7309,4.7279,4.713,4.6561,4.5903,4.5364,4.5364,4.4885,4.4377,4.4377,4.3858,4.3349,4.329,4.329,4.329,4.329,4.329,4.329,4.329,4.329,4.329,4.329,4.329,4.312,4.25,4.241,4.2171,4.1512,4.1452,4.1444,4.1444,4.1504,4.1534,4.1534,4.2206,4.2587,4.2587,4.2587,4.2587,4.2587,4.2036,4.1696,4.1696,4.1152,4.0814,4.0752,4.1621,4.2493,4.3242,4.1521,4.0712,3.3035,0.0,3.4261,3.4261,3.3573,3.2856,0.0,0.0,0.0,0.0,0.0,0.0,0.0,3.1839,3.181,3.2705,3.2884,3.3629,3.5743,0.0,0.0,0.0,0.0,0.0,0.0,5.3234,5.3922,5.3234,5.2576,5.1917,5.1259,5.1229,5.0943,5.0435,4.9823,4.9389,4.909,4.8536,4.7967,4.7309,4.7309,4.7309,4.7309,4.7309,4.7309,4.7309,4.7309,4.7309,4.7309,4.7309,4.7309,4.7309,4.7309,4.7309,4.7309,4.7309,4.7309,4.7309,4.7309,4.7309,4.7309,4.7309,4.695,4.6621,4.698,4.6621,4.6082,4.6082,4.5603,4.5065,4.5065,4.4586,4.3958,4.3409,4.329,4.329,4.329,4.329,4.329,4.329,4.329,4.329,4.329,4.329,4.312,4.25,4.241,4.2171,4.1512,4.1871,4.2171,4.2171,4.2581,4.2841,4.2841,4.2144,4.1693,4.1693,4.1693,4.1693,4.1693,4.1542,4.1452,4.1452,4.1971,4.1988,4.1461,4.2198,4.2657,4.283,4.1729,4.0939,3.2523,3.2345,3.1869,3.157,3.172,3.1869,3.157,0.0,0.0,0.0,0.0,0.0,0.0,0.0,3.2198,3.2916,3.3814,0.0,0.0,0.0,0.0,0.0,0.0,5.3743,0.0,0.0,5.3922,5.3234,5.2576,5.1917,5.1259,5.1229,5.0853,5.0226,4.9883,4.9434,4.888,4.8177,4.7668,4.7309,4.7309,4.7309,4.7309,4.7309,4.7309,4.7309,4.7309,4.7309,4.7309,4.7309,4.7309,4.7309,4.7309,4.7309,4.7309,4.7309,4.7309,4.7309,4.7309,4.7309,4.7309,4.7309,4.707,4.683,4.7189,4.707,4.677,4.677,4.6292,4.5693,4.5364,4.5035,4.4526,4.3529,4.3529,4.3648,4.3349,4.329,4.329,4.329,4.329,4.329,4.329,4.329,4.317,4.2851,4.2791,4.2671,4.2312,4.2581,4.2791,4.2791,4.312,4.329,4.329,4.2671,4.2282,4.2282,4.2282,4.2282,4.2282,4.2021,4.1722,4.1422,4.1879,4.2144,4.2138,4.2144,4.2328,4.2695,4.1805,4.1242,3.3786,3.3698,3.2946,3.178,3.1989,3.2318,3.166,3.1511,0.0,0.0,0.0,0.0,0.0,3.2258,0.0,0.0,0.0,0.0,0.0,0.0,0.0,0.0,0.0,0.0,5.461,5.4401,5.3922,5.3234,5.2576,5.1917,5.1259,5.1229,5.0853,5.0226,5.0106,4.9523,4.8297,4.7728,4.7399,4.7309,4.7309,4.7309,4.7309,4.7309,4.7309,4.7309,0.0,0.0,4.7309,4.7309,4.7309,4.7309,4.7309,4.7309,4.7309,4.7309,4.7309,4.7309,4.7309,4.7309,4.7309,4.7309,4.7309,4.7309,4.7309,4.7309,4.7309,4.7309,4.689,4.6322,4.5633,4.5364,4.4975,4.3738,4.3798,4.4018,4.3409,4.329,4.329,4.329,4.329,4.329,4.329,4.329,4.329,4.329,4.329,4.329,4.329,4.329,4.329,4.329,4.329,4.329,4.329,4.329,4.329,4.329,4.329,4.329,4.329,4.2791,4.2231,4.1572,4.1624,4.201,4.2633,4.201,4.207,4.275,4.2032,4.1624,3.3969,3.5296,3.5818,3.2378,3.1989,3.2318,3.166,3.1511,3.1511,0.0,0.0,0.0,0.0,3.3275,3.3724,0.0,0.0,4.2252,0.0,0.0,5.069,5.1768,0.0,5.4192,5.2785,5.3593,5.3922,5.3234,5.2576,5.1917,5.1259,5.1229,5.0853,5.0226,4.9703,4.9045,4.8297,4.8177,4.7848,4.7309,4.7309,4.7309,4.7309,4.7309,4.7309,4.7309,0.0,4.7309,4.7309,4.7309,4.7309,4.7309,4.7309,4.7309,4.7309,4.7309,4.7309,4.7309,4.7309,4.7309,4.7309,4.7309,4.7309,4.7309,4.7309,4.7309,4.7309,4.7309,4.7249,4.701,4.6322,4.5723,4.5095,4.4347,4.3768,4.3409,4.3319,4.329,4.329,4.329,4.329,4.329,4.329,4.329,4.329,4.329,4.329,4.329,4.329,4.329,4.329,4.329,4.329,4.329,4.329,4.329,4.329,4.329,4.329,4.329,4.329,4.32,4.288,4.2261,4.2761,4.2839,4.2461,4.2839,4.3069,4.3196,4.3069,4.2731,3.4697,3.506,3.513,3.4382,3.522,3.5756,3.4052,3.3963,3.3993,0.0,0.0,0.0,0.0,0.0,3.6746,4.0217,0.0,4.4736,4.8281,4.9254,5.0152,0.0,0.0,5.3503,5.3294,5.3503,5.3384,5.2695,5.2037,5.1379,5.0674,5.0644,5.0166,4.9224,4.8895,4.8416,4.7758,4.7758,4.7608,4.7309,4.7309,4.7309,4.7309,4.7309,4.7309,4.7309,0.0,4.7309,4.7309,4.7309,4.7309,4.7309,4.7309,4.7309,4.7309,4.7309,4.7309,4.7309,4.7309,4.7309,4.7309,4.7309,4.7309,4.7309,4.7309,4.7309,4.7309,4.7309,4.7309,4.716,4.6459,4.6352,4.6022,4.4646,4.4347,4.4197,4.3439,4.329,4.329,4.329,4.329,4.329,4.329,4.329,4.329,4.329,4.329,4.329,4.329,4.329,4.329,4.329,4.329,4.329,4.329,4.329,4.329,4.329,4.329,4.329,4.329,4.329,4.314,4.288,4.314,4.314,4.288,4.314,4.329,4.329,4.329,4.314,3.5001,3.4698,3.4502,3.5729,3.6926,3.755,3.6836,3.6567,3.6357,3.5971,0.0,0.0,0.0,3.7135,0.0,4.4736,4.5933,4.704,4.9344,4.9673,5.0272,5.1947,5.2456,5.3084,5.4102,5.3443,5.2665,5.2007,5.1349,5.069,4.9986,5.0002,4.9494,4.8327,4.8297,4.7967,4.7309,4.7309,4.7309,4.7309,4.7309,4.7309,4.7309,4.7309,4.7309,4.7309,4.7309,4.7309,4.7309,4.7309,4.7309,4.7309,4.7309,4.7309,4.7309,4.7309,4.7309,4.7309,4.7309,4.7309,4.7309,4.7309,4.7309,4.7309,4.7309,4.7309,4.7309,4.7309,4.7309,4.7189,4.6681,4.6681,4.6441,4.4915,4.4706,4.4556,4.3499,4.329,4.329,4.329,4.329,4.329,4.329,4.329,4.329,4.329,4.329,4.329,4.329,4.329,4.329,4.329,4.3439,4.3589,4.3738,4.3738,4.3738,4.3738,4.3469,4.3349,4.3529,4.3529,4.3589,4.3738,4.3738,4.3738,4.3738,4.3738,4.3678,4.3529,4.3529,4.3439,3.409,3.5177,3.5998,3.4923,3.3814,3.4233,3.896,3.8212,3.7135,3.9499,3.9978,0.0,0.0,3.8871,4.1504,4.5603,4.7788,5.0122,5.3324,0.0,5.4072,5.482,5.4401,5.4102,5.4192,5.3025,5.2007,5.1349,5.0644,5.0032,4.9419,4.9389,4.906,4.8297,4.8297,4.7967,4.7309,4.7309,4.7309,4.7309,4.7309,4.7309,4.7309,4.7309,4.7309,4.7309,4.7309,4.7309,4.7309,4.7309,4.7309,4.7309,4.7309,4.7309,4.7309,4.7309,4.7309,4.7309,4.7309,4.7309,4.7309,4.7309,4.7309,4.7309,4.7309,4.7309,4.7309,4.7309,4.7309,4.7309,4.7249,4.6352,4.5394,4.5244,4.4317,4.3409,4.3319,4.329,4.329,4.329,4.329,4.329,4.329,4.329,4.329,4.329,4.329,4.329,4.329,4.329,4.329,4.329,4.3858,4.4496,4.5095,4.5155,4.5155,4.5155,4.4018,4.3559,4.4227,4.4257,4.4526,4.5155,4.5155,4.5155,4.5155,4.5155,4.4855,4.4257,4.4257,4.3888,3.3484,3.4904,3.6357,3.5881,3.534,3.6058,4.0098,4.0876,4.1055,4.2043,4.291,0.0,0.0,0.0,4.4855,4.716,4.9553,5.1678,5.3324,5.3952,5.4132,5.3952,5.3713,5.3414,5.2995,5.2127,5.1319,5.0614,5.0002,4.9344,4.8686,4.87,4.8356,4.7698,4.7668,4.7549,4.7309,4.7309,4.7309,4.7309,4.7309,4.7309,4.7309,4.7309,4.7309,4.7309,4.7309,4.7309,4.7309,4.7309,4.7309,4.7309,4.7309,4.7309,4.7309,4.7309,4.7309,4.7309,4.7309,4.7309,4.7309,4.7309,4.7309,4.7309,4.7309,4.7309,4.7309,4.7309,4.7309,4.7309,4.7309,4.692,4.6322,4.5484,4.4915,4.4317,4.3469,4.329,4.329,4.329,4.329,4.329,4.329,4.329,4.329,4.329,4.329,4.329,4.329,4.329,4.329,4.329,4.3888,4.4586,4.5244,4.5304,4.5304,4.5304,4.4825,4.4676,4.4915,4.4915,4.5035,4.5304,4.5304,4.5095,4.4676,4.5095,4.4945,4.4317,4.4317,4.4167,3.2973,3.3998,3.54,3.6028,3.6327,3.7554,4.1683,4.303,4.3868,4.5514,4.5574,4.5155,4.4635,0.0,0.0,0.0,5.0481,5.2426,5.3084,5.3593,5.3713,5.3234,5.2815,5.2396,5.1947,5.1109,5.0331,4.9673,4.9224,4.87,4.8027,4.7967,4.7758,4.7309,4.7309,4.7309,4.7309,4.7309,4.7309,4.7309,4.7309,4.7309,4.7309,4.7309,4.7309,4.7309,4.7309,4.7309,4.7309,4.7309,4.7309,4.7309,4.7309,4.7309,4.7309,4.7309,4.7309,4.7309,4.7309,4.7309,4.7309,4.7309,4.7309,4.7309,4.7309,4.7309,4.7309,4.7309,4.7309,4.7309,4.7309,4.698,4.6441,4.5514,4.4975,4.4436,4.3499,4.329,4.3349,4.3559,4.3439,4.3349,4.3559,4.3439,4.329,4.329,4.329,4.3379,4.3589,4.3618,4.3768,4.4186,4.4635,4.5214,4.5873,4.5933,4.5933,4.5933,4.5933,4.5843,4.5633,4.5633,4.5723,4.5933,4.5933,4.5723,4.5274,4.5723,4.5603,4.4945,4.4945,4.4825,3.2497,3.2497,3.3005,3.5011,3.6028,3.8093,4.3958,4.4317,4.4915,5.0152,4.8087,4.5723,4.707,4.6232,0.0,4.7967,5.0481,5.2426,5.3054,5.3144,5.3144,5.3144,5.2007,5.1199,5.1199,5.0032,4.903,4.8327,4.8267,4.7997,4.7339,4.7309,4.7309,4.7309,4.7309,4.7309,4.7309,4.7309,4.7309,4.7309,4.7309,4.7309,4.7309,4.7309,4.7309,4.7309,4.7309,4.7309,4.7309,4.7309,4.7309,4.7309,4.7309,4.7309,4.7309,4.7309,4.7309,4.7309,4.7309,4.7309,4.7309,4.7309,4.7309,4.7309,4.7309,4.7309,4.7309,4.7309,4.7309,4.7309,4.7309,4.6322,4.5304,4.5304,4.4317,4.3319,4.329,4.329,4.3499,4.4197,4.3738,4.3499,4.4197,4.3738,4.329,4.329,4.329,4.3529,4.4227,4.4317,4.4825,4.613,4.6279,4.6591,4.7249,4.7309,4.7309,4.7309,4.7309,4.701,4.6309,4.6279,4.6651,4.7309,4.7309,4.7309,4.7309,4.7309,4.698,4.6279,4.6279,4.5963,3.1929,3.3544,3.534,3.5459,0.0,4.2132,4.5304,4.5723,4.6681,5.102,4.9494,4.7519,4.7908,4.7668,0.0,4.7578,4.9793,5.1409,5.1139,5.1498,5.1468,5.0587,5.0138,4.9853,4.9853,4.9075,4.8506,4.8297,4.7848,4.7519,4.7309,4.7309,4.7309,4.7309,4.7309,4.7309,4.7309,4.7309,4.7309,4.7309,4.7309,4.7309,4.7309,4.7309,4.7309,4.7309,4.7309,4.7309,4.7309,4.7309,4.7309,4.7309,4.7309,4.7309,4.7309,4.7309,4.7309,4.7309,4.7309,4.7309,4.7309,4.7309,4.7309,4.7309,4.7309,4.7309,4.7309,4.7309,4.7309,4.7309,4.7309,4.6651,4.6022,4.6022,4.5681,4.5143,4.4186,4.4018,4.4077,4.4287,4.4167,4.4077,4.4287,4.4167,4.4018,4.4018,4.3589,4.3529,4.4227,4.4706,4.5334,4.619,4.6279,4.6591,4.7249,4.7309,4.7309,4.7309,4.7309,4.7219,4.701,4.701,4.71,4.7309,4.7309,4.707,4.6621,4.707,4.698,4.6279,4.6279,4.6202,3.3335,3.4951,3.6776,3.7943,4.1205,4.4825,4.7638,0.0,0.0,0.0,5.1109,4.9434,4.9434,4.9015,0.0,4.8147,4.9643,5.0554,4.9942,5.0182,5.0152,4.9389,4.909,4.891,4.891,4.8297,4.7908,4.7908,4.7519,4.7309,4.7309,4.7309,4.7309,4.7309,4.7309,4.7309,4.7309,4.7309,4.7309,4.7309,4.7309,4.7309,4.7309,4.7309,4.7309,4.7309,4.7309,4.7309,4.7309,4.7309,4.7309,4.7309,4.7309,4.7309,4.7309,4.7309,4.7309,4.7309,4.7309,4.7309,4.7309,4.7309,4.7309,4.7309,4.7309,4.7309,4.7309,4.7309,4.7309,4.7309,4.7309,4.701,4.6651,4.6339,4.6112,4.5693,4.4885,4.4496,4.4466,4.5005,4.4426,4.4167,4.4975,4.4676,4.4407,4.4676,4.4575,4.4635,4.5065,4.5693,4.6262,4.6681,4.6711,4.686,4.7279,4.7309,4.7309,4.7309,4.7309,4.7309,4.7309,4.7309,4.7309,4.7309,4.7309,4.71,4.6711,4.71,4.71,4.6711,4.6711,4.6711,3.5764,3.657,3.7614,4.1602,4.4197,0.0,5.0541,5.2755,5.4042,5.4042,0.0,5.1259,5.1139,5.0152,4.9359,4.9239,4.9733,4.9912,4.9299,4.9209,4.9209,4.9149,4.8566,4.8207,4.8207,4.7668,4.7309,4.7309,4.7309,4.7279,4.7219,4.7219,4.7219,4.7219,4.7219,4.7249,4.7309,4.7249,4.7219,4.7219,4.716,4.713,4.713,4.7189,4.7189,4.713,4.713,4.713,4.713,4.7189,4.7219,4.7219,4.7219,4.7249,4.7309,4.7249,4.7249,4.7309,4.7309,4.7309,4.7309,4.7309,4.7309,4.7309,4.7309,4.7309,4.7309,4.7309,4.7309,4.7309,4.7309,4.7309,4.716,4.6561,4.5933,4.5454,4.5334,4.4825,4.4736,4.5861,4.4665,4.4037,4.5861,4.5274,4.4676,4.5214,4.5933,4.6339,4.6279,4.689,4.7309,4.7309,4.7309,4.7309,4.7309,4.7309,4.7309,4.7309,4.7309,4.7309,4.7309,4.7309,4.7309,4.7309,4.7309,4.7309,4.7309,4.7309,4.7309,4.7309,4.7309,4.7309,3.5667,3.7007,0.0,4.291,4.695,5.0451,5.2336,5.2695,5.2636,5.2636,5.2306,5.1678,5.0584,5.0166,4.9703,4.8656,4.9045,4.9254,4.8596,4.8506,4.8297,4.7788,4.7608,4.7519,4.7519,4.7399,4.7309,4.7309,4.7309,4.707,4.6561,4.6531,4.6531,4.6531,4.6531,4.677,4.7309,4.68,4.6531,4.6488,4.5992,4.5723,4.5753,4.6292,4.6232,4.5723,4.5723,4.5723,4.5753,4.6322,4.6531,4.6531,4.6531,4.686,4.7249,4.6741,4.686,4.7309,4.7309,4.7309,4.7309,4.7309,4.7309,4.7309,4.7309,4.7309,4.7309,4.7309,4.7309,4.7309,4.7309,4.7309,4.7279,4.713,4.698,4.6591,4.5514,4.5185,4.5005,4.4796,4.4825,4.5005,4.5454,4.5723,4.5753,4.5364,4.6322,4.692,4.6381,4.689,4.7309,4.7309,4.7309,4.7309,4.7309,4.7309,4.7309,4.7309,4.7309,4.7309,4.7309,4.7309,4.7309,4.7309,4.7309,4.7309,4.7309,4.7309,4.7309,4.7309,4.7309,4.7309,3.6901,3.8266,0.0,4.5711,0.0,5.1468,5.2486,5.1947,5.1259,5.1259,5.1259,5.096,4.9972,4.9763,4.9434,4.8446,4.8566,4.8566,4.7908,4.7818,4.7698,4.7339,4.7309,4.7309,4.7309,4.701,4.683,4.683,4.6531,4.6202,4.5843,4.5843,4.5992,4.6279,4.5992,4.6142,4.683,4.6172,4.5843,4.5843,4.5454,4.5125,4.4855,4.5514,4.5633,4.5304,4.5304,4.5304,4.5334,4.5693,4.5843,4.5873,4.616,4.6488,4.683,4.68,4.701,4.7309,4.7309,4.7309,4.7309,4.7309,4.7309,4.7309,4.7309,4.7309,4.7249,4.692,4.707,4.716,4.6501,4.683,4.7219,4.692,4.683,4.6651,4.5933,4.5274,4.4825,4.4796,4.4796,4.5035,4.5693,4.6352,4.6681,4.6322,4.686,4.7189,4.683,4.71,4.7309,4.7309,4.7309,4.7309,4.7309,4.7309,4.7309,4.7309,4.7309,4.7309,4.7309,4.7309,4.7309,4.7309,4.7309,4.7309,4.7309,4.7309,4.7309,4.7309,4.7309,4.7309,3.7961,3.9621,4.1765,4.8103,5.0301,0.0,5.1558,5.075,4.9867,4.9867,4.9956,4.9883,4.9269,4.9149,4.894,4.8237,4.8117,4.7938,4.7369,4.7219,4.713,4.713,4.704,4.695,4.695,4.6471,4.6142,4.6142,4.5603,4.5244,4.5125,4.5125,4.5394,4.5963,4.5424,4.5454,4.6142,4.5454,4.5125,4.5125,4.5005,4.4676,4.4167,4.4706,4.4945,4.4945,4.4945,4.4945,4.4975,4.5065,4.5125,4.5185,4.5873,4.619,4.6381,4.692,4.7219,4.7309,4.7309,4.7309,4.7309,4.7309,4.7309,4.7309,4.7309,4.7309,4.7189,4.6651,4.689,4.701,4.5783,4.6381,4.713,4.6429,4.6279,4.6279,4.6279,4.5364,4.4646,4.5185,4.4945,4.5035,4.6249,4.695,4.7309,4.7309,4.7309,4.7309,4.7309,4.7309,4.7309,4.7309,4.7309,4.7309,4.7309,4.7309,4.7309,4.7309,4.7309,4.7309,4.7309,4.7309,4.7309,4.7309,4.7309,4.7309,4.7309,4.7309,4.7309,4.7309,4.7309,4.7309,3.6805,0.0,4.4317,0.0,4.8626,4.9599,0.0,0.0,4.8536,0.0,4.9015,4.9239,4.8536,4.8416,4.8207,4.7549,4.7429,4.7399,4.7309,4.68,4.6399,4.6399,4.5933,4.5574,4.5574,4.5484,4.5424,4.5424,4.5334,4.5035,4.4466,4.4436,4.4496,4.4586,4.4496,4.4766,4.5424,4.4766,4.4436,4.4436,4.3828,4.3499,4.3439,4.3529,4.3559,4.3559,4.3559,4.3559,4.3589,4.4197,4.4436,4.4496,4.5185,4.5813,4.6279,4.6369,4.68,4.7309,4.7309,4.7309,4.7309,4.7309,4.7309,4.7309,4.7309,4.7309,4.7279,4.7189,4.7249,4.713,4.6381,4.6741,4.713,4.6429,4.6279,4.6279,4.6279,4.5723,4.5185,4.5274,4.5693,4.6249,4.704,4.7249,4.7309,4.7309,4.7309,4.7309,4.7309,4.7309,4.7309,4.7309,4.7309,4.7309,4.7309,4.7309,4.7309,4.7309,4.7309,4.7309,4.7309,4.7309,4.7309,4.7309,4.7309,4.7309,4.7309,4.7309,4.7309,4.7309,4.7309,4.7309,3.6628,3.9965,4.3527,0.0,4.7189,4.7728,4.8087,0.0,4.707,4.6681,4.683,4.7189,4.7668,4.7728,4.7638,4.7369,4.698,4.6741,4.6741,4.6172,4.5753,4.5753,4.5484,4.5304,4.5304,4.4975,4.4736,4.4736,4.4407,4.4077,4.3738,4.3738,4.3888,4.4317,4.3958,4.4077,4.4736,4.4077,4.3738,4.3738,4.3439,4.329,4.329,4.329,4.329,4.329,4.329,4.329,4.3319,4.3618,4.3738,4.3798,4.4496,4.5155,4.5813,4.613,4.6741,4.7309,4.7309,4.7309,4.7309,4.7309,4.7309,4.7309,4.7309,4.704,4.6681,4.6292,4.6471,4.6441,4.4964,4.5651,4.6591,4.5903,4.6052,4.6369,4.68,4.6052,4.5394,4.5813,4.6112,4.6488,4.7189,4.7309,4.7309,4.7309,4.7309,4.7309,4.7309,4.7309,4.7309,4.7309,4.7309,4.7309,4.7309,4.7309,4.7309,4.7309,4.7309,4.7309,4.7309,4.7309,4.7309,4.7309,4.7309,4.7309,4.7309,4.7309,4.7309,4.7309,4.7309,4.7309,0.0,0.0,4.0945,4.3648,4.4706,4.5274,0.0,0.0,4.5723,0.0,4.5304,4.5603,4.6621,4.68,4.68,4.68,4.6381,4.6052,4.6052,4.5484,4.5035,4.5035,4.4915,4.4796,4.4796,4.4347,4.4077,4.4077,4.3559,4.329,4.329,4.329,4.3529,4.4047,4.3559,4.3439,4.3808,4.3329,4.314,4.329,4.329,4.32,4.309,4.323,4.32,4.309,4.323,4.329,4.329,4.329,4.329,4.3349,4.4047,4.4616,4.5125,4.5813,4.6471,4.707,4.707,4.716,4.7279,4.71,4.716,4.7249,4.689,4.6561,4.6172,4.5484,4.5783,4.5891,4.4216,4.5143,4.6411,4.5723,4.6082,4.6608,4.698,4.6411,4.5903,4.6262,4.6471,4.6741,4.7219,4.7309,4.7309,4.7309,4.7309,4.7309,4.7309,4.7309,4.7309,4.7309,4.7309,4.7309,4.7309,4.7309,4.7309,4.7309,4.7309,4.7309,4.7309,4.7309,4.7309,4.7309,4.7309,4.7309,4.7309,4.7309,4.7309,4.7309,4.7309,4.7309,0.0,3.5645,0.0,3.8372,4.0217,0.0,0.0,0.0,0.0,4.5185,4.5304,4.5304,4.5394,4.5394,4.5394,4.5394,4.5364,4.5334,4.5334,4.4766,4.4377,4.4377,4.3768,4.3379,4.3379,4.3349,4.3349,4.3349,4.3319,4.329,4.329,4.329,4.3319,4.3349,4.3319,4.306,4.25,4.247,4.2731,4.329,4.329,4.3,4.247,4.306,4.3,4.25,4.306,4.329,4.329,4.329,4.329,4.3349,4.4047,4.4347,4.4436,4.5095,4.5783,4.6339,4.6339,4.677,4.7219,4.6591,4.68,4.707,4.5783,4.5843,4.6172,4.5484,4.5783,4.6142,4.5394,4.6232,4.71,4.6441,4.677,4.71,4.6459,4.68,4.704,4.6441,4.683,4.7279,4.7309,4.7309,4.7309,4.7309,4.7309,4.7309,4.7309,4.7309,4.7309,4.7309,4.7309,4.7309,4.7309,4.7309,4.7309,4.7309,4.7309,4.7309,4.7309,4.7309,4.7309,4.7309,4.7309,4.7309,4.7309,4.7309,4.7309,4.7309,4.7309,4.7309,0.0,0.0,0.0,3.8084,3.9108,3.9709,4.0569,4.1654,4.2372,4.2192,4.2491,4.2791,4.2791,4.4167,4.5304,4.5304,4.4945,4.4676,4.4676,4.4107,4.3648,4.3648,4.3439,4.329,4.329,4.329,4.329,4.329,4.294,4.288,4.326,4.294,4.2701,4.2701,4.2701,4.2402,4.1782,4.1782,4.1863,4.2073,4.2521,4.2372,4.1782,4.2402,4.2342,4.1811,4.2432,4.294,4.329,4.329,4.329,4.3319,4.3559,4.3917,4.4347,4.4586,4.5095,4.5663,4.5663,4.5813,4.6052,4.6262,4.6429,4.6651,4.6591,4.6142,4.5693,4.5903,4.5813,4.5603,4.5364,4.5992,4.6621,4.6339,4.683,4.7249,4.701,4.713,4.7249,4.701,4.716,4.7309,4.7309,4.7309,4.7309,4.7309,4.7309,4.7309,4.7309,4.7309,4.7309,4.7309,4.7309,4.7309,4.7309,4.7309,4.7309,4.7309,4.7309,4.7309,4.7309,4.7309,4.7309,4.7309,4.7309,4.7309,4.7309,4.7309,4.7309,4.7309,4.7309,4.7309,3.4474,0.0,0.0,0.0,0.0,3.7045,3.8182,0.0,4.0127,4.0337,4.0756,4.1115,4.1354,4.2791,4.3988,4.3988,4.3808,4.3658,4.3658,4.309,4.2761,4.297,4.2821,4.2671,4.2671,4.2671,4.2671,4.2671,4.2282,0.0,4.2641,4.2252,4.2081,4.2081,4.1871,4.1632,4.1422,4.1175,4.1175,4.1422,4.1871,4.1722,4.1085,4.1782,4.1722,4.1085,4.2021,4.265,4.303,4.32,4.329,4.329,4.329,4.3559,4.3947,4.3947,4.4407,4.4975,4.4975,4.5095,4.5364,4.5843,4.6142,4.6309,4.6561,4.6172,4.5693,4.5903,4.5813,4.5633,4.5633,4.6142,4.6651,4.6651,4.698,4.7309,4.7309,4.7309,4.7309,4.7309,4.7309,4.7309,4.7309,4.7309,4.7309,4.7309,4.7309,4.7309,4.7309,4.7309,4.7309,4.7309,4.7309,4.7309,4.7309,4.7309,4.7309,4.7309,4.7309,4.7309,4.7309,4.7309,4.7309,4.7309,4.7309,4.7309,4.7309,4.7309,4.7309,4.7309,4.7309,4.7309,0.0,0.0,0.0,0.0,0.0,0.0,3.5938,0.0,3.7913,3.9888,4.0307,4.0546,4.1205,4.1354,4.1354,4.1324,4.1931,4.2381,4.2381,4.1811,4.1662,4.2291,4.1811,4.1422,4.1422,4.1422,4.1422,4.1422,4.1354,4.1392,4.1422,4.1392,4.1354,4.1354,4.0726,4.0666,4.1324,4.0696,4.0696,4.1324,4.1354,4.0995,4.0397,4.1055,4.0995,4.0457,4.1782,4.2351,4.241,4.306,4.329,4.329,4.329,4.329,4.329,4.329,4.3708,4.4287,4.4287,4.4706,4.5244,4.5274,4.5753,4.6142,4.5514,4.5783,4.613,4.5514,4.5813,4.6279,4.6309,4.683,4.7309,4.7309,4.7309,4.7309,4.7309,4.7309,4.7309,4.7309,4.7309,4.7309,4.7309,4.7309,4.7309,4.7309,4.7309,4.7309,4.7309,4.7309,4.7309,4.7339,4.7339,4.7339,4.7339,4.7339,4.7339,4.7309,4.7309,4.7309,4.7309,4.7309,4.7309,4.7309,4.7309,4.7309,4.7309,4.7309,4.7309,4.7309,4.7309,4.7309,3.5107,0.0,0.0,0.0,0.0,0.0,0.0,0.0,0.0,3.7345,3.8302,3.917,3.9828,4.0337,4.0516,4.0038,4.0905,4.1692,4.1692,4.1542,4.1444,4.1662,4.1542,4.1422,4.1422,4.1422,4.1422,0.0,4.0935,4.0876,4.1354,4.0935,4.0666,4.0666,4.0038,3.9768,3.9948,3.9798,3.9798,3.9978,4.0457,4.0337,3.9709,4.0367,4.0307,3.9738,4.0576,4.1205,4.1782,4.288,4.329,4.329,4.329,4.329,4.329,4.329,4.3409,4.3559,4.3559,4.3678,4.3977,4.4975,4.5095,4.5005,4.5813,4.5813,4.5633,4.5963,4.6172,4.6399,4.692,4.716,4.7309,4.7309,4.7309,4.7309,4.7309,4.7309,4.7309,4.7309,4.7309,4.7309,4.7309,4.7309,4.7309,4.7309,4.7309,4.7309,4.7309,4.7309,4.7489,4.7967,4.8027,4.8027,4.8027,4.8027,4.7818,4.7339,4.7309,4.7309,4.7309,4.7309,4.7309,4.7309,4.7309,4.7309,4.7309,4.7309,4.7309,4.7309,4.7309,4.7309,0.0,0.0,0.0,0.0,0.0,0.0,3.3365,3.4233,3.534,0.0,3.7075,3.7883,3.8811,3.929,3.9529,3.9439,4.0068,4.0666,4.0935,4.0726,4.0666,4.0935,4.0726,4.0576,4.0576,4.0576,4.0576,4.0576,4.0217,4.0157,4.0546,4.0217,3.9978,3.9978,3.9619,3.9373,3.9373,3.9373,3.9373,3.9373,3.9798,3.9798,3.9403,3.9798,3.9798,3.9469,4.0127,4.0756,4.1474,4.2491,4.309,4.329,4.329,4.329,4.329,4.329,4.329,4.329,4.329,4.329,4.3469,4.4556,4.4825,4.4915,4.5992,4.6232,4.6232,4.6621,4.6741,4.683,4.7219,4.7309,4.7309,4.7309,4.7309,4.7309,4.7309,4.7309,4.7309,4.7309,4.7309,4.7309,4.7309,4.7309,4.7309,4.7309,4.7549,4.7728,4.7728,4.7967,4.8267,4.87,4.873,4.873,4.873,4.873,4.8536,4.8147,4.7878,4.7728,4.7728,4.7459,4.7429,4.7698,4.7728,4.7728,4.7728,4.7429,4.7309,4.7309,4.7309,4.7309,0.0,0.0,0.0,0.0,0.0,0.0,3.4264,3.4384,3.4773,0.0,3.6327,3.6716,3.7853,3.8063,3.8272,3.8901,3.911,3.9439,4.0187,3.9798,3.9649,4.0217,3.9768,3.9373,3.9373,3.9373,3.9373,3.9373,3.9373,3.9403,3.9493,3.9469,3.9403,3.9493,3.9469,3.9373,3.9373,3.9373,3.9373,3.9373,3.9373,3.9373,3.9373,3.9373,3.9373,3.9469,4.0127,4.0756,4.1482,4.2141,4.2761,4.329,4.329,4.329,4.329,4.329,4.329,4.329,4.329,4.329,4.3409,4.4067,4.4706,4.5304,4.5992,4.6681,4.7219,4.7279,4.7309,4.7309,4.7309,4.7309,4.7309,4.7309,4.7309,4.7309,4.7309,4.7309,4.7309,4.7309,4.7309,4.7309,4.7309,4.7309,4.7339,4.7399,4.7908,4.8327,4.8386,4.894,4.9329,4.9419,4.9419,4.9419,4.9419,4.9419,4.9389,4.9299,4.876,4.8386,4.8386,4.7848,4.7788,4.8386,4.8386,4.8386,4.8386,4.7668,4.7309,4.7309,4.7309,4.7309,0.0,0.0,0.0,0.0,0.0,0.0,3.3664,3.3694,3.3903,0.0,3.531,3.5759,3.6028,3.6058,3.6118,3.6237,3.7135,3.8212,3.9439,3.9463,3.9433,3.9589,3.9499,3.9373,3.9373,3.9373,3.9373,3.9373,3.9373,3.9649,4.0187,3.9709,3.9679,4.0187,3.9709,3.9373,3.9373,3.9373,3.9373,3.9373,3.9373,3.9373,3.9373,3.9373,3.9373,3.9469,4.0127,4.0756,4.1482,4.2141,4.2761,4.329,4.329,4.329,4.329,4.329,4.329,4.329,4.329,4.329,4.3409,4.4067,4.4407,4.4616,4.5304,4.5963,4.6621,4.716,4.7309,4.7309,4.7309,4.7309,4.7309,4.7309,4.7309,4.7309,4.7309,4.7309,4.7309,4.7309,4.7309,4.7309,4.7309,4.7309,4.7489,4.8027,4.8207,4.8476,4.906,4.9239,4.9464,5.0002,4.9986,4.9986,4.9986,4.9986,4.9823,4.9329,4.9179,4.912,4.912,4.9,4.9,4.912,4.912,4.912,4.912,4.7878,4.7309,4.7309,4.7309,4.7309,0.0,0.0,0.0,3.507,0.0,0.0,0.0,3.4502,3.4592,3.4921,3.4981,3.51,3.5429,3.522,3.51,3.5459,3.6567,3.7524,3.7913,3.8811,3.9373,3.9373,3.9373,3.9373,3.9373,3.9373,3.9559,3.9888,4.0217,4.0546,4.0876,4.0277,4.0068,4.0397,3.9768,3.9373,3.9373,3.9373,3.9373,3.9373,3.9373,3.9373,3.9373,3.9373,3.9373,3.9469,4.0127,4.0756,4.1482,4.2141,4.2761,4.329,4.329,4.329,4.329,4.329,4.329,4.329,4.329,4.329,4.3349,4.3678,4.4047,4.4436,4.5095,4.5992,4.689,4.7219,4.7309,4.7309,4.7309,4.7309,4.7309,4.7309,4.7309,4.7309,4.7309,4.7309,4.7309,4.7309,4.7309,4.7309,4.7309,4.7578,4.7908,4.8237,4.8835,4.9374,4.9703,5.0032,5.0361,5.0644,5.0674,5.0674,5.0674,5.0674,5.0601,5.0272,4.9942,4.9763,4.9763,4.9434,4.9404,4.9733,4.9763,4.9763,4.9763,4.8775,4.8117,4.7788,4.7459,4.7309,0.0,0.0,0.0,0.0,0.0,3.534,0.0,0.0,0.0,3.531,3.4861,0.0,0.0,0.0,0.0,0.0,0.0,0.0,0.0,3.7704,0.0,3.902,3.9224,3.9379,3.923,3.923,3.9559,4.0337,4.0786,4.1175,4.1602,4.0935,4.0636,4.0756,4.0127,3.9798,3.9798,3.9679,3.9619,3.9619,3.9433,3.9373,3.9373,3.9373,3.9373,3.9433,4.0247,4.0876,4.1482,4.2261,4.2851,4.329,4.329,4.329,4.329,4.329,4.329,4.329,4.329,4.329,4.329,4.329,4.3828,4.4616,4.5304,4.6352,4.7309,4.7309,4.7309,4.7309,4.7309,4.7309,4.7309,4.7309,4.7309,4.7309,4.7309,4.7309,4.7309,4.7309,4.7309,4.7309,4.7309,4.7848,4.8327,4.8446,4.9494,5.0255,5.0375,5.09,5.1229,5.1229,5.1229,5.1229,5.1229,5.1229,5.1229,5.1229,5.0674,5.0375,5.0375,4.9912,4.9883,5.0375,5.0375,5.0375,5.0375,4.9763,4.9105,4.8446,4.7938,4.7698,0.0,0.0,0.0,0.0,3.504,0.0,0.0,0.0,3.4623,3.4623,0.0,0.0,0.0,0.0,0.0,0.0,0.0,0.0,3.4833,3.5938,3.7015,3.7584,3.8691,3.917,3.8571,3.8512,3.905,4.0307,3.9918,4.0397,4.2201,4.1662,4.1572,4.2141,4.1542,4.1145,4.1145,4.0576,4.0277,4.0277,3.9709,3.9373,3.9373,3.9373,3.9373,3.9463,4.0726,4.1362,4.1474,4.2701,4.323,4.329,4.329,4.329,4.329,4.329,4.329,4.329,4.329,4.329,4.329,4.329,4.4167,4.5304,4.5992,4.6711,4.7309,4.7309,4.7309,4.7309,4.7309,4.7309,4.7309,4.7309,4.7309,4.7309,4.7309,4.7309,4.7309,4.7309,4.7309,4.7309,4.7309,4.7848,4.8476,4.912,4.9763,5.0405,5.0973,5.1169,5.1229,5.1229,5.1229,5.1229,5.1229,5.1229,5.1229,5.1229,5.1139,5.1109,5.1109,5.102,5.102,5.1109,5.1109,5.1109,5.1063,5.0405,4.9793,4.9209,4.912,4.909,0.0,0.0,0.0,0.0,0.0,0.0,3.6244,0.0,3.581,0.0,0.0,0.0,0.0,0.0,0.0,0.0,3.4262,0.0,0.0,0.0,3.6985,0.0,0.0,0.0,3.7793,3.8871,3.9798,4.0367,4.0487,4.0905,4.1782,4.1572,4.1542,4.1811,4.1572,4.1422,4.1422,4.0726,4.0397,4.0397,3.9738,3.9373,3.9403,3.9798,3.9978,4.0068,4.1422,4.1991,4.2051,4.294,4.329,4.329,4.329,4.329,4.329,4.329,4.329,4.329,4.329,4.329,4.329,4.329,4.4227,4.5334,4.5633,4.6471,4.7309,4.7309,4.7309,4.7309,4.7309,4.7309,4.7309,4.7309,4.7309,4.7309,4.7309,4.7309,4.7309,4.7309,4.7608,4.7878,4.7878,4.8416,4.9075,4.9733,5.0391,5.0853,5.1169,5.1229,5.1229,5.1229,5.1229,5.1229,5.1229,5.1229,5.1229,5.1229,5.1229,5.1229,5.1229,5.1229,5.1229,5.1229,5.1229,5.1229,5.1229,5.093,5.0661,5.0391,4.9613,4.9299,3.7823,0.0,0.0,0.0,0.0,0.0,0.0,0.0,0.0,0.0,0.0,0.0,0.0,0.0,0.0,0.0,0.0,3.528,0.0,0.0,0.0,0.0,0.0,0.0,0.0,3.8362,3.9469,3.9828,4.0457,4.1085,4.1662,4.1692,4.1743,4.1923,4.1923,4.1923,4.1923,4.1265,4.0846,4.0666,4.0187,3.9858,3.9709,4.0367,4.0666,4.0726,4.1901,4.241,4.244,4.306,4.329,4.329,4.329,4.329,4.329,4.329,4.329,4.329,4.329,4.329,4.3319,4.3499,4.4377,4.5334,4.5514,4.6381,4.7309,4.7309,4.7309,4.7309,4.7309,4.7309,4.7309,4.7309,4.7309,4.7309,4.7309,4.7459,4.7578,4.7578,4.8117,4.8626,4.8775,4.9224,4.9703,5.0106,5.0764,5.1229,5.1229,5.1229,5.1229,5.1229,5.1229,5.1229,5.1229,5.1229,5.1229,5.1229,5.1229,5.1229,5.1229,5.1229,5.1229,5.1229,5.1229,5.1229,5.1229,5.1229,5.1229,5.1199,5.0242,4.9793,0.0,0.0,0.0,3.7554,0.0,0.0,0.0,0.0,3.691,0.0,0.0,0.0,0.0,0.0,0.0,0.0,0.0,0.0,0.0,0.0,0.0,0.0,0.0,0.0,0.0,3.6207,3.7135,0.0,3.908,4.0307,4.2261,4.2381,4.2611,4.32,4.323,4.323,4.323,4.2611,4.2021,4.1392,4.1324,4.0995,4.0397,4.1055,4.1392,4.1384,4.2111,4.241,4.244,4.306,4.329,4.329,4.329,4.329,4.329,4.329,4.329,4.329,4.329,4.329,4.3409,4.4077,4.4736,4.5424,4.6082,4.677,4.7309,4.7309,4.7309,4.7309,4.7309,4.7309,4.7309,4.7309,4.7309,4.7309,4.7309,4.7818,4.8267,4.8267,4.882,4.9434,5.0016,5.0136,5.0166,5.0196,5.0764,5.1229,5.1229,5.1229,5.1229,5.1229,5.1229,5.1229,5.1229,5.1229,5.1229,5.1229,5.1229,5.1229,5.1229,5.1229,5.1229,5.1229,5.1229,5.1229,5.1229,5.1229,5.1229,5.1229,5.1169,5.1169,0.0,0.0,4.1175,3.9194,0.0,0.0,0.0,0.0,0.0,0.0,0.0,0.0,0.0,0.0,0.0,0.0,0.0,0.0,0.0,0.0,0.0,0.0,0.0,0.0,0.0,0.0,0.0,0.0,3.8781,0.0,4.0367,4.1272,4.1841,4.2043,4.2841,4.329,4.329,4.2671,4.2291,4.2081,4.1632,4.1265,4.1055,4.1782,4.2081,4.2111,4.2731,4.3,4.303,4.32,4.329,4.329,4.329,4.329,4.329,4.329,4.329,4.329,4.329,4.3589,4.4018,4.4257,4.5065,4.6022,4.6219,4.677,4.7309,4.7309,4.7309,4.7309,4.7309,4.7309,4.7309,4.7309,4.7309,4.7429,4.7848,4.8117,4.8416,4.891,4.9464,4.9972,5.0136,5.0554,5.0853,5.0853,5.1079,5.1229,5.1229,5.1229,5.1229,5.1229,5.1229,5.1229,5.1229,5.1229,5.1229,5.1229,5.1229,5.1229,5.1229,5.1229,5.1229,5.1229,5.1229,5.1229,5.1229,5.1229,5.1229,5.1229,5.1229,5.1229,4.1444,4.1863,0.0,4.0546,4.054,0.0,3.8822,0.0,0.0,0.0,0.0,0.0,0.0,0.0,0.0,0.0,0.0,0.0,0.0,3.4921,0.0,0.0,0.0,0.0,0.0,0.0,0.0,3.7404,3.8422,3.926,0.0,4.0786,4.1542,4.1752,4.2761,4.329,4.329,4.291,4.262,4.241,4.2162,4.1953,4.1782,4.244,4.2701,4.2731,4.315,4.329,4.329,4.329,4.329,4.329,4.329,4.329,4.329,4.329,4.3439,4.3648,4.3648,4.4067,4.4706,4.4945,4.5603,4.6339,4.6548,4.698,4.7309,4.7309,4.7309,4.7309,4.7309,4.7309,4.7309,4.7309,4.7309,4.7489,4.8147,4.8476,4.8835,4.9494,5.0152,5.0554,5.0554,5.0883,5.1229,5.1229,5.1229,5.1229,5.1229,5.1229,5.1229,5.1229,5.1229,5.1229,5.1229,5.1229,5.1229,5.1229,5.1229,5.1229,5.1229,5.1229,5.1229,5.1229,5.1229,5.1229,5.1229,5.1229,5.1229,5.1229,5.1229,5.1229]}]]